[[{"header":{"parameterUnit":"m.s-1","parameterCategory":1,"la1":31.0,"la2":29.5877,"lo1":-88.7671,"lo2":-86.6584,"dy":0.0162,"dx":0.0185,"nx":115,"ny":88,"refTime":"2026-03-04T00:00:00:Z","depth":0,"parameterNumber":2,"parameterNumberName":"U-component_of_WINDS"},"data":[0.0,0.0,0.0,0.0,0.0,0.0,0.0,0.0,0.0,0.0,0.0,0.0,0.0,0.0,0.0,0.0,0.0,0.0,0.0,0.0,0.0,0.0,0.0,0.0,0.0,0.0,0.0,0.0,0.0,0.0,0.0,0.0,0.0,0.0,0.0,0.0,0.0,0.0,0.0,0.0,0.0,0.0,0.0,0.0,0.0,0.0,0.0,0.0,0.0,0.0,0.0,0.0,0.0,0.0,0.0,0.0,0.0,0.0,0.0,0.0,0.0,0.0,0.0,0.0,0.0,0.0,0.0,0.0,0.0,0.0,0.0,0.0,0.0,0.0,0.0,0.0,0.0,0.0,0.0,0.0,0.0,0.0,0.0,0.0,0.0,0.0,0.0,0.0,0.0,0.0,0.0,0.0,0.0,0.0,0.0,0.0,0.0,0.0,0.0,0.0,0.0,0.0,0.0,0.0,0.0,0.0,0.0,0.0,0.0,0.0,0.0,0.0,0.0,0.0,0.0,0.0,0.0,0.0,0.0,0.0,0.0,0.0,0.0,0.0,0.0,0.0,0.0,0.0,0.0,0.0,0.0,0.0,0.0,0.0,0.0,0.0,0.0,0.0,0.0,0.0,0.0,0.0,0.0,0.0,0.0,0.0,0.0,0.0,0.0,0.0,0.0,0.0,0.0,0.0,0.0,0.0,0.0,0.0,0.0,0.0,0.0,0.0,0.0,0.0,0.0,0.0,0.0,0.0,0.0,0.0,0.0,0.0,0.0,0.0,0.0,0.0,0.0,0.0,0.0,0.0,0.0,0.0,0.0,0.0,0.0,0.0,0.0,0.0,0.0,0.0,0.0,0.0,0.0,0.0,0.0,0.0,0.0,0.0,0.0,0.0,0.0,0.0,0.0,0.0,0.0,0.0,0.0,0.0,0.0,0.0,0.0,0.0,0.0,0.0,0.0,0.0,0.0,0.0,0.0,0.0,0.0,0.0,0.0,0.0,0.0,0.0,0.0,0.0,0.0,0.0,0.0,0.0,0.0,0.0,0.0,0.0,0.0,0.0,0.0,0.0,0.0,0.0,0.0,0.0,0.0,0.0,0.0,0.0,0.0,0.0,0.0,0.0,0.0,0.0,0.0,0.0,0.0,0.0,0.0,0.0,0.0,0.0,0.0,0.0,0.0,0.0,0.0,0.0,0.0,0.0,0.0,0.0,0.0,0.0,0.0,0.0,0.0,0.0,0.0,0.0,0.0,0.0,0.0,0.0,0.0,0.0,0.0,0.0,0.0,0.0,0.0,0.0,0.0,0.0,0.0,0.0,0.0,0.0,0.0,0.0,0.0,0.0,0.0,0.0,0.0,0.0,0.0,0.0,0.0,0.0,0.0,0.0,0.0,0.0,0.0,0.0,0.0,0.0,0.0,0.0,0.0,0.0,0.0,0.0,0.0,0.0,0.0,0.0,0.0,0.0,0.0,0.0,0.0,0.0,0.0,0.0,0.0,0.0,0.0,0.0,0.0,0.0,0.0,0.0,0.0,0.0,0.0,0.0,0.0,0.0,0.0,0.0,0.0,0.0,0.0,0.0,0.0,0.0,0.0,0.0,0.0,0.0,0.0,0.0,0.0,0.0,0.0,0.0,0.0,0.0,0.0,0.0,0.0,0.0,0.0,0.0,0.0,0.0,0.0,0.0,0.0,0.0,0.0,0.0,0.0,0.0,0.0,0.0,0.0,0.0,0.0,0.0,0.0,0.0,0.0,0.0,0.0,0.0,0.0,0.0,0.0,0.0,0.0,0.0,0.0,0.0,0.0,0.0,0.0,0.0,0.0,0.0,0.0,0.0,0.0,0.0,0.0,0.0,0.0,0.0,0.0,0.0,0.0,0.0,0.0,0.0,0.0,0.0,0.0,0.0,0.0,0.0,0.0,0.0,0.0,0.0,0.0,0.0,0.0,0.0,0.0,0.0,0.0,0.0,0.0,0.0,0.0,0.0,0.0,0.0,0.0,0.0,0.0,0.0,0.0,0.0,0.0,0.0,0.0,0.0,0.0,0.0,0.0,0.0,0.0,0.0,0.0,0.0,0.0,0.0,0.0,0.0,0.0,0.0,0.0,0.0,0.0,0.0,0.0,0.0,0.0,0.0,0.0,0.0,0.0,0.0,0.0,0.0,0.0,0.0,0.0,0.0,0.0,0.0,0.0,0.0,0.0,0.0,0.0,0.0,0.0,0.0,0.0,0.0,0.0,0.0,0.0,0.0,0.0,0.0,0.0,0.0,0.0,0.0,0.0,0.0,0.0,0.0,0.0,0.0,0.0,0.0,0.0,0.0,0.0,0.0,0.0,0.0,0.0,0.0,0.0,0.0,0.0,0.0,0.0,0.0,0.0,0.0,0.0,0.0,0.0,0.0,0.0,0.0,0.0,0.0,0.0,0.0,0.0,0.0,0.0,0.0,0.0,0.0,0.0,0.0,0.0,0.0,0.0,0.0,0.0,0.0,0.0,0.0,0.0,0.0,0.0,0.0,0.0,0.0,0.0,0.0,0.0,0.0,0.0,0.0,0.0,0.0,0.0,0.0,0.0,0.0,0.0,0.0,0.0,0.0,0.0,0.0,0.0,0.0,0.0,0.0,0.0,0.0,0.0,0.0,0.0,0.0,0.0,0.0,0.0,0.0,0.0,0.0,0.0,0.0,0.0,0.0,0.0,0.0,0.0,0.0,0.0,0.0,0.0,0.0,0.0,0.0,0.0,0.0,0.0,0.0,0.0,0.0,0.0,0.0,0.0,0.0,0.0,0.0,0.0,0.0,0.0,0.0,0.0,0.0,0.0,0.0,0.0,0.0,0.0,0.0,0.0,0.0,0.0,0.0,0.0,0.0,0.0,0.0,0.0,0.0,0.0,0.0,0.0,0.0,0.0,0.0,0.0,0.0,0.0,0.0,0.0,0.0,0.0,0.0,0.0,0.0,0.0,0.0,0.0,0.0,0.0,0.0,0.0,0.0,0.0,0.0,0.0,0.0,0.0,0.0,0.0,0.0,0.0,0.0,0.0,0.0,0.0,0.0,0.0,0.0,0.0,0.0,0.0,0.0,0.0,0.0,0.0,0.0,0.0,0.0,0.0,0.0,0.0,0.0,0.0,0.0,0.0,0.0,0.0,0.0,0.0,0.0,0.0,0.0,0.0,0.0,0.0,0.0,0.0,0.0,0.0,0.0,0.0,0.0,0.0,0.0,0.0,0.0,0.0,0.0,0.0,0.0,0.0,0.0,0.0,0.0,0.0,0.0,0.0,0.0,0.0,0.0,0.0,0.0,0.0,0.0,0.0,0.0,0.0,0.0,0.0,0.0,0.0,0.0,0.0,0.0,0.0,0.0,0.0,0.0,0.0,0.0,0.0,0.0,0.0,0.0,0.0,0.0,0.0,0.0,0.0,0.0,0.0,0.0,0.0,0.0,0.0,0.0,0.0,0.0,0.0,0.0,0.0,0.0,0.0,0.0,0.0,0.0,0.0,0.0,0.0,0.0,0.0,0.0,0.0,0.0,0.0,0.0,0.0,0.0,0.0,0.0,0.0,0.0,0.0,0.0,0.0,0.0,0.0,0.0,0.0,0.0,0.0,0.0,0.0,0.0,0.0,0.0,0.0,0.0,0.0,0.0,0.0,0.0,0.0,0.0,0.0,0.0,0.0,0.0,0.0,0.0,0.0,0.0,0.0,0.0,0.0,0.0,0.0,0.0,0.0,0.0,0.0,0.0,0.0,0.0,0.0,0.0,0.0,0.0,0.0,0.0,0.0,0.0,0.0,0.0,0.0,0.0,0.0,0.0,0.0,0.0,0.0,0.0,0.0,0.0,0.0,0.0,0.0,0.0,0.0,0.0,0.0,0.0,0.0,0.0,0.0,0.0,0.0,0.0,0.0,0.0,0.0,0.0,0.0,0.0,0.0,0.0,0.0,0.0,0.0,0.0,0.0,0.0,0.0,0.0,0.0,0.0,0.0,0.0,0.0,0.0,0.0,0.0,0.0,0.0,0.0,0.0,0.0,0.0,0.0,0.0,0.0,0.0,0.0,0.0,0.0,0.0,0.0,0.0,0.0,0.0,0.0,0.0,0.0,0.0,0.0,0.0,0.0,0.0,0.0,0.0,0.0,0.0,0.0,0.0,0.0,0.0,0.0,0.0,0.0,0.0,0.0,0.0,0.0,0.0,0.0,0.0,0.0,0.0,0.0,0.0,0.0,0.0,0.0,0.0,0.0,0.0,0.0,0.0,0.0,0.0,0.0,0.0,-3.1258,0.0,0.0,0.0,0.0,0.0,0.0,0.0,0.0,0.0,0.0,0.0,0.0,0.0,0.0,0.0,0.0,0.0,0.0,0.0,0.0,0.0,0.0,0.0,0.0,0.0,0.0,0.0,0.0,0.0,0.0,0.0,0.0,0.0,0.0,0.0,0.0,0.0,0.0,0.0,0.0,0.0,0.0,0.0,0.0,0.0,0.0,0.0,0.0,0.0,0.0,0.0,0.0,0.0,0.0,0.0,0.0,0.0,0.0,0.0,0.0,0.0,0.0,0.0,0.0,0.0,0.0,0.0,0.0,0.0,0.0,0.0,0.0,0.0,0.0,0.0,0.0,0.0,0.0,0.0,0.0,0.0,0.0,0.0,0.0,0.0,0.0,0.0,0.0,0.0,0.0,0.0,0.0,0.0,0.0,0.0,0.0,0.0,0.0,0.0,0.0,0.0,0.0,0.0,0.0,0.0,0.0,0.0,0.0,0.0,0.0,-3.543,-3.5098,-3.4709,-3.3829,-3.2425,0.0,0.0,0.0,0.0,0.0,0.0,0.0,0.0,0.0,0.0,0.0,0.0,0.0,0.0,0.0,0.0,0.0,0.0,0.0,0.0,0.0,0.0,0.0,0.0,0.0,0.0,0.0,0.0,0.0,0.0,0.0,0.0,0.0,0.0,0.0,0.0,0.0,0.0,0.0,0.0,0.0,0.0,0.0,0.0,0.0,0.0,0.0,0.0,0.0,0.0,0.0,0.0,0.0,0.0,0.0,0.0,0.0,0.0,0.0,0.0,0.0,0.0,0.0,0.0,0.0,0.0,0.0,0.0,0.0,0.0,0.0,0.0,0.0,0.0,0.0,0.0,0.0,0.0,0.0,0.0,0.0,0.0,0.0,0.0,0.0,0.0,0.0,0.0,0.0,0.0,0.0,0.0,0.0,0.0,0.0,0.0,0.0,0.0,0.0,0.0,0.0,0.0,0.0,0.0,0.0,0.0,0.0,0.0,0.0,0.0,0.0,0.0,-3.502,-3.4124,-3.2857,0.0,0.0,0.0,0.0,0.0,0.0,0.0,0.0,0.0,0.0,0.0,0.0,0.0,0.0,0.0,0.0,0.0,0.0,0.0,0.0,0.0,0.0,0.0,0.0,0.0,0.0,0.0,0.0,0.0,0.0,0.0,0.0,0.0,0.0,0.0,0.0,0.0,0.0,0.0,0.0,0.0,0.0,0.0,0.0,0.0,0.0,0.0,0.0,0.0,0.0,0.0,0.0,0.0,0.0,0.0,0.0,0.0,0.0,0.0,0.0,0.0,0.0,0.0,0.0,0.0,0.0,0.0,0.0,0.0,0.0,0.0,0.0,0.0,0.0,0.0,0.0,0.0,0.0,0.0,0.0,0.0,0.0,0.0,0.0,0.0,0.0,0.0,0.0,0.0,0.0,0.0,0.0,0.0,0.0,0.0,0.0,0.0,0.0,0.0,0.0,0.0,0.0,0.0,0.0,0.0,0.0,0.0,0.0,0.0,0.0,-3.5571,-3.5498,-3.543,0.0,-3.1369,0.0,0.0,0.0,0.0,0.0,0.0,0.0,0.0,0.0,0.0,0.0,0.0,0.0,0.0,0.0,0.0,0.0,0.0,0.0,0.0,0.0,0.0,0.0,0.0,0.0,0.0,0.0,0.0,0.0,0.0,0.0,0.0,0.0,0.0,0.0,0.0,0.0,0.0,0.0,0.0,0.0,0.0,0.0,0.0,0.0,0.0,0.0,0.0,0.0,0.0,0.0,0.0,0.0,0.0,0.0,0.0,0.0,0.0,0.0,0.0,0.0,0.0,0.0,0.0,0.0,0.0,0.0,0.0,0.0,0.0,0.0,0.0,0.0,0.0,0.0,0.0,0.0,0.0,0.0,0.0,0.0,0.0,0.0,0.0,0.0,0.0,0.0,0.0,0.0,0.0,0.0,0.0,0.0,0.0,0.0,0.0,0.0,0.0,0.0,0.0,0.0,0.0,0.0,0.0,0.0,0.0,0.0,0.0,0.0,0.0,-3.5625,-3.6031,-3.5113,-3.3367,0.0,0.0,0.0,0.0,0.0,0.0,0.0,0.0,0.0,0.0,0.0,0.0,0.0,0.0,0.0,0.0,0.0,0.0,0.0,0.0,0.0,0.0,0.0,0.0,0.0,0.0,0.0,0.0,0.0,0.0,0.0,0.0,0.0,0.0,0.0,0.0,0.0,0.0,0.0,0.0,0.0,0.0,0.0,0.0,0.0,0.0,0.0,0.0,0.0,0.0,0.0,0.0,0.0,0.0,0.0,0.0,0.0,0.0,0.0,0.0,0.0,0.0,0.0,0.0,0.0,0.0,0.0,0.0,0.0,0.0,0.0,0.0,0.0,0.0,0.0,0.0,0.0,0.0,0.0,0.0,0.0,0.0,0.0,0.0,0.0,0.0,0.0,0.0,0.0,0.0,0.0,0.0,0.0,0.0,0.0,0.0,0.0,0.0,0.0,0.0,0.0,0.0,0.0,0.0,0.0,0.0,0.0,0.0,0.0,0.0,-3.5222,-3.5355,-3.5716,-3.427,-3.2475,-3.0429,0.0,0.0,0.0,0.0,0.0,0.0,0.0,0.0,0.0,0.0,0.0,0.0,0.0,0.0,0.0,0.0,0.0,0.0,0.0,0.0,0.0,0.0,0.0,0.0,0.0,0.0,0.0,0.0,0.0,0.0,0.0,0.0,0.0,0.0,0.0,0.0,0.0,0.0,0.0,0.0,0.0,0.0,0.0,0.0,0.0,0.0,0.0,0.0,0.0,0.0,0.0,0.0,0.0,0.0,0.0,0.0,0.0,0.0,0.0,0.0,0.0,0.0,0.0,0.0,0.0,0.0,0.0,0.0,0.0,0.0,0.0,0.0,0.0,0.0,0.0,0.0,0.0,0.0,0.0,0.0,0.0,0.0,0.0,0.0,0.0,0.0,0.0,0.0,0.0,0.0,0.0,0.0,0.0,0.0,0.0,0.0,0.0,0.0,0.0,0.0,0.0,0.0,0.0,0.0,0.0,0.0,0.0,0.0,0.0,-3.4851,-3.4611,-3.4382,-3.2925,-3.1417,0.0,0.0,0.0,0.0,0.0,0.0,0.0,0.0,0.0,0.0,0.0,0.0,0.0,0.0,0.0,0.0,0.0,0.0,0.0,0.0,0.0,0.0,0.0,0.0,0.0,0.0,0.0,0.0,0.0,0.0,0.0,0.0,0.0,0.0,0.0,0.0,0.0,0.0,0.0,0.0,0.0,0.0,0.0,0.0,0.0,0.0,0.0,0.0,0.0,0.0,0.0,0.0,0.0,0.0,0.0,0.0,0.0,0.0,0.0,0.0,0.0,0.0,0.0,0.0,0.0,0.0,0.0,0.0,0.0,0.0,0.0,0.0,0.0,0.0,0.0,0.0,0.0,0.0,0.0,0.0,0.0,0.0,0.0,0.0,0.0,0.0,0.0,0.0,0.0,0.0,0.0,0.0,0.0,0.0,0.0,0.0,0.0,0.0,0.0,0.0,0.0,0.0,0.0,0.0,0.0,0.0,0.0,0.0,0.0,-3.393,-3.4338,-3.4249,-3.3594,-3.2675,-3.1254,0.0,0.0,0.0,0.0,0.0,0.0,0.0,0.0,0.0,0.0,0.0,0.0,0.0,0.0,0.0,0.0,0.0,0.0,0.0,0.0,0.0,0.0,0.0,0.0,0.0,0.0,0.0,0.0,0.0,0.0,0.0,0.0,0.0,0.0,0.0,0.0,0.0,0.0,0.0,0.0,0.0,0.0,0.0,0.0,0.0,0.0,0.0,0.0,0.0,0.0,0.0,0.0,0.0,0.0,0.0,0.0,0.0,0.0,0.0,0.0,0.0,0.0,0.0,0.0,0.0,0.0,0.0,0.0,0.0,0.0,0.0,0.0,0.0,0.0,0.0,0.0,0.0,0.0,0.0,0.0,0.0,0.0,0.0,0.0,0.0,0.0,0.0,0.0,0.0,0.0,0.0,0.0,0.0,0.0,0.0,0.0,0.0,0.0,0.0,0.0,0.0,0.0,0.0,0.0,0.0,0.0,0.0,0.0,0.0,-3.3115,0.0,-3.379,0.0,-3.2322,-3.0939,0.0,0.0,0.0,0.0,0.0,0.0,0.0,0.0,0.0,0.0,0.0,0.0,0.0,0.0,0.0,0.0,0.0,0.0,0.0,0.0,0.0,0.0,0.0,0.0,0.0,0.0,0.0,0.0,0.0,0.0,0.0,0.0,0.0,0.0,0.0,0.0,0.0,0.0,0.0,0.0,0.0,0.0,0.0,0.0,0.0,0.0,0.0,0.0,0.0,0.0,0.0,0.0,0.0,0.0,0.0,0.0,0.0,0.0,0.0,0.0,0.0,0.0,0.0,0.0,0.0,0.0,0.0,0.0,0.0,0.0,0.0,0.0,0.0,0.0,0.0,0.0,0.0,0.0,0.0,0.0,0.0,0.0,0.0,0.0,0.0,0.0,0.0,0.0,0.0,0.0,0.0,0.0,0.0,0.0,0.0,0.0,0.0,0.0,0.0,0.0,0.0,0.0,0.0,0.0,0.0,0.0,0.0,0.0,-3.2647,-3.2815,-3.3355,-3.3264,-3.2413,-3.1755,-3.0448,0.0,0.0,0.0,0.0,0.0,0.0,0.0,0.0,0.0,0.0,0.0,0.0,0.0,0.0,0.0,0.0,0.0,0.0,0.0,0.0,0.0,0.0,0.0,0.0,0.0,0.0,0.0,0.0,0.0,0.0,0.0,0.0,0.0,0.0,0.0,0.0,0.0,0.0,0.0,0.0,0.0,0.0,0.0,0.0,0.0,0.0,0.0,0.0,0.0,0.0,0.0,0.0,0.0,0.0,0.0,0.0,0.0,0.0,0.0,0.0,0.0,0.0,0.0,0.0,0.0,0.0,0.0,0.0,0.0,0.0,0.0,0.0,0.0,0.0,0.0,0.0,0.0,0.0,0.0,0.0,0.0,0.0,0.0,0.0,0.0,0.0,0.0,0.0,0.0,0.0,0.0,0.0,0.0,0.0,0.0,0.0,0.0,0.0,0.0,0.0,0.0,0.0,0.0,0.0,0.0,0.0,0.0,0.0,0.0,-3.3031,-3.3478,-3.3317,-3.262,-3.15,-2.9959,0.0,0.0,0.0,0.0,0.0,0.0,0.0,0.0,0.0,0.0,0.0,0.0,0.0,0.0,0.0,0.0,0.0,0.0,0.0,0.0,0.0,0.0,0.0,0.0,0.0,0.0,0.0,0.0,0.0,0.0,0.0,0.0,0.0,0.0,0.0,0.0,0.0,0.0,0.0,0.0,0.0,0.0,0.0,0.0,0.0,0.0,0.0,0.0,0.0,0.0,0.0,0.0,0.0,0.0,0.0,0.0,0.0,0.0,0.0,0.0,0.0,0.0,0.0,0.0,0.0,0.0,0.0,0.0,0.0,0.0,0.0,0.0,0.0,0.0,0.0,0.0,0.0,0.0,0.0,0.0,0.0,0.0,0.0,0.0,0.0,0.0,0.0,0.0,0.0,0.0,0.0,0.0,0.0,0.0,0.0,0.0,0.0,0.0,0.0,0.0,0.0,0.0,0.0,0.0,0.0,0.0,0.0,0.0,0.0,-3.3985,-3.4271,-3.4027,-3.3397,-3.23,-3.0666,-2.8408,0.0,0.0,0.0,0.0,0.0,0.0,0.0,0.0,0.0,0.0,0.0,0.0,0.0,0.0,0.0,0.0,0.0,0.0,0.0,0.0,0.0,0.0,0.0,0.0,0.0,0.0,0.0,0.0,0.0,0.0,0.0,0.0,0.0,0.0,0.0,0.0,0.0,0.0,0.0,0.0,0.0,0.0,0.0,0.0,0.0,0.0,0.0,0.0,0.0,0.0,0.0,0.0,0.0,0.0,0.0,0.0,0.0,0.0,0.0,0.0,0.0,0.0,0.0,0.0,0.0,0.0,0.0,0.0,0.0,0.0,0.0,0.0,0.0,0.0,0.0,0.0,0.0,0.0,0.0,0.0,0.0,0.0,0.0,0.0,0.0,0.0,0.0,0.0,0.0,0.0,0.0,0.0,0.0,0.0,0.0,0.0,0.0,0.0,0.0,0.0,0.0,0.0,0.0,0.0,0.0,0.0,0.0,0.0,-3.5594,-3.5684,-3.5385,-3.4698,-3.3919,-3.2287,0.0,0.0,0.0,0.0,0.0,0.0,0.0,0.0,0.0,0.0,0.0,0.0,0.0,0.0,0.0,0.0,0.0,0.0,0.0,0.0,0.0,0.0,0.0,0.0,0.0,0.0,0.0,0.0,0.0,0.0,0.0,0.0,0.0,0.0,0.0,0.0,0.0,0.0,0.0,0.0,0.0,0.0,0.0,0.0,0.0,0.0,0.0,0.0,0.0,0.0,0.0,0.0,0.0,0.0,0.0,0.0,0.0,0.0,0.0,0.0,0.0,0.0,0.0,0.0,0.0,0.0,0.0,0.0,0.0,0.0,0.0,0.0,0.0,0.0,0.0,0.0,0.0,0.0,0.0,0.0,0.0,0.0,0.0,0.0,0.0,0.0,0.0,0.0,0.0,0.0,0.0,0.0,0.0,0.0,0.0,0.0,0.0,0.0,0.0,0.0,0.0,0.0,0.0,0.0,0.0,0.0,0.0,0.0,0.0,-3.6836,-3.7883,-3.7838,-3.6656,-3.4592,-3.2482,0.0,0.0,0.0,0.0,0.0,0.0,0.0,0.0,0.0,0.0,0.0,0.0,0.0,0.0,0.0,0.0,0.0,0.0,0.0,0.0,0.0,0.0,0.0,0.0,0.0,0.0,0.0,0.0,0.0,0.0,0.0,0.0,0.0,0.0,0.0,0.0,0.0,0.0,0.0,0.0,0.0,0.0,0.0,0.0,0.0,0.0,0.0,0.0,0.0,0.0,0.0,0.0,0.0,0.0,0.0,0.0,0.0,0.0,0.0,0.0,0.0,0.0,0.0,0.0,0.0,0.0,0.0,0.0,0.0,0.0,0.0,0.0,0.0,0.0,0.0,0.0,0.0,0.0,0.0,0.0,0.0,0.0,0.0,0.0,0.0,0.0,0.0,0.0,0.0,0.0,0.0,0.0,0.0,0.0,0.0,0.0,0.0,0.0,0.0,0.0,0.0,0.0,0.0,0.0,0.0,0.0,0.0,0.0,-3.5581,-3.7775,-3.9373,-3.9912,-3.935,-3.6618,-3.4052,0.0,0.0,0.0,0.0,0.0,0.0,0.0,0.0,0.0,0.0,0.0,0.0,0.0,0.0,0.0,0.0,0.0,0.0,0.0,0.0,0.0,0.0,0.0,0.0,0.0,0.0,0.0,0.0,0.0,0.0,0.0,0.0,0.0,0.0,0.0,0.0,0.0,0.0,0.0,0.0,0.0,0.0,0.0,0.0,0.0,0.0,0.0,0.0,0.0,0.0,0.0,0.0,0.0,0.0,0.0,0.0,0.0,0.0,0.0,0.0,0.0,0.0,0.0,0.0,0.0,0.0,0.0,0.0,0.0,0.0,0.0,0.0,0.0,0.0,0.0,0.0,0.0,0.0,0.0,0.0,0.0,0.0,0.0,0.0,0.0,0.0,0.0,0.0,0.0,0.0,0.0,0.0,0.0,0.0,0.0,0.0,0.0,0.0,0.0,0.0,0.0,0.0,0.0,0.0,0.0,0.0,0.0,0.0,-3.6758,-3.8489,-4.0363,-4.148,-4.1807,-3.8959,-3.6127,0.0,0.0,0.0,0.0,0.0,0.0,0.0,0.0,0.0,0.0,0.0,0.0,0.0,0.0,0.0,0.0,0.0,0.0,0.0,0.0,0.0,0.0,0.0,0.0,0.0,0.0,0.0,0.0,0.0,0.0,0.0,0.0,0.0,0.0,0.0,0.0,0.0,0.0,0.0,0.0,0.0,0.0,0.0,0.0,0.0,0.0,0.0,0.0,0.0,0.0,0.0,0.0,0.0,0.0,0.0,0.0,0.0,0.0,0.0,0.0,0.0,0.0,0.0,0.0,0.0,0.0,0.0,0.0,0.0,0.0,0.0,0.0,0.0,0.0,0.0,0.0,0.0,0.0,0.0,0.0,0.0,0.0,0.0,0.0,0.0,0.0,0.0,0.0,0.0,0.0,0.0,0.0,0.0,0.0,0.0,0.0,0.0,0.0,0.0,0.0,0.0,0.0,0.0,0.0,0.0,0.0,0.0,0.0,-3.7214,-3.938,-4.0615,-4.1278,-4.1365,-3.8692,-3.6245,0.0,0.0,0.0,0.0,0.0,0.0,0.0,0.0,0.0,0.0,0.0,0.0,0.0,0.0,0.0,0.0,0.0,0.0,0.0,0.0,0.0,0.0,0.0,0.0,0.0,0.0,0.0,0.0,0.0,0.0,0.0,0.0,0.0,0.0,0.0,0.0,0.0,0.0,0.0,0.0,0.0,0.0,0.0,0.0,0.0,0.0,0.0,0.0,-2.3314,0.0,0.0,0.0,0.0,0.0,0.0,0.0,0.0,0.0,0.0,0.0,0.0,0.0,0.0,0.0,0.0,0.0,0.0,0.0,0.0,0.0,0.0,0.0,0.0,0.0,0.0,0.0,0.0,0.0,0.0,0.0,0.0,0.0,0.0,0.0,0.0,0.0,0.0,0.0,0.0,0.0,0.0,0.0,0.0,0.0,0.0,0.0,0.0,0.0,0.0,0.0,0.0,0.0,0.0,0.0,0.0,0.0,0.0,0.0,-3.6805,-3.8585,-4.0025,-4.0618,-4.036,-3.8186,-3.6178,0.0,0.0,0.0,0.0,0.0,0.0,0.0,0.0,0.0,0.0,0.0,0.0,0.0,0.0,0.0,0.0,0.0,0.0,0.0,0.0,0.0,0.0,0.0,0.0,0.0,0.0,0.0,0.0,0.0,0.0,0.0,0.0,0.0,0.0,0.0,0.0,0.0,0.0,0.0,0.0,0.0,0.0,0.0,0.0,0.0,0.0,0.0,0.0,0.0,0.0,0.0,0.0,0.0,0.0,0.0,0.0,0.0,0.0,0.0,0.0,0.0,0.0,0.0,0.0,0.0,0.0,0.0,0.0,0.0,0.0,0.0,0.0,0.0,0.0,0.0,0.0,0.0,0.0,0.0,0.0,0.0,0.0,0.0,0.0,0.0,0.0,0.0,0.0,0.0,0.0,0.0,0.0,0.0,0.0,0.0,0.0,0.0,0.0,0.0,0.0,0.0,0.0,0.0,0.0,0.0,0.0,0.0,-3.4215,-3.6181,-3.7369,-3.91,-3.9728,-3.9268,-3.7595,-3.5885,-3.4122,0.0,0.0,0.0,0.0,0.0,0.0,0.0,0.0,0.0,0.0,0.0,0.0,0.0,0.0,0.0,0.0,0.0,0.0,0.0,0.0,0.0,0.0,0.0,0.0,0.0,0.0,0.0,0.0,0.0,0.0,0.0,0.0,0.0,0.0,0.0,0.0,0.0,0.0,-2.1683,-2.3271,0.0,0.0,0.0,0.0,0.0,0.0,0.0,0.0,-2.3668,0.0,0.0,0.0,0.0,0.0,0.0,0.0,0.0,0.0,0.0,0.0,0.0,0.0,0.0,0.0,0.0,0.0,0.0,0.0,0.0,0.0,0.0,0.0,0.0,0.0,0.0,0.0,0.0,0.0,0.0,0.0,0.0,0.0,0.0,0.0,0.0,0.0,0.0,0.0,0.0,0.0,0.0,0.0,0.0,0.0,0.0,0.0,0.0,0.0,0.0,0.0,0.0,0.0,0.0,0.0,0.0,-3.1245,-3.3977,-3.6015,-3.7307,-3.8365,-3.8707,-3.8162,-3.6967,-3.5028,-3.24,0.0,0.0,0.0,0.0,0.0,0.0,0.0,0.0,0.0,0.0,0.0,0.0,0.0,0.0,0.0,0.0,0.0,0.0,0.0,0.0,0.0,0.0,0.0,0.0,0.0,0.0,0.0,0.0,0.0,0.0,0.0,0.0,0.0,0.0,0.0,0.0,0.0,0.0,0.0,-2.4946,-2.5751,0.0,0.0,0.0,0.0,0.0,0.0,0.0,0.0,-2.3553,0.0,0.0,0.0,0.0,0.0,0.0,0.0,0.0,0.0,0.0,0.0,0.0,0.0,0.0,0.0,0.0,0.0,0.0,0.0,0.0,0.0,0.0,0.0,0.0,0.0,0.0,0.0,0.0,0.0,0.0,0.0,0.0,0.0,0.0,0.0,0.0,0.0,0.0,0.0,0.0,0.0,0.0,0.0,0.0,0.0,0.0,0.0,0.0,0.0,0.0,0.0,0.0,0.0,0.0,0.0,-3.0631,-3.3252,-3.5119,-3.6146,-3.7147,-3.733,-3.6673,-3.5583,-3.3746,0.0,0.0,0.0,0.0,0.0,0.0,0.0,0.0,0.0,0.0,0.0,0.0,0.0,0.0,0.0,0.0,0.0,0.0,0.0,0.0,0.0,0.0,0.0,0.0,0.0,0.0,0.0,0.0,0.0,0.0,0.0,0.0,0.0,0.0,0.0,0.0,0.0,0.0,0.0,0.0,-2.4759,-2.5646,-2.6354,0.0,0.0,0.0,0.0,0.0,0.0,-2.4175,-2.3918,0.0,0.0,0.0,0.0,0.0,0.0,0.0,0.0,0.0,0.0,0.0,0.0,0.0,0.0,0.0,0.0,0.0,0.0,0.0,0.0,0.0,0.0,0.0,0.0,0.0,0.0,0.0,0.0,0.0,0.0,0.0,0.0,0.0,0.0,0.0,0.0,0.0,0.0,0.0,0.0,0.0,0.0,0.0,0.0,0.0,0.0,0.0,0.0,0.0,0.0,0.0,0.0,0.0,0.0,0.0,-2.9917,-3.2533,-3.4276,-3.5028,-3.6058,-3.6218,-3.5332,-3.4154,-3.2386,0.0,0.0,0.0,0.0,0.0,0.0,0.0,0.0,0.0,0.0,0.0,0.0,0.0,0.0,0.0,0.0,0.0,0.0,0.0,0.0,0.0,0.0,0.0,0.0,0.0,0.0,0.0,0.0,0.0,0.0,0.0,0.0,0.0,0.0,0.0,0.0,0.0,0.0,0.0,0.0,0.0,-2.5403,-2.6509,-2.5864,0.0,0.0,0.0,0.0,-2.4652,-2.4476,0.0,0.0,0.0,0.0,0.0,0.0,0.0,0.0,0.0,0.0,0.0,0.0,0.0,0.0,0.0,0.0,0.0,0.0,0.0,0.0,0.0,0.0,0.0,0.0,0.0,0.0,0.0,0.0,0.0,0.0,0.0,0.0,0.0,0.0,0.0,0.0,0.0,0.0,0.0,0.0,0.0,0.0,0.0,0.0,0.0,0.0,0.0,0.0,0.0,0.0,0.0,0.0,0.0,0.0,0.0,0.0,-2.93,-3.2059,-3.39,-3.4758,-3.5852,-3.5915,-3.4793,-3.3257,-3.1348,0.0,0.0,0.0,0.0,0.0,0.0,0.0,0.0,0.0,0.0,0.0,0.0,0.0,0.0,0.0,0.0,0.0,0.0,0.0,0.0,0.0,0.0,0.0,0.0,0.0,0.0,0.0,0.0,0.0,0.0,0.0,0.0,0.0,0.0,0.0,0.0,0.0,0.0,0.0,0.0,0.0,-2.59,-2.6534,-2.6662,-2.6461,0.0,0.0,-2.5787,-2.5787,-2.4916,0.0,0.0,0.0,0.0,0.0,0.0,0.0,0.0,0.0,0.0,0.0,0.0,0.0,0.0,0.0,0.0,0.0,0.0,0.0,0.0,0.0,0.0,0.0,0.0,0.0,0.0,0.0,0.0,0.0,0.0,0.0,0.0,0.0,0.0,0.0,0.0,0.0,0.0,0.0,0.0,0.0,0.0,0.0,0.0,0.0,0.0,0.0,0.0,0.0,0.0,0.0,0.0,0.0,0.0,0.0,-2.6468,-2.9038,-3.1786,-3.3695,-3.47,-3.5793,-3.5843,-3.4705,-3.3093,-3.1035,0.0,0.0,0.0,0.0,0.0,0.0,0.0,0.0,0.0,0.0,0.0,0.0,0.0,0.0,0.0,0.0,0.0,0.0,0.0,0.0,0.0,0.0,0.0,0.0,0.0,0.0,0.0,0.0,0.0,0.0,0.0,0.0,0.0,0.0,0.0,0.0,0.0,0.0,0.0,0.0,0.0,0.0,-2.7053,-2.7203,0.0,0.0,0.0,-2.6919,-2.6569,0.0,0.0,0.0,0.0,0.0,0.0,0.0,0.0,0.0,0.0,0.0,0.0,0.0,0.0,0.0,0.0,0.0,0.0,0.0,0.0,0.0,0.0,0.0,0.0,0.0,0.0,0.0,0.0,0.0,0.0,0.0,0.0,0.0,0.0,0.0,0.0,0.0,0.0,0.0,0.0,0.0,0.0,0.0,0.0,0.0,0.0,0.0,0.0,0.0,0.0,0.0,0.0,0.0,0.0,0.0,0.0,0.0,-2.8924,-3.1655,-3.3521,-3.452,-3.5712,-3.575,-3.4557,-3.2796,0.0,0.0,0.0,0.0,0.0,0.0,0.0,0.0,0.0,0.0,0.0,0.0,0.0,0.0,0.0,0.0,0.0,0.0,0.0,0.0,0.0,0.0,0.0,0.0,0.0,0.0,0.0,-1.642,0.0,0.0,0.0,0.0,0.0,0.0,0.0,0.0,0.0,0.0,0.0,0.0,0.0,0.0,-2.6228,-2.7389,-2.7619,-2.7708,0.0,0.0,-2.7697,-2.7265,-2.7007,-2.6386,0.0,0.0,0.0,0.0,0.0,0.0,0.0,0.0,0.0,0.0,0.0,0.0,0.0,0.0,0.0,0.0,0.0,0.0,0.0,0.0,0.0,0.0,0.0,0.0,0.0,0.0,0.0,0.0,0.0,0.0,0.0,0.0,0.0,0.0,0.0,0.0,0.0,0.0,0.0,0.0,0.0,0.0,0.0,0.0,0.0,0.0,0.0,0.0,0.0,0.0,0.0,0.0,0.0,0.0,0.0,-2.9071,-3.1563,-3.3194,-3.4031,-3.535,-3.54,-3.4056,-3.1988,-2.9834,0.0,0.0,0.0,0.0,0.0,0.0,0.0,0.0,0.0,0.0,0.0,0.0,0.0,0.0,0.0,0.0,0.0,0.0,0.0,0.0,0.0,0.0,0.0,0.0,0.0,0.0,0.0,0.0,0.0,0.0,0.0,0.0,0.0,0.0,0.0,0.0,0.0,0.0,0.0,0.0,0.0,-2.6047,-2.7165,-2.7756,-2.8047,0.0,0.0,-2.8034,-2.7996,-2.7201,-2.6211,-2.5159,0.0,0.0,0.0,0.0,0.0,0.0,0.0,0.0,0.0,0.0,0.0,0.0,0.0,0.0,0.0,0.0,0.0,0.0,0.0,0.0,0.0,0.0,0.0,0.0,0.0,0.0,0.0,0.0,0.0,0.0,0.0,0.0,0.0,0.0,0.0,0.0,0.0,0.0,0.0,0.0,0.0,0.0,0.0,0.0,0.0,0.0,0.0,0.0,0.0,0.0,0.0,0.0,0.0,-2.6188,-2.8712,-3.0986,-3.2581,-3.3489,-3.4509,-3.4485,-3.3365,-3.1536,-2.9412,0.0,0.0,0.0,0.0,0.0,0.0,0.0,0.0,0.0,0.0,0.0,0.0,0.0,0.0,0.0,0.0,0.0,0.0,0.0,0.0,0.0,0.0,0.0,0.0,0.0,0.0,0.0,0.0,-1.8298,-1.8668,-1.9115,0.0,0.0,0.0,0.0,0.0,0.0,0.0,0.0,0.0,0.0,-2.6536,-2.806,-2.8787,0.0,0.0,-2.9365,-2.9139,-2.9151,-2.821,-2.7128,-2.6101,-2.4728,0.0,0.0,0.0,0.0,0.0,0.0,0.0,0.0,0.0,0.0,0.0,0.0,0.0,0.0,0.0,0.0,0.0,0.0,0.0,0.0,0.0,0.0,0.0,0.0,0.0,0.0,0.0,0.0,0.0,0.0,0.0,0.0,0.0,0.0,0.0,0.0,0.0,0.0,0.0,0.0,0.0,0.0,0.0,0.0,0.0,0.0,0.0,0.0,0.0,0.0,0.0,0.0,-2.573,-2.7955,-3.0138,-3.1703,-3.2524,-3.3348,-3.3347,-3.2336,-3.0584,-2.8582,0.0,0.0,0.0,0.0,0.0,0.0,0.0,0.0,0.0,0.0,0.0,0.0,0.0,0.0,0.0,0.0,0.0,0.0,0.0,0.0,0.0,0.0,0.0,0.0,0.0,0.0,0.0,0.0,-1.8355,-1.8556,-1.8813,0.0,0.0,0.0,0.0,0.0,0.0,0.0,0.0,0.0,0.0,-2.6768,-2.8412,-2.9146,-2.9683,-3.0188,-2.9952,-2.9702,-2.9792,-2.885,-2.7783,-2.6889,0.0,0.0,0.0,0.0,0.0,0.0,0.0,0.0,0.0,0.0,0.0,0.0,0.0,0.0,0.0,0.0,0.0,0.0,0.0,0.0,0.0,0.0,0.0,0.0,0.0,0.0,0.0,0.0,0.0,0.0,-2.03,0.0,0.0,0.0,0.0,0.0,0.0,0.0,0.0,0.0,0.0,0.0,0.0,0.0,0.0,0.0,0.0,0.0,0.0,0.0,0.0,0.0,0.0,-2.5119,-2.6846,-2.9116,-3.049,-3.0945,-3.1997,-3.2008,-3.0945,-2.9094,-2.7323,-2.5708,0.0,0.0,0.0,0.0,0.0,0.0,0.0,0.0,0.0,0.0,0.0,0.0,0.0,0.0,0.0,0.0,0.0,0.0,0.0,0.0,0.0,0.0,0.0,0.0,0.0,0.0,-1.8104,-1.8387,-1.8283,0.0,0.0,0.0,0.0,0.0,0.0,0.0,0.0,0.0,0.0,-2.506,-2.6551,-2.7829,-2.8502,-2.8973,-2.939,-2.9404,-2.9509,-2.9753,-2.885,-2.7908,0.0,0.0,0.0,0.0,0.0,0.0,0.0,0.0,0.0,0.0,0.0,0.0,0.0,0.0,0.0,0.0,0.0,0.0,0.0,0.0,0.0,0.0,0.0,0.0,0.0,0.0,0.0,-2.3729,-2.3088,0.0,0.0,0.0,0.0,0.0,0.0,0.0,0.0,0.0,0.0,0.0,-2.4129,-2.4004,0.0,0.0,0.0,0.0,0.0,0.0,0.0,0.0,0.0,0.0,0.0,0.0,-2.4227,-2.5913,-2.748,-2.8656,-2.9401,-2.9927,-2.9911,-2.9273,-2.8254,-2.6689,-2.4417,0.0,0.0,0.0,0.0,0.0,0.0,0.0,0.0,0.0,0.0,0.0,0.0,0.0,0.0,0.0,0.0,0.0,0.0,0.0,0.0,0.0,0.0,0.0,0.0,0.0,-1.7733,0.0,0.0,0.0,0.0,0.0,0.0,0.0,0.0,0.0,0.0,0.0,-2.1433,-2.3201,-2.4503,-2.5937,-2.764,-2.8156,-2.8595,0.0,0.0,0.0,0.0,0.0,0.0,0.0,0.0,0.0,0.0,0.0,0.0,0.0,0.0,-2.4709,-2.3743,-2.3793,-2.3868,-2.3535,0.0,0.0,0.0,0.0,0.0,0.0,0.0,0.0,0.0,0.0,0.0,0.0,0.0,0.0,-2.4743,0.0,-2.3147,0.0,0.0,0.0,0.0,0.0,0.0,0.0,0.0,-2.3278,-2.3985,-2.4702,-2.4598,-2.4372,0.0,-2.3442,-2.2271,0.0,0.0,0.0,0.0,0.0,0.0,0.0,0.0,-2.3466,-2.4999,-2.6315,-2.7369,-2.8153,-2.8439,-2.8372,-2.7973,-2.7034,-2.5554,-2.3524,-2.1572,-1.9992,0.0,0.0,0.0,0.0,0.0,0.0,0.0,0.0,0.0,0.0,0.0,0.0,0.0,0.0,0.0,0.0,0.0,0.0,0.0,0.0,0.0,0.0,0.0,-1.7078,0.0,0.0,0.0,0.0,0.0,0.0,0.0,0.0,0.0,-1.9783,-2.0434,-2.1488,-2.3194,-2.4185,-2.5296,-2.6909,0.0,0.0,0.0,0.0,0.0,0.0,0.0,-2.8975,-2.8612,-2.8349,-2.8083,-2.7718,-2.7819,-2.7945,-2.7945,0.0,0.0,-2.5391,-2.5186,-2.523,-2.489,-2.5202,-2.5671,-2.6162,-2.6895,-2.762,0.0,0.0,0.0,0.0,0.0,0.0,0.0,0.0,-2.6383,-2.6126,0.0,-2.4264,0.0,0.0,0.0,0.0,0.0,-2.1858,0.0,0.0,-2.3767,-2.44,-2.4871,-2.5065,-2.4927,-2.4496,-2.4466,-2.3764,-2.2411,-2.0843,0.0,0.0,0.0,0.0,0.0,0.0,-2.2961,-2.411,-2.5523,-2.654,-2.7149,-2.7435,-2.7425,-2.7149,-2.548,-2.4129,-2.3143,-2.192,-2.0805,-1.9865,-1.8963,0.0,0.0,0.0,0.0,0.0,0.0,0.0,0.0,0.0,0.0,0.0,0.0,0.0,0.0,0.0,0.0,0.0,0.0,0.0,0.0,-1.6452,0.0,0.0,0.0,0.0,0.0,0.0,0.0,0.0,0.0,0.0,-2.0593,-2.1144,-2.2056,-2.3496,0.0,0.0,0.0,0.0,-2.7182,-2.8091,-2.8603,-2.9029,-2.9504,-2.9484,-2.9442,-2.9429,0.0,0.0,-2.9829,-3.0269,-3.057,-3.058,-3.0909,-3.0369,-2.7266,-2.6851,-2.6844,-2.6806,-2.6981,-2.7407,-2.8352,-2.8777,-2.9295,-2.8247,0.0,0.0,0.0,0.0,-2.6519,-2.6792,-2.6913,-2.6903,-2.6833,-2.663,-2.526,0.0,0.0,0.0,0.0,0.0,0.0,-2.3712,-2.4447,-2.5006,-2.5663,-2.6369,-2.6418,-2.6241,-2.5828,-2.5466,-2.4798,-2.3786,-2.279,-2.147,-1.995,0.0,0.0,0.0,0.0,-2.2798,-2.4062,-2.4987,-2.5676,-2.6104,-2.6211,-2.6211,-2.6114,-2.5374,-2.4526,-2.3624,-2.265,-2.1578,-2.0387,-1.9236,0.0,0.0,0.0,0.0,0.0,0.0,0.0,0.0,0.0,0.0,0.0,0.0,0.0,0.0,0.0,0.0,0.0,0.0,0.0,-1.7002,-1.688,-1.6849,0.0,0.0,0.0,0.0,0.0,0.0,0.0,0.0,0.0,-2.1968,-2.1884,-2.2155,0.0,0.0,-2.4168,-2.5259,-2.586,-2.6455,-2.7119,0.0,0.0,0.0,-2.9523,-2.9893,-3.0094,-3.0461,-3.0785,-3.0934,-3.106,-3.1173,-3.1173,-3.1286,-3.106,-3.0244,-2.9705,-2.9366,-2.9038,-2.9252,-2.9605,-2.9945,-3.0377,-3.0757,-2.9439,-2.8274,-2.7509,-2.7122,-2.7221,-2.7648,-2.7827,-2.7847,-2.8026,-2.7907,-2.7519,-2.6566,-2.5854,-2.5413,-2.4723,0.0,0.0,0.0,-2.5145,-2.5654,-2.6045,-2.6473,-2.6992,-2.7012,-2.6885,-2.6621,-2.6201,-2.5635,-2.4941,-2.4248,-2.3217,-2.1859,0.0,0.0,-2.1223,-2.2071,-2.3004,-2.3949,-2.4722,-2.5283,-2.5684,-2.5684,-2.5684,-2.5674,-2.5137,-2.456,-2.4053,-2.3047,-2.207,-2.1163,-2.001,-1.8936,0.0,0.0,0.0,0.0,0.0,0.0,0.0,0.0,0.0,0.0,0.0,-1.4828,-1.5277,0.0,0.0,0.0,-1.6658,-1.7108,-1.7282,-1.7365,0.0,0.0,0.0,0.0,0.0,0.0,0.0,-1.9799,-2.0622,-2.1578,-2.2758,-2.2853,-2.3103,-2.3761,-2.3874,-2.4162,-2.493,0.0,-2.6069,-2.6602,-2.7454,-2.8154,-2.8627,-2.9366,-3.0148,-3.0931,-3.1265,-3.1549,-3.1884,-3.1926,-3.1981,-3.2064,-3.2106,-3.2051,-3.2064,-3.1788,-3.1336,-3.0595,-3.0683,-3.0972,-3.1185,-3.1512,-3.1775,-3.0752,-3.0205,-2.9043,-2.8486,-2.8428,-2.8809,-2.8965,-2.9004,-2.9394,-2.9186,-2.8369,-2.7963,-2.7236,-2.6416,-2.5976,0.0,-2.5801,-2.625,-2.6445,-2.6504,-2.6894,-2.709,-2.7109,-2.7119,-2.71,-2.706,-2.6641,-2.6211,-2.5732,-2.5322,-2.4754,-2.3877,-2.2725,-2.1904,-2.1483,-2.2656,-2.3511,-2.3942,-2.4707,-2.5332,-2.5684,-2.5684,-2.5684,-2.5674,-2.4865,-2.4463,-2.4385,-2.3262,-2.2393,-2.1885,-2.1114,-2.0019,-1.8676,0.0,0.0,0.0,0.0,0.0,0.0,0.0,0.0,0.0,0.0,0.0,0.0,0.0,0.0,0.0,-1.7304,0.0,-1.7611,-1.793,0.0,0.0,0.0,-1.8525,-1.9343,-1.9453,-1.9971,-2.1151,0.0,0.0,-2.3198,0.0,-2.4473,-2.4521,-2.4463,-2.4526,-2.4805,-2.5365,-2.5983,-2.647,-2.7108,-2.7694,-2.8194,-2.9093,-3.0217,-3.1456,-3.1933,-3.2072,-3.2506,-3.2661,-3.2785,-3.2993,-3.3111,-3.3086,-3.3111,-3.298,-3.2767,-3.17,-3.1549,-3.1687,-3.2127,-3.2265,-3.2428,-3.1894,-3.1182,-3.0879,-3.0176,-2.9277,-2.9375,-2.9414,-2.9479,-2.9521,-2.9509,-2.9219,-2.8467,-2.7666,-2.6865,-2.6758,-2.6709,-2.6719,-2.6816,-2.7041,-2.7415,-2.7523,-2.7676,-2.7988,-2.7988,-2.7822,-2.75,-2.708,-2.665,-2.623,-2.5791,-2.5303,-2.4766,-2.4453,-2.3935,-2.3232,-2.3809,-2.4336,-2.4766,-2.5303,-2.5625,-2.5684,-2.5684,-2.5684,-2.5684,-2.5195,-2.4756,-2.4414,-2.3818,-2.2988,-2.1943,-2.1367,-2.0294,-1.8685,-1.8144,0.0,0.0,0.0,0.0,0.0,0.0,0.0,0.0,0.0,-1.5684,-1.646,0.0,-1.6789,0.0,-1.79,-1.8568,-1.9248,-1.9404,0.0,0.0,-1.9999,-2.0077,-2.0273,-2.085,-2.1514,-2.2139,-2.2959,-2.3769,-2.4521,-2.4832,-2.5049,-2.5313,-2.4797,-2.4531,-2.4957,-2.533,-2.5717,-2.6197,-2.6686,-2.7207,-2.776,-2.8802,-2.9886,-3.0779,-3.1205,-3.1705,-3.2332,-3.2593,-3.281,-3.3038,-3.3124,-3.3124,-3.3124,-3.3124,-3.3048,-3.2772,-3.2679,-3.2717,-3.2885,-3.291,-3.2905,-3.251,-3.2051,-3.167,-3.1094,-3.042,-3.0244,-3.0166,-3.0166,-3.0213,-3.0039,-2.9805,-2.916,-2.8594,-2.8164,-2.8154,-2.8154,-2.8135,-2.7949,-2.7988,-2.8203,-2.8037,-2.8066,-2.8291,-2.8301,-2.8164,-2.793,-2.7314,-2.6894,-2.6641,-2.5986,-2.5605,-2.5371,-2.5361,-2.5127,-2.4678,-2.4687,-2.4824,-2.5116,-2.5508,-2.5684,-2.5684,-2.5684,-2.5684,-2.5664,-2.5117,-2.4668,-2.4378,-2.3652,-2.2812,-2.1934,-2.1465,-2.0576,-1.9251,-1.8809,-1.8086,0.0,0.0,0.0,0.0,0.0,0.0,0.0,0.0,0.0,0.0,0.0,-1.7842,-1.8457,-1.9251,-1.9943,-2.042,-2.0674,-2.0957,-2.1387,-2.1426,-2.1572,-2.2004,-2.2441,-2.29,-2.332,-2.3945,-2.4587,-2.5057,-2.5244,-2.5449,-2.5654,-2.5265,-2.505,-2.5303,-2.5515,-2.5651,-2.5877,-2.6294,-2.6764,-2.7347,-2.8233,-2.9059,-2.9783,-3.0352,-3.0949,-3.1761,-3.2189,-3.2494,-3.2853,-3.3025,-3.3124,-3.3124,-3.3124,-3.3124,-3.3124,-3.3124,-3.3124,-3.3124,-3.3124,-3.3124,-3.2842,-3.2725,-3.1982,-3.1621,-3.1484,-3.1133,-3.0947,-3.0898,-3.0898,-3.0635,-3.0176,-2.9814,-2.9619,-2.958,-2.958,-2.958,-2.9607,-2.917,-2.8975,-2.8896,-2.8545,-2.835,-2.8301,-2.8301,-2.8301,-2.8262,-2.748,-2.707,-2.6992,-2.6211,-2.5752,-2.5684,-2.5684,-2.5684,-2.5664,-2.5342,-2.5156,-2.5156,-2.5537,-2.5684,-2.5684,-2.5684,-2.5684,-2.5645,-2.4836,-2.4424,-2.4394,-2.3242,-2.2402,-2.1982,-2.157,-2.0956,-2.0099,-1.9736,-1.918,0.0,-1.7891,0.0,0.0,0.0,0.0,0.0,0.0,0.0,0.0,-1.8656,-1.926,-2.0098,-2.0869,-2.1405,-2.1502,-2.1904,-2.2295,-2.2705,-2.2754,-2.3047,-2.3769,-2.3916,-2.4102,-2.4453,-2.4883,-2.5204,-2.5176,-2.5498,-2.5684,-2.5684,-2.5654,-2.5615,-2.5674,-2.5703,-2.5703,-2.5684,-2.5917,-2.638,-2.6955,-2.7526,-2.8175,-2.8863,-2.9531,-3.0148,-3.1128,-3.1681,-3.2176,-3.2624,-3.2939,-3.3124,-3.3124,-3.3124,-3.3124,-3.3124,-3.3124,-3.3124,-3.3124,-3.3124,-3.3124,-3.3105,-3.2783,-3.2617,-3.2158,-3.1514,-3.1435,-3.1201,-3.0898,-3.0898,-3.0625,-3.0195,-3.0117,-2.9893,-2.959,-2.958,-2.958,-2.9616,-2.9492,-2.9268,-2.8906,-2.8838,-2.8613,-2.831,-2.8301,-2.8301,-2.8262,-2.7783,-2.7353,-2.7012,-2.6514,-2.6084,-2.5693,-2.5684,-2.5684,-2.5684,0.0,0.0,0.0,-2.5654,-2.5684,-2.5684,-2.5684,-2.5684,-2.5664,-2.4826,0.0,-2.4385,-2.3471,-2.2779,-2.2422,-2.2314,0.0,0.0,0.0,0.0,0.0,0.0,0.0,0.0,0.0,0.0,0.0,-2.0342,-2.0196,-1.9639,-2.0245,-2.0917,-2.1475,-2.1973,-2.2559,-2.3242,-2.3379,-2.3594,-2.3994,-2.4053,-2.4131,-2.4297,-2.46,-2.4873,-2.4979,-2.5332,-2.5557,-2.5596,-2.5645,-2.5684,-2.5684,-2.5684,-2.5684,-2.5684,-2.5684,-2.5684,-2.5732,-2.5917,-2.6149,-2.6284,-2.6965,-2.7573,-2.8164,-2.8967,-2.9852,-3.0769,-3.156,-3.2164,-3.2636,-3.2952,-3.3124,-3.3124,-3.3124,-3.3124,-3.3124,-3.3124,-3.3124,-3.3124,-3.3124,-3.3124,-3.3301,0.0,-3.2881,-3.2539,0.0,-3.1699,-3.1396,-3.1191,-3.0976,-3.0762,-3.0537,-3.0537,-3.042,-3.0225,-3.0225,-3.0225,-3.0215,-2.999,-2.9756,-2.9531,-2.9111,-2.8809,-2.8594,-2.8389,-2.8301,-2.8281,-2.7924,-2.7441,-2.7012,-2.6592,-2.6162,-2.5684,-2.5684,-2.5684,-2.5684,-2.5684,-2.5684,-2.5684,-2.5684,-2.5684,-2.5684,-2.5684,-2.5684,-2.5664,0.0,0.0,0.0,0.0,0.0,0.0,0.0,0.0,0.0,0.0,0.0,-2.0928,-2.0488,-2.0439,-2.085,-2.0684,-2.085,-2.1484,-2.2129,-2.2119,-2.1269,-2.2002,-2.2588,-2.2812,-2.3203,-2.3623,-2.4043,-2.4102,-2.4277,-2.4668,-2.4736,-2.4814,-2.4992,-2.5264,-2.5391,-2.541,-2.5547,-2.5684,-2.5684,-2.5684,-2.5684,-2.5684,-2.5684,-2.5684,-2.5684,-2.5684,-2.5684,-2.5684,-2.5771,-2.5917,-2.5965,-2.6438,-2.7061,-2.7563,-2.8456,-2.9417,-3.0397,-3.1294,-3.2013,-3.2463,-3.2865,-3.3081,-3.3124,-3.3124,-3.3124,-3.3124,-3.3124,-3.3124,-3.3124,-3.3124,-3.3124,-3.3418,-3.3389,-3.3057,-3.2851,-3.2744,-3.2041,-3.166,-3.1484,0.0,0.0,0.0,-3.0898,-3.0898,-3.0898,-3.0898,-3.0898,-3.0869,-3.0488,-3.0273,-3.0166,-2.9385,-2.8994,-2.8906,-2.8486,-2.8301,-2.8281,-2.7939,-2.7519,-2.7021,-2.666,-2.624,-2.5732,-2.5684,-2.5684,-2.5684,-2.5684,-2.5684,-2.5684,-2.5684,-2.5684,-2.5684,-2.5684,-2.5684,-2.5684,-2.4951,-2.4531,-2.4512,-2.3447,-2.2808,-2.2842,-2.2519,-2.2334,-2.2334,-2.2334,-2.2178,-2.1795,-2.1687,-2.1678,-2.1756,-2.206,-2.2402,-2.2812,-2.3574,-2.3691,-2.291,-2.3486,-2.3935,-2.4014,-2.4336,-2.456,-2.4648,-2.4648,-2.4795,-2.5156,-2.5185,-2.5332,-2.5664,-2.5684,-2.5664,-2.5684,-2.5674,-2.5684,-2.5684,-2.5684,-2.5684,-2.5684,-2.5684,-2.5684,-2.5684,-2.5684,-2.5684,-2.5684,-2.5732,-2.5732,-2.5781,-2.611,-2.6582,-2.7136,-2.7987,-2.891,-2.9966,-3.097,-3.1725,-3.2104,-3.263,-3.2812,-3.2792,-3.2704,-3.2822,-3.278,-3.278,-3.278,-3.278,-3.2767,-3.2847,-3.3418,-3.3408,-3.3359,-3.3125,-3.2783,-3.2666,-3.2197,-3.1494,-3.1064,-3.0898,-3.0898,-3.0898,-3.0898,-3.0898,-3.0898,-3.0898,-3.0889,-3.083,-3.0576,0.0,-2.9697,-2.9277,-2.8906,-2.8486,-2.8301,-2.8291,-2.8223,-2.7793,-2.709,-2.6953,-2.6473,-2.5781,-2.5684,-2.5684,-2.5684,-2.5684,-2.5684,-2.5684,-2.5684,-2.5684,-2.5684,-2.5684,-2.5684,-2.5664,-2.5244,-2.5028,-2.5008,-2.4434,-2.415,-2.415,-2.4092,-2.4062,-2.4062,-2.4023,-2.4033,-2.3955,-2.3623,-2.3594,-2.3926,-2.3691,-2.3701,-2.4121,-2.4609,-2.4678,-2.4209,-2.4258,-2.4482,-2.4881,-2.4988,-2.5137,-2.544,-2.5469,-2.5469,-2.5557,-2.5635,-2.5625,-2.5684,-2.5684,-2.5684,-2.5684,-2.5684,-2.5684,-2.5684,-2.5684,-2.5684,-2.5684,-2.5684,-2.5684,-2.5684,-2.5684,-2.5684,-2.5684,-2.5684,-2.5684,-2.5732,-2.5907,-2.637,-2.6849,-2.7589,-2.8462,-2.9602,-3.0561,-3.1297,-3.1608,-3.2003,-3.2135,-3.1813,-3.1625,-3.1725,-3.1763,-3.1763,-3.1738,-3.1763,-3.1738,-3.2018,-3.3418,-3.3418,-3.3418,-3.331,-3.3105,-3.2646,-3.21,-3.1494,-3.1074,-3.0898,-3.0898,-3.0898,-3.0898,-3.0898,-3.0898,-3.0898,-3.0898,-3.0898,-3.0781,-3.0547,-3.0117,-2.9687,-2.9258,-2.8828,-2.8516,-2.831,-2.8301,-2.7969,-2.7393,-2.7139,-2.6699,-2.6103,-2.581,-2.5684,-2.5684,-2.5684,-2.5684,-2.5684,-2.5684,-2.5684,-2.5684,-2.5684,-2.5684,-2.5684,-2.5293,-2.5059,-2.5059,-2.4648,-2.4424,-2.4424,-2.4424,-2.4424,-2.4424,-2.4424,-2.4521,-2.4746,-2.459,-2.4785,-2.5439,-2.5312,-2.5176,-2.5099,-2.5312,-2.5352,-2.5109,-2.5137,-2.5215,-2.541,-2.543,-2.5508,-2.5674,-2.5684,-2.5684,-2.5684,-2.5684,-2.5684,-2.5684,-2.5684,-2.5684,-2.5684,-2.5684,-2.5684,-2.5684,-2.5684,-2.5684,-2.5684,-2.5684,-2.5684,-2.5684,-2.5684,-2.5684,-2.5684,-2.5684,-2.5684,-2.5742,-2.5917,-2.6194,-2.6516,-2.716,-2.7947,-2.8925,-2.9817,-3.0515,-3.1057,-3.1456,-3.1634,-3.1399,-3.1386,-3.1386,-3.1386,-3.1386,-3.1386,-3.1386,-3.1386,-3.1587,-3.3418,-3.3418,-3.3418,-3.3418,-3.335,-3.2617,-3.206,-3.1631,-3.123,-3.0986,-3.0898,-3.0898,-3.0898,-3.0898,-3.0898,-3.0898,-3.0898,-3.0898,-3.0889,-3.084,-3.042,-2.9971,-2.9551,-2.9131,-2.8701,-2.834,-2.8301,-2.8076,-2.7718,-2.7324,-2.6894,-2.6406,-2.6055,-2.583,-2.5684,-2.5684,-2.5684,-2.5684,-2.5684,-2.5684,-2.5684,-2.5684,-2.5684,-2.5664,-2.541,-2.5225,-2.5205,-2.4902,-2.4717,-2.4717,-2.466,-2.4756,-2.4853,-2.4853,-2.5049,-2.5439,-2.5508,-2.5752,-2.6309,-2.6387,-2.6201,-2.5723,-2.5684,-2.5684,-2.5684,-2.5684,-2.5684,-2.5684,-2.5664,-2.5674,-2.5684,-2.5684,-2.5684,-2.5684,-2.5684,-2.5684,-2.5684,-2.5684,-2.5684,-2.5684,-2.5684,-2.5684,-2.5684,-2.5684,-2.5684,-2.5684,-2.5684,-2.5684,-2.5684,-2.5684,-2.5684,-2.5684,-2.5684,-2.5684,-2.5732,-2.5809,-2.5956,-2.6107,-2.666,-2.7426,-2.8251,-2.9098,-2.984,-3.0506,-3.0938,-3.1082,-3.106,-3.0997,-3.0959,-3.0949,-3.0937,-3.0959,-3.0934,-3.0934,-3.1148,-3.3418,-3.3418,-3.3418,-3.3418,-3.3369,-3.292,-3.248,-3.207,-3.165,-3.124,-3.0908,-3.0898,-3.0898,-3.0898,-3.0898,-3.0898,-3.0898,-3.0898,-3.0898,-3.084,-3.041,-2.9971,-2.9636,-2.9131,-2.8701,-2.835,-2.8301,-2.8086,-2.7767,-2.7679,-2.7178,-2.6475,-2.6348,-2.6123,-2.5742,-2.5684,-2.5684,-2.5684,-2.5684,-2.5684,-2.5684,-2.5684,-2.5684,-2.5684,-2.5645,-2.5625,-2.5596,-2.5586,-2.5557,-2.5567,-2.5538,-2.5732,-2.6113,-2.6191,-2.6377,-2.6758,-2.6816,-2.6728,-2.6435,-2.6387,-2.6211,-2.5742,-2.5703,-2.5713,-2.5703,-2.5703,-2.5693,-2.5723,-2.5703,-2.5684,-2.5684,-2.5684,-2.5684,-2.5684,-2.5684,-2.5684,-2.5684,-2.5684,-2.5684,-2.5684,-2.5684,-2.5684,-2.5684,-2.5684,-2.5684,-2.5684,-2.5684,-2.5684,-2.5684,-2.5684,-2.5684,-2.5684,-2.5684,-2.5684,-2.5693,-2.5563,-2.563,-2.5839,-2.6298,-2.7004,-2.784,-2.8816,-2.978,-2.9915,-3.039,-3.0493,-3.0206,-2.9942,-3.0018,-3.0168,-3.0131,-2.9993,-2.9955,-3.003,-3.0344,-3.3418,-3.3418,-3.3418,-3.3418,-3.3359,-3.2978,-3.2559,-3.2139,-3.1709,-3.1279,-3.0918,-3.0898,-3.0898,-3.0898,-3.0898,-3.0898,-3.0898,-3.0898,-3.0898,-3.0879,-3.0684,-3.0381,-2.9932,-2.9502,-2.9082,-2.8662,-2.8418,-2.8256,-2.8027,-2.7793,-2.7405,-2.6787,-2.6514,-2.6299,-2.6113,-2.5869,-2.5684,-2.5684,-2.5684,-2.5684,-2.5684,-2.5684,-2.5684,-2.5684,-2.5684,-2.5684,-2.5684,-2.5684,-2.5684,-2.5684,-2.5684,-2.5771,-2.5996,-2.625,-2.6572,-2.7002,-2.75,-2.7471,-2.6807,-2.6758,-2.6455,-2.5742,-2.5977,-2.6123,-2.6143,-2.6348,-2.6494,-2.6435,-2.5986,-2.5684,-2.5703,-2.5684,-2.5684,-2.5684,-2.5684,-2.5684,-2.5684,-2.5684,-2.5684,-2.5684,-2.5684,-2.5684,-2.5684,-2.5684,-2.5684,-2.5684,-2.5684,-2.5684,-2.5684,-2.5684,-2.5684,-2.5684,-2.5684,-2.5684,-2.5703,-2.5553,-2.5491,-2.5635,-2.5917,-2.6421,-2.7287,-2.8138,-2.8906,-2.9368,-2.9841,-3.0066,-2.9905,-2.9792,-2.9779,-2.9779,-2.9779,-2.9779,-2.9779,-2.9779,-3.0043,-3.3418,-3.3418,-3.3418,-3.3418,-3.3389,-3.3096,-3.2656,-3.2219,-3.1836,-3.1396,-3.0918,-3.0898,-3.0898,-3.0898,-3.0898,-3.0898,-3.0898,-3.0898,-3.0898,-3.0898,-3.0898,-3.0644,-3.0195,-2.9893,-2.9453,-2.8945,-2.8623,-2.8408,-2.8281,-2.8008,-2.7617,-2.7207,-2.6885,-2.668,-2.6533,-2.6133,-2.5869,-2.5908,-2.5762,-2.5684,-2.5684,-2.5684,-2.5684,-2.5684,-2.5684,-2.5684,-2.5684,-2.5684,-2.5684,-2.5684,-2.5684,-2.5742,-2.5918,-2.6221,-2.6631,-2.7168,-2.7764,-2.7861,-2.7226,-2.7197,-2.6875,-2.623,-2.6396,-2.6562,-2.6621,-2.6846,-2.6992,-2.6953,-2.6386,-2.6064,-2.6044,-2.6035,-2.6035,-2.6044,-2.5957,-2.5918,-2.5879,-2.5791,-2.5684,-2.5684,-2.5684,-2.5684,-2.5684,-2.5684,-2.5684,-2.5684,-2.5684,-2.5684,-2.5684,-2.5684,-2.5684,-2.5684,-2.5684,-2.5684,-2.5703,-2.5648,-2.5531,-2.5594,-2.5845,-2.642,-2.6964,-2.776,-2.8498,-2.9318,-2.9584,-2.9753,-2.9792,-2.9792,-2.9779,-2.9779,-2.9779,-2.9779,-2.9779,-2.9779,-2.9779,-3.3418,-3.3418,-3.3418,-3.3418,-3.3408,-3.3369,-3.291,-3.2229,-3.2109,-3.165,-3.0947,-3.0898,-3.0898,-3.0898,-3.0898,-3.0898,-3.0898,-3.0898,-3.0898,-3.0898,-3.0898,-3.0644,-3.0225,-3.0166,-2.9726,-2.9014,-2.8877,-2.8662,-2.8301,-2.8262,-2.8057,-2.7708,-2.7611,-2.7373,-2.6992,-2.6572,-2.6357,-2.6328,-2.5927,-2.5703,-2.5693,-2.5693,-2.5684,-2.5684,-2.5684,-2.5684,-2.5684,-2.5684,-2.5684,-2.5684,-2.5684,-2.5918,-2.6289,-2.6377,-2.6777,-2.7552,-2.7685,-2.7757,-2.7637,-2.766,-2.7393,-2.7012,-2.6934,-2.6982,-2.6992,-2.709,-2.7139,-2.7051,-2.7031,-2.6963,-2.6953,-2.6846,-2.6846,-2.6836,-2.6562,-2.6387,-2.6357,-2.5966,-2.5723,-2.5713,-2.5703,-2.5684,-2.5684,-2.5684,-2.5684,-2.5684,-2.5684,-2.5684,-2.5684,-2.5684,-2.5684,-2.5684,-2.5684,-2.5684,-2.5693,-2.5686,-2.5681,-2.5803,-2.6262,-2.689,-2.7408,-2.7995,-2.8673,-2.9275,-2.9573,-2.9753,-2.9779,-2.9779,-2.9779,-2.9779,-2.9779,-2.9779,-2.9779,-2.9779,-2.9779,-3.3418,-3.3418,-3.3418,-3.3418,-3.3389,-3.3135,-3.2685,-3.2209,-3.1875,-3.1435,-3.0957,-3.0898,-3.0898,-3.0898,-3.0898,-3.0898,-3.0898,-3.0898,-3.0898,-3.0898,-3.0898,-3.0801,-3.0635,-3.0342,-2.9902,-2.9375,-2.9043,-2.8701,-2.834,-2.8301,-2.8223,-2.8047,-2.7793,-2.763,-2.7383,-2.7002,-2.6787,-2.6738,-2.6367,-2.6152,-2.6123,-2.583,-2.5684,-2.5684,-2.5684,-2.5684,-2.5684,-2.5684,-2.5684,-2.5684,-2.5684,-2.5762,-2.5957,-2.6494,-2.7051,-2.766,-2.792,-2.7949,-2.7767,-2.7728,-2.748,-2.71,-2.7285,-2.7432,-2.748,-2.7666,-2.7832,-2.7822,-2.7822,-2.7832,-2.7725,-2.7353,-2.7012,-2.6992,-2.6885,-2.6787,-2.6709,-2.6416,-2.6152,-2.6113,-2.5888,-2.5684,-2.5684,-2.5684,-2.5684,-2.5684,-2.5684,-2.5684,-2.5684,-2.5684,-2.5684,-2.5684,-2.5684,-2.5684,-2.5684,-2.5734,-2.5852,-2.6165,-2.6642,-2.721,-2.7773,-2.8293,-2.898,-2.9413,-2.9686,-2.9779,-2.9779,-2.9779,-2.9779,-2.9779,-2.9779,-2.9779,-2.9779,-2.9779,-2.9779,-3.3096,-3.3213,-3.3223,-3.3301,-3.3369,-3.2978,-3.2559,-3.2199,-3.1709,-3.1289,-3.0947,-3.0898,-3.0898,-3.0898,-3.0898,-3.0898,-3.0898,-3.0898,-3.0898,-3.0898,-3.0898,-3.0898,-3.084,-3.0566,-3.0195,-2.9726,-2.918,-2.8711,-2.833,-2.8301,-2.8301,-2.8262,-2.7998,-2.7924,-2.7855,-2.7441,-2.7226,-2.7148,-2.6807,-2.6592,-2.6553,-2.6309,-2.6152,-2.6103,-2.6103,-2.5947,-2.5713,-2.5684,-2.5684,-2.5684,-2.5684,-2.5752,-2.5996,-2.6494,-2.708,-2.766,-2.793,-2.8037,-2.791,-2.7861,-2.7754,-2.748,-2.7685,-2.7871,-2.7943,-2.8135,-2.8271,-2.8301,-2.8301,-2.8301,-2.8193,-2.7764,-2.7432,-2.7402,-2.7314,-2.7226,-2.7207,-2.6846,-2.6553,-2.6357,-2.6143,-2.5928,-2.5713,-2.5684,-2.5684,-2.5684,-2.5684,-2.5684,-2.5684,-2.5684,-2.5684,-2.5684,-2.5684,-2.5684,-2.5732,-2.5834,-2.5896,-2.6218,-2.6969,-2.7534,-2.8111,-2.8649,-2.9163,-2.9522,-2.971,-2.9752,-2.9779,-2.9779,-2.9779,-2.9779,-2.9779,-2.9779,-2.9779,-2.9779,-2.9779,-3.2432,-3.2773,-3.2793,-3.3008,-3.3213,-3.2851,-3.251,-3.207,-3.167,-3.124,-3.0918,-3.0898,-3.0898,-3.0898,-3.0898,-3.0898,-3.0898,-3.0898,-3.0898,-3.0898,-3.0898,-3.0898,-3.0889,-3.084,-3.0576,-3.0107,-2.9316,-2.8721,-2.8369,-2.832,-2.8301,-2.8291,-2.8271,-2.8213,-2.8271,-2.7861,-2.7676,-2.7578,-2.7246,-2.7021,-2.7021,-2.6943,-2.6894,-2.6924,-2.6914,-2.6572,-2.5791,-2.5762,-2.5801,-2.5781,-2.5771,-2.5918,-2.6338,-2.6514,-2.6887,-2.7581,-2.7748,-2.79,-2.8213,-2.8242,-2.8223,-2.8154,-2.8252,-2.8232,-2.8223,-2.8271,-2.8301,-2.8301,-2.8301,-2.8301,-2.8301,-2.8213,-2.8164,-2.8232,-2.7871,-2.7666,-2.7588,-2.7285,-2.6865,-2.6543,-2.6396,-2.6211,-2.5859,-2.583,-2.5879,-2.5869,-2.5801,-2.5771,-2.5771,-2.5742,-2.5684,-2.5684,-2.5684,-2.5684,-2.5781,-2.5887,-2.6004,-2.6225,-2.7116,-2.7888,-2.8439,-2.8992,-2.9557,-2.9933,-3.0024,-3.0029,-2.9792,-2.9779,-2.9779,-2.9779,-2.9779,-2.9804,-2.9779,-2.9779,-2.9779,-3.2307,-3.2363,-3.2363,-3.2432,-3.25,-3.21,-3.1826,-3.168,-3.1269,-3.1006,-3.0908,-3.0898,-3.0898,-3.0898,-3.0898,-3.0898,-3.0898,-3.0898,-3.0898,-3.0898,-3.0898,-3.0898,-3.0898,-3.0898,-3.0644,-3.0127,-2.9336,-2.8857,-2.8701,-2.8437,-2.8301,-2.8301,-2.8301,-2.8301,-2.8291,-2.8154,-2.8096,-2.8047,-2.7676,-2.7461,-2.7432,-2.7178,-2.7021,-2.7012,-2.7012,-2.6865,-2.659,-2.6621,-2.6621,-2.6551,-2.6621,-2.668,-2.6836,-2.7109,-2.7444,-2.7699,-2.7949,-2.8135,-2.8252,-2.8301,-2.8301,-2.8301,-2.8301,-2.8301,-2.8301,-2.8301,-2.8301,-2.8301,-2.8301,-2.8301,-2.8301,-2.8301,-2.8301,-2.8291,-2.8174,-2.8076,-2.8018,-2.7715,-2.7295,-2.6924,-2.6826,-2.6748,-2.6641,-2.6582,-2.6533,-2.6514,-2.6348,-2.6182,-2.6152,-2.5937,-2.5693,-2.5684,-2.5684,-2.5693,-2.5781,-2.582,-2.5933,-2.6212,-2.7045,-2.7963,-2.8621,-2.9246,-2.9804,-3.0257,-3.0356,-3.0267,-3.0018,-2.9917,-2.9993,-2.9905,-2.9942,-2.9892,-2.9817,-2.988,-3.0043,-3.1787,-3.1924,-3.1924,-3.2031,-3.217,-3.1699,-3.1514,-3.1455,-3.1074,-3.0898,-3.0898,-3.0898,-3.0898,-3.0898,-3.0898,-3.0898,-3.0898,-3.0898,-3.0898,-3.0898,-3.0898,-3.0898,-3.0898,-3.0898,-3.0654,-3.0195,-2.9658,-2.9307,-2.9141,-2.874,-2.8525,-2.8525,-2.8369,-2.8301,-2.8301,-2.8301,-2.8301,-2.8252,-2.8027,-2.79,-2.7851,-2.7627,-2.749,-2.749,-2.749,-2.749,-2.749,-2.749,-2.7334,-2.708,-2.7012,-2.708,-2.7246,-2.751,-2.7777,-2.793,-2.8115,-2.8291,-2.8301,-2.8301,-2.8301,-2.8301,-2.8301,-2.8301,-2.8301,-2.8301,-2.8301,-2.8301,-2.8301,-2.8301,-2.8301,-2.8301,-2.8301,-2.8301,-2.8281,-2.8301,-2.8252,-2.8066,-2.7725,-2.7393,-2.7256,-2.7187,-2.706,-2.7012,-2.7012,-2.6963,-2.6787,-2.6621,-2.6533,-2.626,-2.6084,-2.5918,-2.5771,-2.5752,-2.5693,-2.5781,-2.583,-2.628,-2.6851,-2.7772,-2.8586,-2.9263,-2.9858,-3.0555,-3.0835,-3.0881,-3.0658,-3.0595,-3.0595,-3.0394,-3.0281,-3.0482,-3.0608,-3.0557,-3.0608,-3.1133,-3.1465,-3.1484,-3.1689,-3.1963,-3.1611,-3.1426,-3.1396,-3.1064,-3.0898,-3.0898,-3.0898,-3.0898,-3.0898,-3.0898,-3.0898,-3.0898,-3.0898,-3.0898,-3.0898,-3.0898,-3.0898,-3.0898,-3.0898,-3.0684,-3.0332,-3.0166,-2.9932,-2.959,-2.917,-2.8945,-2.8916,-2.8584,-2.835,-2.8379,-2.833,-2.8301,-2.8291,-2.8262,-2.8242,-2.8242,-2.8242,-2.8223,-2.8213,-2.8193,-2.8193,-2.8164,-2.8144,-2.7861,-2.7217,-2.7187,-2.7373,-2.7669,-2.7748,-2.792,-2.8213,-2.8281,-2.8291,-2.8301,-2.8379,-2.8389,-2.8398,-2.8467,-2.8369,-2.8486,-2.8535,-2.8535,-2.8516,-2.8486,-2.8457,-2.8457,-2.8467,-2.8447,-2.835,-2.833,-2.8301,-2.8301,-2.8262,-2.8047,-2.7793,-2.7685,-2.7578,-2.7256,-2.7197,-2.7197,-2.7168,-2.7129,-2.706,-2.6973,-2.6748,-2.6494,-2.6309,-2.6133,-2.5986,-2.5967,-2.5742,-2.5791,-2.6032,-2.6594,-2.7474,-2.8606,-2.9408,-3.015,-3.0821,-3.136,-3.1367,-3.1286,-3.111,-3.1072,-3.1009,-3.1085,-3.1336,-3.1298,-3.1122,-3.1035,-3.0957,-3.1055,-3.1055,-3.1123,-3.1211,-3.1094,-3.1064,-3.1055,-3.0957,-3.0898,-3.0898,-3.0898,-3.0898,-3.0898,-3.0898,-3.0898,-3.0898,-3.0908,-3.0898,-3.0898,-3.0898,-3.0898,-3.0898,-3.0898,-3.083,-3.0664,-3.0381,-3.0146,-3.0,-2.96,-2.9404,-2.9375,-2.8965,-2.875,-2.873,-2.8447,-2.8301,-2.8301,-2.8301,-2.8301,-2.8301,-2.8301,-2.8301,-2.8301,-2.8301,-2.8301,-2.8301,-2.8301,-2.8223,-2.7998,-2.7959,-2.7988,-2.8076,-2.8105,-2.8174,-2.8291,-2.831,-2.831,-2.8379,-2.8594,-2.874,-2.8789,-2.8994,-2.9228,-2.9228,-2.9228,-2.9238,-2.9238,-2.9238,-2.9209,-2.9219,-2.9254,-2.9072,-2.8779,-2.8545,-2.835,-2.8301,-2.8291,-2.8232,-2.8144,-2.8115,-2.8008,-2.793,-2.7881,-2.7891,-2.7842,-2.7676,-2.749,-2.7412,-2.7148,-2.6855,-2.6728,-2.6553,-2.6357,-2.6162,-2.5849,-2.5752,-2.583,-2.636,-2.7105,-2.8437,-2.9795,-3.0584,-3.1375,-3.1826,-3.2001,-3.1625,-3.1364,-3.1439,-3.1637,-3.1615,-3.1703,-3.1499,-3.1336,-3.1361,-3.0898,-3.0898,-3.0898,-3.0898,-3.0898,-3.0898,-3.0898,-3.0898,-3.0898,-3.0898,-3.0898,-3.0898,-3.0898,-3.0908,-3.1074,-3.1045,-3.0928,-3.1074,-3.1064,-3.0898,-3.0898,-3.0898,-3.0898,-3.0898,-3.0898,-3.0869,-3.0625,-3.0508,-3.041,-3.0039,-2.9844,-2.9746,-2.9404,-2.9111,-2.8896,-2.8701,-2.8457,-2.833,-2.8301,-2.8301,-2.8301,-2.8301,-2.8301,-2.8301,-2.8301,-2.8301,-2.8301,-2.8301,-2.8291,-2.8281,-2.8291,-2.8301,-2.8301,-2.8301,-2.8369,-2.8516,-2.8555,-2.8633,-2.8838,-2.9072,-2.918,-2.9228,-2.9463,-2.9541,-2.9551,-2.958,-2.958,-2.9597,-2.957,-2.958,-2.958,-2.958,-2.9453,-2.9228,-2.8975,-2.8682,-2.8359,-2.8301,-2.8301,-2.8301,-2.8301,-2.8301,-2.8301,-2.8301,-2.8301,-2.8242,-2.8057,-2.7969,-2.7881,-2.7529,-2.7266,-2.7168,-2.6973,-2.6738,-2.6631,-2.6426,-2.6251,-2.6222,-2.6721,-2.7361,-2.865,-3.0171,-3.1027,-3.1804,-3.2239,-3.2466,-3.2139,-3.2018,-3.2202,-3.2303,-3.2114,-3.2093,-3.2014,-3.1851,-3.1851,-3.0898,-3.0898,-3.0898,-3.0898,-3.0898,-3.0898,-3.0898,-3.0898,-3.0898,-3.0898,-3.0908,-3.0937,-3.1016,-3.0976,-3.1406,-3.1396,-3.1094,-3.1445,-3.1289,-3.1113,-3.0996,-3.0986,-3.0898,-3.0898,-3.0898,-3.0879,-3.0889,-3.0859,-3.0732,-3.042,-3.0283,-3.0166,-2.9844,-2.9463,-2.9228,-2.9053,-2.8779,-2.8584,-2.8574,-2.8584,-2.8584,-2.8584,-2.8603,-2.8594,-2.8584,-2.8574,-2.8545,-2.8496,-2.8496,-2.8457,-2.8389,-2.8437,-2.8437,-2.8457,-2.8613,-2.8906,-2.9004,-2.9141,-2.9473,-2.9541,-2.9639,-2.9648,-2.9697,-2.9707,-2.9814,-2.9863,-2.9853,-2.9883,-2.9726,-2.9824,-2.9824,-2.9766,-2.9736,-2.9668,-2.9609,-2.9238,-2.8652,-2.8389,-2.8359,-2.834,-2.835,-2.8301,-2.8301,-2.8301,-2.8301,-2.8301,-2.8203,-2.8174,-2.8105,-2.79,-2.7744,-2.7705,-2.7441,-2.7119,-2.7051,-2.6992,-2.687,-2.6844,-2.7479,-2.8163,-2.9305,-3.0604,-3.1487,-3.2202,-3.2555,-3.28,-3.2885,-3.2898,-3.2918,-3.288,-3.2671,-3.2835,-3.2998,-3.2722,-3.2608,-3.0898,-3.0898,-3.0898,-3.0898,-3.0898,-3.0898,-3.0898,-3.0898,-3.0898,-3.0898,-3.0967,-3.1221,-3.1357,-3.1387,-3.1797,-3.1963,-3.1896,-3.1924,-3.1797,-3.1426,-3.1377,-3.1172,-3.0976,-3.0898,-3.0898,-3.0898,-3.0898,-3.0898,-3.084,-3.0781,-3.0742,-3.0654,-3.0283,-3.0019,-2.9863,-2.9541,-2.9404,-2.9297,-2.9268,-2.9228,-2.9209,-2.9219,-2.9219,-2.9219,-2.9238,-2.9268,-2.9352,-2.9352,-2.9297,-2.9219,-2.9014,-2.8955,-2.915,-2.9228,-2.9287,-2.9375,-2.9424,-2.9482,-2.9619,-2.9902,-3.0059,-3.0088,-3.0322,-3.0615,-3.0615,-3.0557,-3.0566,-3.0605,-3.0605,-3.0518,-3.0498,-3.0576,-3.0391,-3.0146,-3.0049,-2.9883,-2.9385,-2.8984,-2.8809,-2.8711,-2.8506,-2.8301,-2.8301,-2.8301,-2.8301,-2.8301,-2.8301,-2.8301,-2.8242,-2.8164,-2.8105,-2.8018,-2.7822,-2.7519,-2.7461,-2.7467,-2.7406,-2.7563,-2.8146,-2.8996,-3.0105,-3.1007,-3.1884,-3.2416,-3.2754,-3.2952,-3.3081,-3.3124,-3.3048,-3.3099,-3.3124,-3.3124,-3.3124,-3.3124,-3.3111,-3.0898,-3.0898,-3.0898,-3.0898,-3.0898,-3.0898,-3.0898,-3.0898,-3.0898,-3.0898,-3.0986,-3.1338,-3.1514,-3.1582,-3.2139,-3.2383,-3.2258,-3.2229,-3.2051,-3.1797,-3.1631,-3.1387,-3.1182,-3.0986,-3.0898,-3.0898,-3.0898,-3.0898,-3.0898,-3.0898,-3.0869,-3.0889,-3.0625,-3.0381,-3.0225,-2.998,-2.9746,-2.957,-2.958,-2.958,-2.958,-2.958,-2.958,-2.958,-2.958,-2.958,-2.9607,-2.9616,-2.9724,-2.9746,-2.9639,-2.9502,-2.9541,-2.959,-2.9724,-2.9834,-2.9863,-3.0,-3.0195,-3.0381,-3.0527,-3.0508,-3.0762,-3.084,-3.0898,-3.0898,-3.0898,-3.0898,-3.0879,-3.0889,-3.0898,-3.0879,-3.0723,-3.0615,-3.0518,-3.041,-3.0146,-2.9629,-2.9121,-2.8965,-2.8721,-2.8506,-2.8398,-2.834,-2.8301,-2.8301,-2.8301,-2.8301,-2.8301,-2.8242,-2.8252,-2.8184,-2.8076,-2.7939,-2.7871,-2.7862,-2.7948,-2.8249,-2.8812,-2.9763,-3.0871,-3.1622,-3.2298,-3.2636,-3.2891,-3.3007,-3.3124,-3.3124,-3.3124,-3.3124,-3.3124,-3.3124,-3.3124,-3.3124,-3.3124,-3.0898,-3.0898,-3.0898,-3.0898,-3.0898,-3.0898,-3.0898,-3.0898,-3.0898,-3.0898,-3.1006,-3.1387,-3.168,-3.1807,-3.2529,-3.2646,-3.248,-3.2402,-3.2422,-3.2226,-3.1982,-3.1699,-3.1465,-3.1191,-3.0976,-3.0918,-3.0898,-3.0898,-3.0898,-3.0898,-3.0898,-3.0889,-3.0889,-3.0684,-3.0381,-3.0293,-3.0185,-2.9951,-2.9922,-2.9902,-2.9883,-2.9883,-2.9883,-2.9893,-2.9902,-2.9902,-2.9969,-2.9959,-2.9971,-3.0264,-3.0293,-3.0107,-2.9883,-2.9795,-2.9959,-3.0293,-3.0303,-3.0439,-3.0654,-3.082,-3.085,-3.0898,-3.0889,-3.0889,-3.0898,-3.0898,-3.0898,-3.0898,-3.0898,-3.0898,-3.0898,-3.0898,-3.0898,-3.0859,-3.0879,-3.0898,-3.0762,-3.0195,-2.9707,-2.9258,-2.8984,-2.8701,-2.8506,-2.8398,-2.834,-2.8301,-2.8301,-2.8301,-2.8301,-2.8301,-2.8301,-2.8301,-2.8193,-2.8144,-2.8086,-2.8259,-2.8339,-2.8809,-2.9363,-3.0346,-3.1357,-3.2066,-3.2568,-3.2746,-3.2928,-3.3139,-3.3156,-3.3124,-3.3124,-3.3124,-3.3124,-3.3124,-3.3124,-3.3124,-3.3162,-3.0898,-3.0898,-3.0898,-3.0898,-3.0898,-3.0898,-3.0898,-3.0898,-3.0898,-3.0898,-3.0996,-3.1689,-3.2021,-3.2256,-3.293,-3.3232,-3.3105,-3.3057,-3.2949,-3.2725,-3.25,-3.2226,-3.1689,-3.1435,-3.1221,-3.0967,-3.0898,-3.0898,-3.0898,-3.0898,-3.0898,-3.0898,-3.0898,-3.0791,-3.0762,-3.0771,-3.0674,-3.0518,-3.0518,-3.0527,-3.0537,-3.0537,-3.0537,-3.0537,-3.0508,-3.0547,-3.0596,-3.0635,-3.0703,-3.0771,-3.0771,-3.0713,-3.0596,-3.0576,-3.0635,-3.0684,-3.0703,-3.0771,-3.0869,-3.0898,-3.0898,-3.0898,-3.0898,-3.0898,-3.0898,-3.0898,-3.0898,-3.0898,-3.0898,-3.0898,-3.0898,-3.0898,-3.0898,-3.0898,-3.0898,-3.0898,-3.085,-3.0664,-3.0381,-2.9951,-2.9424,-2.8926,-2.8799,-2.8613,-2.8486,-2.8408,-2.834,-2.831,-2.8301,-2.8301,-2.8301,-2.8301,-2.8281,-2.8271,-2.8252,-2.8455,-2.8707,-2.9237,-2.9845,-3.0654,-3.1581,-3.2392,-3.2859,-3.3071,-3.3311,-3.3527,-3.3483,-3.3307,-3.3338,-3.3458,-3.335,-3.3187,-3.3388,-3.352,-3.3294,-3.1064,-3.0889,-3.0898,-3.0898,-3.0898,-3.0898,-3.0898,-3.0898,-3.0898,-3.0898,-3.1143,-3.1758,-3.2229,-3.2393,-3.3047,-3.3408,-3.3418,-3.3408,-3.3301,-3.3115,-3.2871,-3.2637,-3.207,-3.1768,-3.1445,-3.1191,-3.1025,-3.0918,-3.0898,-3.0898,-3.0898,-3.0898,-3.0898,-3.0898,-3.0889,-3.0879,-3.0898,-3.0898,-3.0898,-3.0898,-3.0898,-3.0898,-3.0898,-3.0898,-3.0898,-3.0898,-3.0898,-3.0898,-3.0889,-3.0879,-3.0889,-3.0898,-3.0898,-3.0898,-3.0898,-3.0908,-3.0898,-3.0898,-3.0898,-3.0898,-3.0898,-3.0898,-3.0898,-3.0898,-3.0898,-3.0898,-3.0898,-3.0898,-3.0898,-3.0898,-3.0898,-3.0898,-3.0898,-3.0898,-3.0898,-3.0898,-3.0898,-3.0898,-3.0732,-3.0508,-3.0059,-2.957,-2.9209,-2.8994,-2.8711,-2.8535,-2.8408,-2.835,-2.831,-2.8301,-2.8301,-2.8301,-2.8301,-2.8301,-2.8301,-2.8461,-2.8727,-2.9325,-3.0068,-3.0831,-3.1751,-3.2466,-3.3149,-3.357,-3.3796,-3.3871,-3.4104,-3.4085,-3.3972,-3.3872,-3.3922,-3.3947,-3.396,-3.3922,-3.3721,-3.1276,-3.0995,-3.1005,-3.0947,-3.0898,-3.0898,-3.0898,-3.0898,-3.0898,-3.0898,-3.1006,-3.166,-3.207,-3.2363,-3.2949,-3.3418,-3.3418,-3.3418,-3.3398,-3.334,-3.3105,-3.29,-3.2588,-3.2207,-3.1768,-3.1631,-3.1416,-3.1055,-3.0908,-3.0898,-3.0898,-3.0898,-3.0898,-3.0898,-3.0898,-3.0898,-3.0898,-3.0898,-3.0898,-3.0898,-3.0898,-3.0898,-3.0898,-3.0898,-3.0898,-3.0898,-3.0898,-3.0898,-3.0898,-3.0898,-3.0898,-3.0898,-3.0898,-3.0898,-3.0937,-3.0986,-3.0947,-3.0898,-3.0898,-3.0898,-3.0898,-3.0898,-3.0898,-3.0898,-3.0898,-3.0898,-3.0898,-3.0898,-3.0898,-3.0898,-3.0898,-3.0898,-3.0898,-3.0898,-3.0898,-3.0898,-3.0898,-3.0898,-3.0898,-3.0693,-3.0478,-3.0166,-2.9746,-2.9336,-2.9043,-2.8769,-2.8633,-2.8418,-2.8379,-2.831,-2.8301,-2.8301,-2.8301,-2.8301,-2.8301,-2.8301,-2.8621,-2.9059,-2.9807,-3.0584,-3.1578,-3.2576,-3.3094,-3.3468,-3.3945,-3.4066,-3.4453,-3.4635,-3.4372,-3.4297,-3.458,-3.4593,-3.4424,-3.4374,-3.4286,-3.1777,-3.1276,-3.1276,-3.1112,-3.0889,-3.0898,-3.0898,-3.0898,-3.0898,-3.0898,-3.0918,-3.1387,-3.1846,-3.2334,-3.3018,-3.3369,-3.3418,-3.3418,-3.3418,-3.3398,-3.331,-3.3115,-3.2851,-3.2744,-3.2334,-3.21,-3.1982,-3.1553,-3.1191,-3.1025,-3.0967,-3.0996,-3.1035,-3.0937,-3.1074,-3.1016,-3.0898,-3.0908,-3.0908,-3.0898,-3.0898,-3.0898,-3.0898,-3.0898,-3.0928,-3.0947,-3.0986,-3.1016,-3.1025,-3.0986,-3.0947,-3.0918,-3.0898,-3.0898,-3.1113,-3.1211,-3.1143,-3.0898,-3.0986,-3.1045,-3.1045,-3.1074,-3.1016,-3.0928,-3.1025,-3.1045,-3.1035,-3.0898,-3.0947,-3.0967,-3.0986,-3.0928,-3.0908,-3.0898,-3.0898,-3.0898,-3.0898,-3.0898,-3.0898,-3.0879,-3.0684,-3.0488,-3.0176,-2.9766,-2.9375,-2.9101,-2.8848,-2.8662,-2.8506,-2.8486,-2.831,-2.8301,-2.8301,-2.8301,-2.8301,-2.8301,-2.8524,-2.8887,-2.9501,-3.0214,-3.1032,-3.1902,-3.2549,-3.2997,-3.3506,-3.3911,-3.4108,-3.4281,-3.4404,-3.4719,-3.4957,-3.4853,-3.4655,-3.468,-3.4889,-3.2903,-3.1566,-3.1392,-3.117,-3.0889,-3.0898,-3.0898,-3.0898,-3.0898,-3.0898,-3.0967,-3.1338,-3.1885,-3.248,-3.2959,-3.3193,-3.3369,-3.3418,-3.3418,-3.3418,-3.3398,-3.332,-3.3135,-3.292,-3.2646,-3.2549,-3.2285,-3.2021,-3.167,-3.1611,-3.1611,-3.1582,-3.1592,-3.166,-3.1494,-3.1348,-3.1279,-3.1191,-3.1045,-3.0908,-3.0898,-3.0898,-3.0908,-3.0918,-3.1123,-3.1221,-3.1289,-3.1523,-3.1601,-3.1611,-3.1611,-3.1611,-3.1611,-3.1631,-3.1728,-3.1816,-3.1738,-3.1641,-3.1631,-3.1601,-3.1562,-3.1592,-3.1592,-3.166,-3.1621,-3.1582,-3.1642,-3.1681,-3.1621,-3.1504,-3.1299,-3.125,-3.1084,-3.1006,-3.0986,-3.0947,-3.0937,-3.0898,-3.0898,-3.0898,-3.0879,-3.0693,-3.0508,-3.0195,-2.9853,-2.9648,-2.9404,-2.9199,-2.9004,-2.8867,-2.8613,-2.8301,-2.8301,-2.8301,-2.8301,-2.8301,-2.8437,-2.8757,-2.8983,-2.9701,-3.0266,-3.097,-3.1637,-3.2145,-3.2487,-3.2969,-3.3528,-3.4196,-3.4621,-3.4999,-3.5341,-3.5192,-3.5127,-3.5545,-3.5596,-3.4134,-3.2399,-3.1787,-3.1325,-3.0995,-3.0957,-3.0898,-3.0898,-3.0898,-3.0898,-3.1006,-3.1348,-3.1943,-3.2539,-3.2764,-3.3057,-3.3408,-3.3418,-3.3418,-3.3418,-3.3418,-3.3408,-3.3301,-3.3086,-3.2978,-3.2939,-3.2734,-3.2549,-3.2519,-3.2451,-3.2373,-3.2248,-3.2031,-3.216,-3.2111,-3.1855,-3.168,-3.166,-3.1426,-3.1299,-3.1279,-3.1269,-3.1269,-3.1338,-3.1494,-3.168,-3.1738,-3.1924,-3.217,-3.217,-3.2141,-3.2041,-3.2121,-3.2101,-3.2148,-3.2256,-3.2256,-3.2353,-3.2314,-3.2275,-3.2207,-3.2229,-3.2229,-3.2111,-3.215,-3.2168,-3.2219,-3.2121,-3.2131,-3.1914,-3.1777,-3.168,-3.1572,-3.1367,-3.1191,-3.1103,-3.1035,-3.1035,-3.0967,-3.0898,-3.0898,-3.0898,-3.0713,-3.0537,-3.0332,-3.0176,-2.9961,-2.9726,-2.9482,-2.9258,-2.9053,-2.875,-2.876,-2.875,-2.8711,-2.8697,-2.8716,-2.8696,-2.8923,-2.9129,-2.9668,-3.0088,-3.0619,-3.1032,-3.1424,-3.1843,-3.2388,-3.367,-3.4896,-3.4944,-3.5074,-3.5484,-3.5736,-3.6133,-3.6248,-3.5411,-3.4201,-3.2732,-3.1835,-3.1276,-3.0995,-3.0898,-3.0898,-3.0898,-3.0898,-3.0947,-3.1318,-3.1738,-3.2226,-3.2617,-3.2978,-3.3418,-3.3418,-3.3418,-3.3418,-3.3418,-3.3418,-3.3369,-3.334,-3.332,-3.332,-3.3154,-3.3184,-3.3271,-3.3105,-3.2773,-3.2285,-3.2402,-3.2256,-3.2217,-3.2217,-3.207,-3.2041,-3.1904,-3.1934,-3.1934,-3.1953,-3.1963,-3.2002,-3.207,-3.2119,-3.2119,-3.2256,-3.2324,-3.2334,-3.2353,-3.2344,-3.2402,-3.2383,-3.251,-3.2685,-3.2744,-3.2881,-3.2959,-3.2656,-3.2336,-3.2258,-3.2246,-3.2353,-3.2393,-3.2256,-3.2258,-3.2314,-3.2422,-3.2275,-3.2168,-3.217,-3.2041,-3.1826,-3.1601,-3.1514,-3.1396,-3.1211,-3.1123,-3.0957,-3.0928,-3.0996,-3.0889,-3.0713,-3.0596,-3.043,-3.0342,-3.0117,-2.9795,-2.957,-2.9521,-2.9385,-2.9394,-2.9394,-2.943,-2.9293,-2.9074,-2.8981,-2.9085,-2.8981,-2.9076,-2.9432,-2.9971,-3.0056,-3.0496,-3.0838,-3.1278,-3.2336,-3.3338,-3.425,-3.4799,-3.5054,-3.5464,-3.58,-3.6086,-3.6352,-3.519,-3.3843,-3.2675,-3.1556,-3.1276,-3.1054,-3.0947,-3.0898,-3.0898,-3.0908,-3.1084,-3.1523,-3.207,-3.2334,-3.2793,-3.335,-3.3418,-3.3418,-3.3418,-3.3418,-3.3418,-3.3418,-3.3418,-3.3408,-3.3418,-3.3418,-3.3418,-3.3389,-3.3418,-3.331,-3.2998,-3.2871,-3.2949,-3.29,-3.2637,-3.2441,-3.2246,-3.2258,-3.2238,-3.2229,-3.2229,-3.2229,-3.2168,-3.249,-3.2529,-3.2588,-3.2832,-3.29,-3.291,-3.2891,-3.2861,-3.2842,-3.2851,-3.2949,-3.3115,-3.3125,-3.3242,-3.335,-3.3105,-3.2959,-3.293,-3.2949,-3.291,-3.2842,-3.29,-3.293,-3.2949,-3.2891,-3.2773,-3.2578,-3.2539,-3.2471,-3.2236,-3.206,-3.1953,-3.1807,-3.1621,-3.1445,-3.1348,-3.124,-3.1211,-3.1055,-3.0879,-3.0781,-3.0674,-3.0605,-3.0478,-3.0166,-2.9941,-2.9902,-2.9834,-2.9824,-2.9766,-2.9792,-2.9541,-2.9326,-2.9284,-2.9251,-2.9158,-2.912,-2.9203,-2.9615,-2.9601,-2.9586,-3.0012,-3.0506,-3.0909,-3.179,-3.3012,-3.3857,-3.4397,-3.4908,-3.5416,-3.5752,-3.7281,-3.6243,-3.5024,-3.3572,-3.2123,-3.1614,-3.1325,-3.117,-3.118,-3.1122,-3.1015,-3.1084,-3.1465,-3.2092,-3.2424,-3.2744,-3.3281,-3.3418,-3.3418,-3.3418,-3.3418,-3.3418,-3.3418,-3.3418,-3.3418,-3.3418,-3.3418,-3.3418,-3.3418,-3.3418,-3.3369,-3.3359,-3.3408,-3.3369,-3.3301,-3.3135,-3.2822,-3.2617,-3.2539,-3.2539,-3.2568,-3.2578,-3.2588,-3.2617,-3.2861,-3.2969,-3.3027,-3.3184,-3.3301,-3.332,-3.334,-3.3379,-3.3398,-3.3418,-3.3418,-3.3418,-3.3418,-3.3418,-3.3418,-3.3418,-3.3418,-3.331,-3.333,-3.335,-3.3418,-3.3418,-3.3291,-3.333,-3.3359,-3.3291,-3.2978,-3.2969,-3.2939,-3.2744,-3.248,-3.2344,-3.2256,-3.2109,-3.1914,-3.1758,-3.167,-3.1572,-3.123,-3.1055,-3.0908,-3.083,-3.0762,-3.0693,-3.0566,-3.0391,-3.0332,-3.0244,-3.0156,-3.0088,-3.0,-2.9873,-2.9746,-2.9658,-2.9616,-2.9509,-2.9492,-2.9504,-2.948,-2.954,-2.9555,-2.9487,-2.9853,-3.0446,-3.1125,-3.1936,-3.2768,-3.3615,-3.425,-3.4763,-3.532,-3.8039,-3.7441,-3.6231,-3.4569,-3.2846,-3.2065,-3.1787,-3.1787,-3.174,-3.1624,-3.1384,-3.1437,-3.1759,-3.2238,-3.2571,-3.2969,-3.331,-3.3418,-3.3418,-3.3418,-3.3418,-3.3418,-3.3418,-3.3418,-3.3418,-3.3418,-3.3418,-3.3418,-3.3418,-3.3418,-3.3418,-3.3418,-3.3418,-3.3418,-3.3418,-3.3408,-3.3379,-3.3369,-3.3301,-3.3252,-3.3223,-3.3203,-3.3193,-3.3203,-3.3242,-3.3281,-3.332,-3.335,-3.3418,-3.3418,-3.3418,-3.3418,-3.3418,-3.3418,-3.3418,-3.3418,-3.3418,-3.3418,-3.3418,-3.3418,-3.3418,-3.3418,-3.3418,-3.3418,-3.3418,-3.3418,-3.3418,-3.3418,-3.3418,-3.3408,-3.3369,-3.3359,-3.3281,-3.3174,-3.2891,-3.2773,-3.2695,-3.2627,-3.2451,-3.2217,-3.2129,-3.2002,-3.1572,-3.124,-3.1064,-3.0957,-3.0908,-3.085,-3.0791,-3.0732,-3.0635,-3.0586,-3.0469,-3.0478,-3.04,-3.0293,-3.0176,-3.0088,-3.0029,-2.9971,-2.9824,-2.978,-2.9711,-2.9626,-2.9541,-2.957,-2.9748,-3.0067,-3.0638,-3.1232,-3.2046,-3.2797,-3.3465,-3.4186,-3.4784,-3.8566,-3.7814,-3.6989,-3.5947,-3.4692,-3.347,-3.2799,-3.2399,-3.217,-3.1998,-3.1868,-3.1849,-3.2047,-3.2421,-3.274,-3.3037,-3.3359,-3.3418,-3.3418,-3.3418,-3.3418,-3.3418,-3.3418,-3.3418,-3.3418,-3.3418,-3.3418,-3.3418,-3.3418,-3.3418,-3.3418,-3.3418,-3.3418,-3.3418,-3.3418,-3.3418,-3.3408,-3.3408,-3.3398,-3.3408,-3.3418,-3.3418,-3.3418,-3.3418,-3.3418,-3.3418,-3.3418,-3.3418,-3.3418,-3.3418,-3.3418,-3.3418,-3.3418,-3.3418,-3.3418,-3.3418,-3.3418,-3.3418,-3.3418,-3.3418,-3.3418,-3.3418,-3.3418,-3.3418,-3.3418,-3.3418,-3.3418,-3.3418,-3.3418,-3.3418,-3.3408,-3.3398,-3.3359,-3.3359,-3.3213,-3.3213,-3.3164,-3.3125,-3.2998,-3.2715,-3.2559,-3.2344,-3.2002,-3.1689,-3.1475,-3.1269,-3.1221,-3.0986,-3.0869,-3.0859,-3.0801,-3.081,-3.0781,-3.083,-3.0801,-3.0605,-3.0547,-3.0498,-3.0537,-3.0596,-3.041,-3.0127,-3.0039,-3.0057,-2.9832,-2.9626,-2.9895,-3.0122,-3.0087,-3.0544,-3.1465,-3.2343,-3.3049,-3.3737,-3.4357,-3.8998,-3.8409,-3.7802,-3.7162,-3.634,-3.4902,-3.392,-3.3413,-3.3016,-3.2789,-3.2695,-3.2626,-3.2714,-3.2924,-3.3115,-3.3283,-3.3544,-3.3418,-3.3418,-3.3418,-3.3418,-3.3418,-3.3418,-3.3418,-3.3418,-3.3418,-3.3418,-3.3418,-3.3418,-3.3418,-3.3418,-3.3418,-3.3418,-3.3418,-3.3418,-3.3418,-3.3418,-3.3418,-3.3418,-3.3418,-3.3418,-3.3418,-3.3418,-3.3418,-3.3418,-3.3418,-3.3418,-3.3418,-3.3418,-3.3418,-3.3418,-3.3418,-3.3418,-3.3418,-3.3418,-3.3418,-3.3418,-3.3418,-3.3418,-3.3418,-3.3418,-3.3418,-3.3418,-3.3418,-3.3418,-3.3418,-3.3418,-3.3418,-3.3418,-3.3418,-3.3418,-3.3418,-3.3418,-3.3418,-3.3408,-3.3398,-3.3379,-3.332,-3.3291,-3.3037,-3.293,-3.2705,-3.2451,-3.2197,-3.1934,-3.1728,-3.1533,-3.1269,-3.1006,-3.0957,-3.0957,-3.0947,-3.0918,-3.0898,-3.0898,-3.084,-3.082,-3.0879,-3.0889,-3.0889,-3.082,-3.0518,-3.0478,-3.0439,-3.0293,-3.0233,-3.0164,-3.0219,-3.0349,-3.0631,-3.1203,-3.1971,-3.2717,-3.3223,-3.377,-3.931,-3.9206,-3.8684,-3.825,-3.772,-3.6243,-3.5356,-3.4914,-3.4357,-3.3909,-3.3636,-3.3675,-3.3723,-3.3688,-3.3877,-3.3935,-3.3849,-3.3617,-3.3481,-3.3418,-3.3418,-3.3418,-3.3418,-3.3418,-3.3418,-3.3418,-3.3418,-3.3418,-3.3418,-3.3418,-3.3418,-3.3418,-3.3418,-3.3418,-3.3418,-3.3418,-3.3418,-3.3418,-3.3418,-3.3418,-3.3418,-3.3418,-3.3418,-3.3418,-3.3418,-3.3418,-3.3418,-3.3418,-3.3418,-3.3418,-3.3418,-3.3418,-3.3418,-3.3418,-3.3418,-3.3418,-3.3418,-3.3418,-3.3418,-3.3418,-3.3418,-3.3418,-3.3418,-3.3418,-3.3418,-3.3418,-3.3418,-3.3418,-3.3418,-3.3418,-3.3418,-3.3418,-3.3418,-3.3418,-3.3418,-3.3408,-3.3408,-3.3398,-3.3398,-3.332,-3.331,-3.3135,-3.2861,-3.2607,-3.2422,-3.2226,-3.2002,-3.1738,-3.1455,-3.1103,-3.1084,-3.1045,-3.0996,-3.0908,-3.0898,-3.0898,-3.0898,-3.0898,-3.0898,-3.0889,-3.0859,-3.085,-3.0742,-3.0703,-3.081,-3.0762,-3.0605,-3.0634,-3.0771,-3.105,-3.1179,-3.1542,-3.2211,-3.2444,-3.2931,-3.9478,-3.927,-3.9102,-3.8841,-3.8514,-3.8027,-3.7215,-3.6188,-3.574,-3.53,-3.4924,-3.5161,-3.4976,-3.462,-3.481,-3.483,-3.4485,-3.411,-3.3859,-3.367,-3.3544,-3.3418,-3.3418,-3.3418,-3.3418,-3.3418,-3.3418,-3.3418,-3.3418,-3.3418,-3.3418,-3.3418,-3.3418,-3.3418,-3.3418,-3.3418,-3.3418,-3.3418,-3.3418,-3.3418,-3.3418,-3.3418,-3.3418,-3.3418,-3.3418,-3.3418,-3.3418,-3.3418,-3.3418,-3.3418,-3.3418,-3.3418,-3.3418,-3.3418,-3.3418,-3.3418,-3.3418,-3.3418,-3.3418,-3.3418,-3.3418,-3.3418,-3.3418,-3.3418,-3.3418,-3.3418,-3.3418,-3.3418,-3.3418,-3.3418,-3.3418,-3.3418,-3.3418,-3.3418,-3.3418,-3.3418,-3.3418,-3.3418,-3.3418,-3.3418,-3.3418,-3.3369,-3.3115,-3.3096,-3.291,-3.2715,-3.25,-3.2246,-3.1924,-3.1582,-3.1357,-3.1328,-3.1123,-3.1045,-3.0937,-3.0918,-3.0908,-3.0898,-3.0898,-3.0898,-3.0879,-3.0879,-3.0889,-3.0898,-3.0898,-3.0898,-3.085,-3.0898,-3.0898,-3.0898,-3.1052,-3.1309,-3.1617,-3.1911,-3.2293,-3.9581,-3.9478,-3.9478,-3.9322,-3.9166,-3.9154,-3.8579,-3.772,-3.7173,-3.6623,-3.615,-3.6409,-3.6385,-3.6016,-3.6093,-3.6023,-3.5654,-3.4922,-3.4485,-3.4235,-3.3806,-3.367,-3.3607,-3.3481,-3.3418,-3.3418,-3.3418,-3.3418,-3.3418,-3.3418,-3.3418,-3.3418,-3.3418,-3.3418,-3.3418,-3.3418,-3.3418,-3.3418,-3.3418,-3.3418,-3.3418,-3.3418,-3.3418,-3.3418,-3.3418,-3.3418,-3.3418,-3.3418,-3.3418,-3.3418,-3.3418,-3.3418,-3.3418,-3.3418,-3.3418,-3.3418,-3.3418,-3.3418,-3.3418,-3.3418,-3.3418,-3.3418,-3.3418,-3.3418,-3.3418,-3.3418,-3.3418,-3.3418,-3.3418,-3.3418,-3.3418,-3.3418,-3.3418,-3.3418,-3.3418,-3.3418,-3.3418,-3.3418,-3.3418,-3.3418,-3.3418,-3.3418,-3.3389,-3.3418,-3.3379,-3.3154,-3.3027,-3.292,-3.2539,-3.2119,-3.1885,-3.1777,-3.1455,-3.1201,-3.1113,-3.1055,-3.1006,-3.0986,-3.0898,-3.0898,-3.0898,-3.0898,-3.0898,-3.0898,-3.0898,-3.0898,-3.0898,-3.0898,-3.0898,-3.0898,-3.0898,-3.1101,-3.1311,-3.1489,-3.1943,-3.9697,-3.9685,-3.9697,-3.9697,-3.9697,-3.9645,-3.949,-3.927,-3.8409,-3.7773,-3.7373,-3.7702,-3.7747,-3.7427,-3.7477,-3.7319,-3.6807,-3.6023,-3.5294,-3.4922,-3.4235,-3.3922,-3.3733,-3.3607,-3.3418,-3.3418,-3.3418,-3.3418,-3.3418,-3.3418,-3.3418,-3.3418,-3.3418,-3.3418,-3.3418,-3.3418,-3.3418,-3.3418,-3.3418,-3.3418,-3.3418,-3.3418,-3.3418,-3.3418,-3.3418,-3.3418,-3.3418,-3.3418,-3.3418,-3.3418,-3.3418,-3.3418,-3.3418,-3.3418,-3.3418,-3.3418,-3.3418,-3.3418,-3.3418,-3.3418,-3.3418,-3.3418,-3.3418,-3.3418,-3.3418,-3.3418,-3.3418,-3.3418,-3.3418,-3.3418,-3.3418,-3.3418,-3.3418,-3.3418,-3.3418,-3.3418,-3.3418,-3.3418,-3.3418,-3.3418,-3.3418,-3.3418,-3.3418,-3.3418,-3.3418,-3.3369,-3.335,-3.3301,-3.3105,-3.2637,-3.2412,-3.2217,-3.1855,-3.1572,-3.1533,-3.1435,-3.1211,-3.1113,-3.1055,-3.1025,-3.1123,-3.1035,-3.0898,-3.0898,-3.0898,-3.0898,-3.0898,-3.0898,-3.0898,-3.0898,-3.0898,-3.0898,-3.1034,-3.1217,-3.1456,-3.9697,-3.9697,-3.9697,-3.9697,-3.9697,-3.9697,-3.9645,-3.9594,-3.9426,-3.8788,-3.835,-3.8911,-3.9106,-3.8712,-3.8977,-3.8837,-3.8194,-3.7231,-3.6279,-3.5541,-3.4797,-3.4235,-3.3912,-3.367,-3.3418,-3.3418,-3.3418,-3.3418,-3.3418,-3.3418,-3.3418,-3.3418,-3.3418,-3.3418,-3.3418,-3.3418,-3.3418,-3.3418,-3.3418,-3.3418,-3.3418,-3.3418,-3.3418,-3.3418,-3.3418,-3.3418,-3.3418,-3.3418,-3.3418,-3.3418,-3.3418,-3.3418,-3.3418,-3.3418,-3.3418,-3.3418,-3.3418,-3.3418,-3.3418,-3.3418,-3.3418,-3.3428,-3.3437,-3.3418,-3.3418,-3.3418,-3.3418,-3.3428,-3.3418,-3.3418,-3.3418,-3.3418,-3.3418,-3.3418,-3.3418,-3.3418,-3.3418,-3.3418,-3.3418,-3.3418,-3.3418,-3.3418,-3.3418,-3.3418,-3.3418,-3.3408,-3.3408,-3.3389,-3.3379,-3.3096,-3.2881,-3.2656,-3.2266,-3.2031,-3.1973,-3.1836,-3.1611,-3.1543,-3.1533,-3.1465,-3.1377,-3.1279,-3.1182,-3.0976,-3.0898,-3.0976,-3.0996,-3.0898,-3.0898,-3.0898,-3.0898,-3.0898,-3.0898,-3.1034,-3.1208,-3.9697,-3.9697,-3.9697,-3.9697,-3.9697,-3.9697,-3.9697,-3.9697,-3.9697,-3.9426,-3.9158,-3.9898,-4.0123,-3.984,-4.0257,-4.0199,-3.9498,-3.8481,-3.7605,-3.6707,-3.5603,-3.4859,-3.436,-3.3859,-3.3544,-3.3481,-3.3418,-3.3418,-3.3418,-3.3418,-3.3418,-3.3418,-3.3418,-3.3418,-3.3418,-3.3418,-3.3418,-3.3418,-3.3418,-3.3418,-3.3418,-3.3418,-3.3418,-3.3418,-3.3418,-3.3418,-3.3418,-3.3418,-3.3418,-3.3418,-3.3418,-3.3418,-3.3418,-3.3418,-3.3418,-3.3418,-3.3418,-3.3418,-3.3418,-3.3437,-3.3437,-3.3467,-3.3672,-3.375,-3.3506,-3.3506,-3.3574,-3.3564,-3.3437,-3.3418,-3.3418,-3.3418,-3.3418,-3.3418,-3.3418,-3.3418,-3.3418,-3.3418,-3.3418,-3.3418,-3.3418,-3.3418,-3.3418,-3.3418,-3.3418,-3.3418,-3.3418,-3.3418,-3.3418,-3.3418,-3.3252,-3.3066,-3.2676,-3.248,-3.2422,-3.2246,-3.2031,-3.1992,-3.2002,-3.1875,-3.1768,-3.1621,-3.1475,-3.1387,-3.1279,-3.1211,-3.1191,-3.1113,-3.0937,-3.0898,-3.0898,-3.0898,-3.0918,-3.0986,-3.1132,-3.9697,-3.9697,-3.9697,-3.9697,-3.9697,-3.9697,-3.9697,-3.9697,-3.9697,-3.9697,-3.9706,-4.0433,-4.0666,-4.093,-4.1211,-4.1124,-4.0651,-3.9721,-3.8919,-3.7916,-3.6707,-3.5777,-3.4984,-3.4423,-3.3985,-3.3607,-3.3481,-3.3418,-3.3418,-3.3418,-3.3418,-3.3418,-3.3418,-3.3418,-3.3418,-3.3418,-3.3418,-3.3418,-3.3418,-3.3418,-3.3418,-3.3418,-3.3418,-3.3418,-3.3418,-3.3418,-3.3418,-3.3418,-3.3418,-3.3418,-3.3418,-3.3418,-3.3418,-3.3418,-3.3418,-3.3418,-3.3418,-3.3418,-3.3437,-3.3525,-3.3535,-3.3623,-3.3935,-3.4004,-3.3779,-3.3769,-3.3838,-3.3691,-3.3564,-3.3428,-3.3428,-3.3418,-3.3418,-3.3418,-3.3418,-3.3418,-3.3418,-3.3418,-3.3418,-3.3418,-3.3418,-3.3418,-3.3418,-3.3418,-3.3418,-3.3418,-3.3418,-3.3418,-3.3418,-3.3418,-3.334,-3.3252,-3.3047,-3.291,-3.2861,-3.2715,-3.25,-3.2471,-3.2471,-3.2305,-3.2199,-3.1934,-3.1865,-3.1953,-3.1846,-3.166,-3.1533,-3.1465,-3.125,-3.1103,-3.126,-3.1377,-3.1348,-3.1357,-3.1162,-3.9697,-3.9697,-3.9697,-3.9697,-3.9697,-3.9697,-3.9697,-3.9697,-3.9697,-3.9697,-3.986,-4.0285,-4.0718,-4.1164,-4.1476,-4.1582,-4.1606,-4.0791,-3.9908,-3.8908,-3.7774,-3.6696,-3.5726,-3.5036,-3.4423,-3.3985,-3.3617,-3.3418,-3.3481,-3.3418,-3.3418,-3.3418,-3.3418,-3.3418,-3.3418,-3.3418,-3.3418,-3.3418,-3.3418,-3.3418,-3.3418,-3.3418,-3.3418,-3.3418,-3.3418,-3.3418,-3.3418,-3.3418,-3.3418,-3.3418,-3.3418,-3.3418,-3.3418,-3.3418,-3.3418,-3.3418,-3.3418,-3.3418,-3.3457,-3.3701,-3.3779,-3.3896,-3.4219,-3.4521,-3.4404,-3.4424,-3.4326,-3.3994,-3.3809,-3.3545,-3.3486,-3.3428,-3.3418,-3.3418,-3.3418,-3.3418,-3.3418,-3.3418,-3.3418,-3.3418,-3.3418,-3.3418,-3.3418,-3.3418,-3.3418,-3.3418,-3.3418,-3.3418,-3.3418,-3.3418,-3.3418,-3.3359,-3.3301,-3.334,-3.3291,-3.3203,-3.3057,-3.3008,-3.29,-3.2695,-3.2471,-3.2258,-3.2168,-3.2383,-3.2275,-3.207,-3.1953,-3.1836,-3.1816,-3.1738,-3.1945,-3.2033,-3.1945,-3.1758,-3.1572]},{"header":{"parameterUnit":"m.s-1","parameterCategory":1,"la1":31.0,"la2":29.5877,"lo1":-88.7671,"lo2":-86.6584,"dy":0.0162,"dx":0.0185,"nx":115,"ny":88,"refTime":"2026-03-04T00:00:00:Z","depth":0,"parameterNumber":3,"parameterNumberName":"V-component_of_WINDS"},"data":[0.0,0.0,0.0,0.0,0.0,0.0,0.0,0.0,0.0,0.0,0.0,0.0,0.0,0.0,0.0,0.0,0.0,0.0,0.0,0.0,0.0,0.0,0.0,0.0,0.0,0.0,0.0,0.0,0.0,0.0,0.0,0.0,0.0,0.0,0.0,0.0,0.0,0.0,0.0,0.0,0.0,0.0,0.0,0.0,0.0,0.0,0.0,0.0,0.0,0.0,0.0,0.0,0.0,0.0,0.0,0.0,0.0,0.0,0.0,0.0,0.0,0.0,0.0,0.0,0.0,0.0,0.0,0.0,0.0,0.0,0.0,0.0,0.0,0.0,0.0,0.0,0.0,0.0,0.0,0.0,0.0,0.0,0.0,0.0,0.0,0.0,0.0,0.0,0.0,0.0,0.0,0.0,0.0,0.0,0.0,0.0,0.0,0.0,0.0,0.0,0.0,0.0,0.0,0.0,0.0,0.0,0.0,0.0,0.0,0.0,0.0,0.0,0.0,0.0,0.0,0.0,0.0,0.0,0.0,0.0,0.0,0.0,0.0,0.0,0.0,0.0,0.0,0.0,0.0,0.0,0.0,0.0,0.0,0.0,0.0,0.0,0.0,0.0,0.0,0.0,0.0,0.0,0.0,0.0,0.0,0.0,0.0,0.0,0.0,0.0,0.0,0.0,0.0,0.0,0.0,0.0,0.0,0.0,0.0,0.0,0.0,0.0,0.0,0.0,0.0,0.0,0.0,0.0,0.0,0.0,0.0,0.0,0.0,0.0,0.0,0.0,0.0,0.0,0.0,0.0,0.0,0.0,0.0,0.0,0.0,0.0,0.0,0.0,0.0,0.0,0.0,0.0,0.0,0.0,0.0,0.0,0.0,0.0,0.0,0.0,0.0,0.0,0.0,0.0,0.0,0.0,0.0,0.0,0.0,0.0,0.0,0.0,0.0,0.0,0.0,0.0,0.0,0.0,0.0,0.0,0.0,0.0,0.0,0.0,0.0,0.0,0.0,0.0,0.0,0.0,0.0,0.0,0.0,0.0,0.0,0.0,0.0,0.0,0.0,0.0,0.0,0.0,0.0,0.0,0.0,0.0,0.0,0.0,0.0,0.0,0.0,0.0,0.0,0.0,0.0,0.0,0.0,0.0,0.0,0.0,0.0,0.0,0.0,0.0,0.0,0.0,0.0,0.0,0.0,0.0,0.0,0.0,0.0,0.0,0.0,0.0,0.0,0.0,0.0,0.0,0.0,0.0,0.0,0.0,0.0,0.0,0.0,0.0,0.0,0.0,0.0,0.0,0.0,0.0,0.0,0.0,0.0,0.0,0.0,0.0,0.0,0.0,0.0,0.0,0.0,0.0,0.0,0.0,0.0,0.0,0.0,0.0,0.0,0.0,0.0,0.0,0.0,0.0,0.0,0.0,0.0,0.0,0.0,0.0,0.0,0.0,0.0,0.0,0.0,0.0,0.0,0.0,0.0,0.0,0.0,0.0,0.0,0.0,0.0,0.0,0.0,0.0,0.0,0.0,0.0,0.0,0.0,0.0,0.0,0.0,0.0,0.0,0.0,0.0,0.0,0.0,0.0,0.0,0.0,0.0,0.0,0.0,0.0,0.0,0.0,0.0,0.0,0.0,0.0,0.0,0.0,0.0,0.0,0.0,0.0,0.0,0.0,0.0,0.0,0.0,0.0,0.0,0.0,0.0,0.0,0.0,0.0,0.0,0.0,0.0,0.0,0.0,0.0,0.0,0.0,0.0,0.0,0.0,0.0,0.0,0.0,0.0,0.0,0.0,0.0,0.0,0.0,0.0,0.0,0.0,0.0,0.0,0.0,0.0,0.0,0.0,0.0,0.0,0.0,0.0,0.0,0.0,0.0,0.0,0.0,0.0,0.0,0.0,0.0,0.0,0.0,0.0,0.0,0.0,0.0,0.0,0.0,0.0,0.0,0.0,0.0,0.0,0.0,0.0,0.0,0.0,0.0,0.0,0.0,0.0,0.0,0.0,0.0,0.0,0.0,0.0,0.0,0.0,0.0,0.0,0.0,0.0,0.0,0.0,0.0,0.0,0.0,0.0,0.0,0.0,0.0,0.0,0.0,0.0,0.0,0.0,0.0,0.0,0.0,0.0,0.0,0.0,0.0,0.0,0.0,0.0,0.0,0.0,0.0,0.0,0.0,0.0,0.0,0.0,0.0,0.0,0.0,0.0,0.0,0.0,0.0,0.0,0.0,0.0,0.0,0.0,0.0,0.0,0.0,0.0,0.0,0.0,0.0,0.0,0.0,0.0,0.0,0.0,0.0,0.0,0.0,0.0,0.0,0.0,0.0,0.0,0.0,0.0,0.0,0.0,0.0,0.0,0.0,0.0,0.0,0.0,0.0,0.0,0.0,0.0,0.0,0.0,0.0,0.0,0.0,0.0,0.0,0.0,0.0,0.0,0.0,0.0,0.0,0.0,0.0,0.0,0.0,0.0,0.0,0.0,0.0,0.0,0.0,0.0,0.0,0.0,0.0,0.0,0.0,0.0,0.0,0.0,0.0,0.0,0.0,0.0,0.0,0.0,0.0,0.0,0.0,0.0,0.0,0.0,0.0,0.0,0.0,0.0,0.0,0.0,0.0,0.0,0.0,0.0,0.0,0.0,0.0,0.0,0.0,0.0,0.0,0.0,0.0,0.0,0.0,0.0,0.0,0.0,0.0,0.0,0.0,0.0,0.0,0.0,0.0,0.0,0.0,0.0,0.0,0.0,0.0,0.0,0.0,0.0,0.0,0.0,0.0,0.0,0.0,0.0,0.0,0.0,0.0,0.0,0.0,0.0,0.0,0.0,0.0,0.0,0.0,0.0,0.0,0.0,0.0,0.0,0.0,0.0,0.0,0.0,0.0,0.0,0.0,0.0,0.0,0.0,0.0,0.0,0.0,0.0,0.0,0.0,0.0,0.0,0.0,0.0,0.0,0.0,0.0,0.0,0.0,0.0,0.0,0.0,0.0,0.0,0.0,0.0,0.0,0.0,0.0,0.0,0.0,0.0,0.0,0.0,0.0,0.0,0.0,0.0,0.0,0.0,0.0,0.0,0.0,0.0,0.0,0.0,0.0,0.0,0.0,0.0,0.0,0.0,0.0,0.0,0.0,0.0,0.0,0.0,0.0,0.0,0.0,0.0,0.0,0.0,0.0,0.0,0.0,0.0,0.0,0.0,0.0,0.0,0.0,0.0,0.0,0.0,0.0,0.0,0.0,0.0,0.0,0.0,0.0,0.0,0.0,0.0,0.0,0.0,0.0,0.0,0.0,0.0,0.0,0.0,0.0,0.0,0.0,0.0,0.0,0.0,0.0,0.0,0.0,0.0,0.0,0.0,0.0,0.0,0.0,0.0,0.0,0.0,0.0,0.0,0.0,0.0,0.0,0.0,0.0,0.0,0.0,0.0,0.0,0.0,0.0,0.0,0.0,0.0,0.0,0.0,0.0,0.0,0.0,0.0,0.0,0.0,0.0,0.0,0.0,0.0,0.0,0.0,0.0,0.0,0.0,0.0,0.0,0.0,0.0,0.0,0.0,0.0,0.0,0.0,0.0,0.0,0.0,0.0,0.0,0.0,0.0,0.0,0.0,0.0,0.0,0.0,0.0,0.0,0.0,0.0,0.0,0.0,0.0,0.0,0.0,0.0,0.0,0.0,0.0,0.0,0.0,0.0,0.0,0.0,0.0,0.0,0.0,0.0,0.0,0.0,0.0,0.0,0.0,0.0,0.0,0.0,0.0,0.0,0.0,0.0,0.0,0.0,0.0,0.0,0.0,0.0,0.0,0.0,0.0,0.0,0.0,0.0,0.0,0.0,0.0,0.0,0.0,0.0,0.0,0.0,0.0,0.0,0.0,0.0,0.0,0.0,0.0,0.0,0.0,0.0,0.0,0.0,0.0,0.0,0.0,0.0,0.0,0.0,0.0,0.0,0.0,0.0,0.0,0.0,0.0,0.0,0.0,0.0,0.0,0.0,0.0,0.0,0.0,0.0,0.0,0.0,0.0,0.0,0.0,0.0,0.0,0.0,0.0,0.0,0.0,0.0,0.0,0.0,0.0,0.0,0.0,0.0,0.0,0.0,0.0,0.0,0.0,0.0,0.0,0.0,0.0,0.0,0.0,0.0,0.0,0.0,0.0,0.0,0.0,0.0,0.0,0.0,0.0,0.0,0.0,0.0,0.0,0.0,0.0,0.0,0.0,0.0,0.0,0.0,0.0,0.0,0.0,0.0,0.0,0.0,0.0,0.0,0.0,0.0,1.8047,0.0,0.0,0.0,0.0,0.0,0.0,0.0,0.0,0.0,0.0,0.0,0.0,0.0,0.0,0.0,0.0,0.0,0.0,0.0,0.0,0.0,0.0,0.0,0.0,0.0,0.0,0.0,0.0,0.0,0.0,0.0,0.0,0.0,0.0,0.0,0.0,0.0,0.0,0.0,0.0,0.0,0.0,0.0,0.0,0.0,0.0,0.0,0.0,0.0,0.0,0.0,0.0,0.0,0.0,0.0,0.0,0.0,0.0,0.0,0.0,0.0,0.0,0.0,0.0,0.0,0.0,0.0,0.0,0.0,0.0,0.0,0.0,0.0,0.0,0.0,0.0,0.0,0.0,0.0,0.0,0.0,0.0,0.0,0.0,0.0,0.0,0.0,0.0,0.0,0.0,0.0,0.0,0.0,0.0,0.0,0.0,0.0,0.0,0.0,0.0,0.0,0.0,0.0,0.0,0.0,0.0,0.0,0.0,0.0,0.0,2.0507,2.0264,2.0039,1.9531,1.8721,0.0,0.0,0.0,0.0,0.0,0.0,0.0,0.0,0.0,0.0,0.0,0.0,0.0,0.0,0.0,0.0,0.0,0.0,0.0,0.0,0.0,0.0,0.0,0.0,0.0,0.0,0.0,0.0,0.0,0.0,0.0,0.0,0.0,0.0,0.0,0.0,0.0,0.0,0.0,0.0,0.0,0.0,0.0,0.0,0.0,0.0,0.0,0.0,0.0,0.0,0.0,0.0,0.0,0.0,0.0,0.0,0.0,0.0,0.0,0.0,0.0,0.0,0.0,0.0,0.0,0.0,0.0,0.0,0.0,0.0,0.0,0.0,0.0,0.0,0.0,0.0,0.0,0.0,0.0,0.0,0.0,0.0,0.0,0.0,0.0,0.0,0.0,0.0,0.0,0.0,0.0,0.0,0.0,0.0,0.0,0.0,0.0,0.0,0.0,0.0,0.0,0.0,0.0,0.0,0.0,0.0,0.0,0.0,0.0,0.0,0.0,0.0,2.0321,1.9801,1.9066,0.0,0.0,0.0,0.0,0.0,0.0,0.0,0.0,0.0,0.0,0.0,0.0,0.0,0.0,0.0,0.0,0.0,0.0,0.0,0.0,0.0,0.0,0.0,0.0,0.0,0.0,0.0,0.0,0.0,0.0,0.0,0.0,0.0,0.0,0.0,0.0,0.0,0.0,0.0,0.0,0.0,0.0,0.0,0.0,0.0,0.0,0.0,0.0,0.0,0.0,0.0,0.0,0.0,0.0,0.0,0.0,0.0,0.0,0.0,0.0,0.0,0.0,0.0,0.0,0.0,0.0,0.0,0.0,0.0,0.0,0.0,0.0,0.0,0.0,0.0,0.0,0.0,0.0,0.0,0.0,0.0,0.0,0.0,0.0,0.0,0.0,0.0,0.0,0.0,0.0,0.0,0.0,0.0,0.0,0.0,0.0,0.0,0.0,0.0,0.0,0.0,0.0,0.0,0.0,0.0,0.0,0.0,0.0,0.0,0.0,2.0693,2.0858,2.0818,0.0,1.8478,0.0,0.0,0.0,0.0,0.0,0.0,0.0,0.0,0.0,0.0,0.0,0.0,0.0,0.0,0.0,0.0,0.0,0.0,0.0,0.0,0.0,0.0,0.0,0.0,0.0,0.0,0.0,0.0,0.0,0.0,0.0,0.0,0.0,0.0,0.0,0.0,0.0,0.0,0.0,0.0,0.0,0.0,0.0,0.0,0.0,0.0,0.0,0.0,0.0,0.0,0.0,0.0,0.0,0.0,0.0,0.0,0.0,0.0,0.0,0.0,0.0,0.0,0.0,0.0,0.0,0.0,0.0,0.0,0.0,0.0,0.0,0.0,0.0,0.0,0.0,0.0,0.0,0.0,0.0,0.0,0.0,0.0,0.0,0.0,0.0,0.0,0.0,0.0,0.0,0.0,0.0,0.0,0.0,0.0,0.0,0.0,0.0,0.0,0.0,0.0,0.0,0.0,0.0,0.0,0.0,0.0,0.0,0.0,0.0,0.0,2.1142,2.149,2.1046,2.0198,0.0,0.0,0.0,0.0,0.0,0.0,0.0,0.0,0.0,0.0,0.0,0.0,0.0,0.0,0.0,0.0,0.0,0.0,0.0,0.0,0.0,0.0,0.0,0.0,0.0,0.0,0.0,0.0,0.0,0.0,0.0,0.0,0.0,0.0,0.0,0.0,0.0,0.0,0.0,0.0,0.0,0.0,0.0,0.0,0.0,0.0,0.0,0.0,0.0,0.0,0.0,0.0,0.0,0.0,0.0,0.0,0.0,0.0,0.0,0.0,0.0,0.0,0.0,0.0,0.0,0.0,0.0,0.0,0.0,0.0,0.0,0.0,0.0,0.0,0.0,0.0,0.0,0.0,0.0,0.0,0.0,0.0,0.0,0.0,0.0,0.0,0.0,0.0,0.0,0.0,0.0,0.0,0.0,0.0,0.0,0.0,0.0,0.0,0.0,0.0,0.0,0.0,0.0,0.0,0.0,0.0,0.0,0.0,0.0,0.0,2.132,2.1665,2.2048,2.1414,2.049,1.9339,0.0,0.0,0.0,0.0,0.0,0.0,0.0,0.0,0.0,0.0,0.0,0.0,0.0,0.0,0.0,0.0,0.0,0.0,0.0,0.0,0.0,0.0,0.0,0.0,0.0,0.0,0.0,0.0,0.0,0.0,0.0,0.0,0.0,0.0,0.0,0.0,0.0,0.0,0.0,0.0,0.0,0.0,0.0,0.0,0.0,0.0,0.0,0.0,0.0,0.0,0.0,0.0,0.0,0.0,0.0,0.0,0.0,0.0,0.0,0.0,0.0,0.0,0.0,0.0,0.0,0.0,0.0,0.0,0.0,0.0,0.0,0.0,0.0,0.0,0.0,0.0,0.0,0.0,0.0,0.0,0.0,0.0,0.0,0.0,0.0,0.0,0.0,0.0,0.0,0.0,0.0,0.0,0.0,0.0,0.0,0.0,0.0,0.0,0.0,0.0,0.0,0.0,0.0,0.0,0.0,0.0,0.0,0.0,0.0,2.1883,2.2262,2.2649,2.1948,2.1042,0.0,0.0,0.0,0.0,0.0,0.0,0.0,0.0,0.0,0.0,0.0,0.0,0.0,0.0,0.0,0.0,0.0,0.0,0.0,0.0,0.0,0.0,0.0,0.0,0.0,0.0,0.0,0.0,0.0,0.0,0.0,0.0,0.0,0.0,0.0,0.0,0.0,0.0,0.0,0.0,0.0,0.0,0.0,0.0,0.0,0.0,0.0,0.0,0.0,0.0,0.0,0.0,0.0,0.0,0.0,0.0,0.0,0.0,0.0,0.0,0.0,0.0,0.0,0.0,0.0,0.0,0.0,0.0,0.0,0.0,0.0,0.0,0.0,0.0,0.0,0.0,0.0,0.0,0.0,0.0,0.0,0.0,0.0,0.0,0.0,0.0,0.0,0.0,0.0,0.0,0.0,0.0,0.0,0.0,0.0,0.0,0.0,0.0,0.0,0.0,0.0,0.0,0.0,0.0,0.0,0.0,0.0,0.0,0.0,2.1877,2.2998,2.3649,2.3632,2.3039,2.2139,0.0,0.0,0.0,0.0,0.0,0.0,0.0,0.0,0.0,0.0,0.0,0.0,0.0,0.0,0.0,0.0,0.0,0.0,0.0,0.0,0.0,0.0,0.0,0.0,0.0,0.0,0.0,0.0,0.0,0.0,0.0,0.0,0.0,0.0,0.0,0.0,0.0,0.0,0.0,0.0,0.0,0.0,0.0,0.0,0.0,0.0,0.0,0.0,0.0,0.0,0.0,0.0,0.0,0.0,0.0,0.0,0.0,0.0,0.0,0.0,0.0,0.0,0.0,0.0,0.0,0.0,0.0,0.0,0.0,0.0,0.0,0.0,0.0,0.0,0.0,0.0,0.0,0.0,0.0,0.0,0.0,0.0,0.0,0.0,0.0,0.0,0.0,0.0,0.0,0.0,0.0,0.0,0.0,0.0,0.0,0.0,0.0,0.0,0.0,0.0,0.0,0.0,0.0,0.0,0.0,0.0,0.0,0.0,0.0,2.292,0.0,2.4833,0.0,2.4026,2.3103,0.0,0.0,0.0,0.0,0.0,0.0,0.0,0.0,0.0,0.0,0.0,0.0,0.0,0.0,0.0,0.0,0.0,0.0,0.0,0.0,0.0,0.0,0.0,0.0,0.0,0.0,0.0,0.0,0.0,0.0,0.0,0.0,0.0,0.0,0.0,0.0,0.0,0.0,0.0,0.0,0.0,0.0,0.0,0.0,0.0,0.0,0.0,0.0,0.0,0.0,0.0,0.0,0.0,0.0,0.0,0.0,0.0,0.0,0.0,0.0,0.0,0.0,0.0,0.0,0.0,0.0,0.0,0.0,0.0,0.0,0.0,0.0,0.0,0.0,0.0,0.0,0.0,0.0,0.0,0.0,0.0,0.0,0.0,0.0,0.0,0.0,0.0,0.0,0.0,0.0,0.0,0.0,0.0,0.0,0.0,0.0,0.0,0.0,0.0,0.0,0.0,0.0,0.0,0.0,0.0,0.0,0.0,0.0,2.3448,2.4671,2.5479,2.5756,2.5324,2.4865,2.3842,0.0,0.0,0.0,0.0,0.0,0.0,0.0,0.0,0.0,0.0,0.0,0.0,0.0,0.0,0.0,0.0,0.0,0.0,0.0,0.0,0.0,0.0,0.0,0.0,0.0,0.0,0.0,0.0,0.0,0.0,0.0,0.0,0.0,0.0,0.0,0.0,0.0,0.0,0.0,0.0,0.0,0.0,0.0,0.0,0.0,0.0,0.0,0.0,0.0,0.0,0.0,0.0,0.0,0.0,0.0,0.0,0.0,0.0,0.0,0.0,0.0,0.0,0.0,0.0,0.0,0.0,0.0,0.0,0.0,0.0,0.0,0.0,0.0,0.0,0.0,0.0,0.0,0.0,0.0,0.0,0.0,0.0,0.0,0.0,0.0,0.0,0.0,0.0,0.0,0.0,0.0,0.0,0.0,0.0,0.0,0.0,0.0,0.0,0.0,0.0,0.0,0.0,0.0,0.0,0.0,0.0,0.0,0.0,0.0,2.5865,2.6749,2.698,2.6474,2.5623,2.4423,0.0,0.0,0.0,0.0,0.0,0.0,0.0,0.0,0.0,0.0,0.0,0.0,0.0,0.0,0.0,0.0,0.0,0.0,0.0,0.0,0.0,0.0,0.0,0.0,0.0,0.0,0.0,0.0,0.0,0.0,0.0,0.0,0.0,0.0,0.0,0.0,0.0,0.0,0.0,0.0,0.0,0.0,0.0,0.0,0.0,0.0,0.0,0.0,0.0,0.0,0.0,0.0,0.0,0.0,0.0,0.0,0.0,0.0,0.0,0.0,0.0,0.0,0.0,0.0,0.0,0.0,0.0,0.0,0.0,0.0,0.0,0.0,0.0,0.0,0.0,0.0,0.0,0.0,0.0,0.0,0.0,0.0,0.0,0.0,0.0,0.0,0.0,0.0,0.0,0.0,0.0,0.0,0.0,0.0,0.0,0.0,0.0,0.0,0.0,0.0,0.0,0.0,0.0,0.0,0.0,0.0,0.0,0.0,0.0,2.7644,2.8251,2.83,2.7714,2.6864,2.5561,2.3785,0.0,0.0,0.0,0.0,0.0,0.0,0.0,0.0,0.0,0.0,0.0,0.0,0.0,0.0,0.0,0.0,0.0,0.0,0.0,0.0,0.0,0.0,0.0,0.0,0.0,0.0,0.0,0.0,0.0,0.0,0.0,0.0,0.0,0.0,0.0,0.0,0.0,0.0,0.0,0.0,0.0,0.0,0.0,0.0,0.0,0.0,0.0,0.0,0.0,0.0,0.0,0.0,0.0,0.0,0.0,0.0,0.0,0.0,0.0,0.0,0.0,0.0,0.0,0.0,0.0,0.0,0.0,0.0,0.0,0.0,0.0,0.0,0.0,0.0,0.0,0.0,0.0,0.0,0.0,0.0,0.0,0.0,0.0,0.0,0.0,0.0,0.0,0.0,0.0,0.0,0.0,0.0,0.0,0.0,0.0,0.0,0.0,0.0,0.0,0.0,0.0,0.0,0.0,0.0,0.0,0.0,0.0,0.0,2.9867,2.9942,2.9691,2.9051,2.8399,2.7092,0.0,0.0,0.0,0.0,0.0,0.0,0.0,0.0,0.0,0.0,0.0,0.0,0.0,0.0,0.0,0.0,0.0,0.0,0.0,0.0,0.0,0.0,0.0,0.0,0.0,0.0,0.0,0.0,0.0,0.0,0.0,0.0,0.0,0.0,0.0,0.0,0.0,0.0,0.0,0.0,0.0,0.0,0.0,0.0,0.0,0.0,0.0,0.0,0.0,0.0,0.0,0.0,0.0,0.0,0.0,0.0,0.0,0.0,0.0,0.0,0.0,0.0,0.0,0.0,0.0,0.0,0.0,0.0,0.0,0.0,0.0,0.0,0.0,0.0,0.0,0.0,0.0,0.0,0.0,0.0,0.0,0.0,0.0,0.0,0.0,0.0,0.0,0.0,0.0,0.0,0.0,0.0,0.0,0.0,0.0,0.0,0.0,0.0,0.0,0.0,0.0,0.0,0.0,0.0,0.0,0.0,0.0,0.0,0.0,3.0909,3.1788,3.175,3.0758,2.9026,2.7256,0.0,0.0,0.0,0.0,0.0,0.0,0.0,0.0,0.0,0.0,0.0,0.0,0.0,0.0,0.0,0.0,0.0,0.0,0.0,0.0,0.0,0.0,0.0,0.0,0.0,0.0,0.0,0.0,0.0,0.0,0.0,0.0,0.0,0.0,0.0,0.0,0.0,0.0,0.0,0.0,0.0,0.0,0.0,0.0,0.0,0.0,0.0,0.0,0.0,0.0,0.0,0.0,0.0,0.0,0.0,0.0,0.0,0.0,0.0,0.0,0.0,0.0,0.0,0.0,0.0,0.0,0.0,0.0,0.0,0.0,0.0,0.0,0.0,0.0,0.0,0.0,0.0,0.0,0.0,0.0,0.0,0.0,0.0,0.0,0.0,0.0,0.0,0.0,0.0,0.0,0.0,0.0,0.0,0.0,0.0,0.0,0.0,0.0,0.0,0.0,0.0,0.0,0.0,0.0,0.0,0.0,0.0,0.0,3.0456,3.2549,3.3926,3.4466,3.4131,3.1137,2.8636,0.0,0.0,0.0,0.0,0.0,0.0,0.0,0.0,0.0,0.0,0.0,0.0,0.0,0.0,0.0,0.0,0.0,0.0,0.0,0.0,0.0,0.0,0.0,0.0,0.0,0.0,0.0,0.0,0.0,0.0,0.0,0.0,0.0,0.0,0.0,0.0,0.0,0.0,0.0,0.0,0.0,0.0,0.0,0.0,0.0,0.0,0.0,0.0,0.0,0.0,0.0,0.0,0.0,0.0,0.0,0.0,0.0,0.0,0.0,0.0,0.0,0.0,0.0,0.0,0.0,0.0,0.0,0.0,0.0,0.0,0.0,0.0,0.0,0.0,0.0,0.0,0.0,0.0,0.0,0.0,0.0,0.0,0.0,0.0,0.0,0.0,0.0,0.0,0.0,0.0,0.0,0.0,0.0,0.0,0.0,0.0,0.0,0.0,0.0,0.0,0.0,0.0,0.0,0.0,0.0,0.0,0.0,0.0,3.2378,3.4428,3.6025,3.7267,3.7808,3.3866,3.0719,0.0,0.0,0.0,0.0,0.0,0.0,0.0,0.0,0.0,0.0,0.0,0.0,0.0,0.0,0.0,0.0,0.0,0.0,0.0,0.0,0.0,0.0,0.0,0.0,0.0,0.0,0.0,0.0,0.0,0.0,0.0,0.0,0.0,0.0,0.0,0.0,0.0,0.0,0.0,0.0,0.0,0.0,0.0,0.0,0.0,0.0,0.0,0.0,0.0,0.0,0.0,0.0,0.0,0.0,0.0,0.0,0.0,0.0,0.0,0.0,0.0,0.0,0.0,0.0,0.0,0.0,0.0,0.0,0.0,0.0,0.0,0.0,0.0,0.0,0.0,0.0,0.0,0.0,0.0,0.0,0.0,0.0,0.0,0.0,0.0,0.0,0.0,0.0,0.0,0.0,0.0,0.0,0.0,0.0,0.0,0.0,0.0,0.0,0.0,0.0,0.0,0.0,0.0,0.0,0.0,0.0,0.0,0.0,3.3655,3.6006,3.7462,3.8241,3.8405,3.4992,3.2279,0.0,0.0,0.0,0.0,0.0,0.0,0.0,0.0,0.0,0.0,0.0,0.0,0.0,0.0,0.0,0.0,0.0,0.0,0.0,0.0,0.0,0.0,0.0,0.0,0.0,0.0,0.0,0.0,0.0,0.0,0.0,0.0,0.0,0.0,0.0,0.0,0.0,0.0,0.0,0.0,0.0,0.0,0.0,0.0,0.0,0.0,0.0,0.0,1.9737,0.0,0.0,0.0,0.0,0.0,0.0,0.0,0.0,0.0,0.0,0.0,0.0,0.0,0.0,0.0,0.0,0.0,0.0,0.0,0.0,0.0,0.0,0.0,0.0,0.0,0.0,0.0,0.0,0.0,0.0,0.0,0.0,0.0,0.0,0.0,0.0,0.0,0.0,0.0,0.0,0.0,0.0,0.0,0.0,0.0,0.0,0.0,0.0,0.0,0.0,0.0,0.0,0.0,0.0,0.0,0.0,0.0,0.0,0.0,3.5157,3.7588,3.9161,4.009,4.0184,3.7772,3.4936,0.0,0.0,0.0,0.0,0.0,0.0,0.0,0.0,0.0,0.0,0.0,0.0,0.0,0.0,0.0,0.0,0.0,0.0,0.0,0.0,0.0,0.0,0.0,0.0,0.0,0.0,0.0,0.0,0.0,0.0,0.0,0.0,0.0,0.0,0.0,0.0,0.0,0.0,0.0,0.0,0.0,0.0,0.0,0.0,0.0,0.0,0.0,0.0,0.0,0.0,0.0,0.0,0.0,0.0,0.0,0.0,0.0,0.0,0.0,0.0,0.0,0.0,0.0,0.0,0.0,0.0,0.0,0.0,0.0,0.0,0.0,0.0,0.0,0.0,0.0,0.0,0.0,0.0,0.0,0.0,0.0,0.0,0.0,0.0,0.0,0.0,0.0,0.0,0.0,0.0,0.0,0.0,0.0,0.0,0.0,0.0,0.0,0.0,0.0,0.0,0.0,0.0,0.0,0.0,0.0,0.0,0.0,3.3843,3.6737,3.9122,4.0845,4.1865,4.211,4.0492,3.7568,3.324,0.0,0.0,0.0,0.0,0.0,0.0,0.0,0.0,0.0,0.0,0.0,0.0,0.0,0.0,0.0,0.0,0.0,0.0,0.0,0.0,0.0,0.0,0.0,0.0,0.0,0.0,0.0,0.0,0.0,0.0,0.0,0.0,0.0,0.0,0.0,0.0,0.0,0.0,1.9057,2.077,0.0,0.0,0.0,0.0,0.0,0.0,0.0,0.0,2.094,0.0,0.0,0.0,0.0,0.0,0.0,0.0,0.0,0.0,0.0,0.0,0.0,0.0,0.0,0.0,0.0,0.0,0.0,0.0,0.0,0.0,0.0,0.0,0.0,0.0,0.0,0.0,0.0,0.0,0.0,0.0,0.0,0.0,0.0,0.0,0.0,0.0,0.0,0.0,0.0,0.0,0.0,0.0,0.0,0.0,0.0,0.0,0.0,0.0,0.0,0.0,0.0,0.0,0.0,0.0,0.0,3.2004,3.5339,3.8118,4.0359,4.196,4.252,4.2013,4.0697,3.8395,3.4974,0.0,0.0,0.0,0.0,0.0,0.0,0.0,0.0,0.0,0.0,0.0,0.0,0.0,0.0,0.0,0.0,0.0,0.0,0.0,0.0,0.0,0.0,0.0,0.0,0.0,0.0,0.0,0.0,0.0,0.0,0.0,0.0,0.0,0.0,0.0,0.0,0.0,0.0,0.0,2.3365,2.4277,0.0,0.0,0.0,0.0,0.0,0.0,0.0,0.0,2.1535,0.0,0.0,0.0,0.0,0.0,0.0,0.0,0.0,0.0,0.0,0.0,0.0,0.0,0.0,0.0,0.0,0.0,0.0,0.0,0.0,0.0,0.0,0.0,0.0,0.0,0.0,0.0,0.0,0.0,0.0,0.0,0.0,0.0,0.0,0.0,0.0,0.0,0.0,0.0,0.0,0.0,0.0,0.0,0.0,0.0,0.0,0.0,0.0,0.0,0.0,0.0,0.0,0.0,0.0,0.0,3.2992,3.6288,3.8919,4.0856,4.2265,4.2754,4.2187,4.0934,3.8649,0.0,0.0,0.0,0.0,0.0,0.0,0.0,0.0,0.0,0.0,0.0,0.0,0.0,0.0,0.0,0.0,0.0,0.0,0.0,0.0,0.0,0.0,0.0,0.0,0.0,0.0,0.0,0.0,0.0,0.0,0.0,0.0,0.0,0.0,0.0,0.0,0.0,0.0,0.0,0.0,2.4544,2.5646,2.6182,0.0,0.0,0.0,0.0,0.0,0.0,2.355,2.3198,0.0,0.0,0.0,0.0,0.0,0.0,0.0,0.0,0.0,0.0,0.0,0.0,0.0,0.0,0.0,0.0,0.0,0.0,0.0,0.0,0.0,0.0,0.0,0.0,0.0,0.0,0.0,0.0,0.0,0.0,0.0,0.0,0.0,0.0,0.0,0.0,0.0,0.0,0.0,0.0,0.0,0.0,0.0,0.0,0.0,0.0,0.0,0.0,0.0,0.0,0.0,0.0,0.0,0.0,0.0,3.3667,3.6934,3.9431,4.1103,4.2406,4.2783,4.2201,4.0793,3.8426,0.0,0.0,0.0,0.0,0.0,0.0,0.0,0.0,0.0,0.0,0.0,0.0,0.0,0.0,0.0,0.0,0.0,0.0,0.0,0.0,0.0,0.0,0.0,0.0,0.0,0.0,0.0,0.0,0.0,0.0,0.0,0.0,0.0,0.0,0.0,0.0,0.0,0.0,0.0,0.0,0.0,2.6945,2.7995,2.7315,0.0,0.0,0.0,0.0,2.5528,2.5291,0.0,0.0,0.0,0.0,0.0,0.0,0.0,0.0,0.0,0.0,0.0,0.0,0.0,0.0,0.0,0.0,0.0,0.0,0.0,0.0,0.0,0.0,0.0,0.0,0.0,0.0,0.0,0.0,0.0,0.0,0.0,0.0,0.0,0.0,0.0,0.0,0.0,0.0,0.0,0.0,0.0,0.0,0.0,0.0,0.0,0.0,0.0,0.0,0.0,0.0,0.0,0.0,0.0,0.0,0.0,0.0,3.4154,3.7371,3.978,4.1331,4.2632,4.2707,4.1557,3.9634,3.736,0.0,0.0,0.0,0.0,0.0,0.0,0.0,0.0,0.0,0.0,0.0,0.0,0.0,0.0,0.0,0.0,0.0,0.0,0.0,0.0,0.0,0.0,0.0,0.0,0.0,0.0,0.0,0.0,0.0,0.0,0.0,0.0,0.0,0.0,0.0,0.0,0.0,0.0,0.0,0.0,0.0,2.8639,2.9276,2.916,2.8814,0.0,0.0,2.8081,2.8081,2.7131,0.0,0.0,0.0,0.0,0.0,0.0,0.0,0.0,0.0,0.0,0.0,0.0,0.0,0.0,0.0,0.0,0.0,0.0,0.0,0.0,0.0,0.0,0.0,0.0,0.0,0.0,0.0,0.0,0.0,0.0,0.0,0.0,0.0,0.0,0.0,0.0,0.0,0.0,0.0,0.0,0.0,0.0,0.0,0.0,0.0,0.0,0.0,0.0,0.0,0.0,0.0,0.0,0.0,0.0,0.0,3.0922,3.4377,3.763,3.9979,4.1354,4.2656,4.2716,4.1452,3.9439,3.6985,0.0,0.0,0.0,0.0,0.0,0.0,0.0,0.0,0.0,0.0,0.0,0.0,0.0,0.0,0.0,0.0,0.0,0.0,0.0,0.0,0.0,0.0,0.0,0.0,0.0,0.0,0.0,0.0,0.0,0.0,0.0,0.0,0.0,0.0,0.0,0.0,0.0,0.0,0.0,0.0,0.0,0.0,3.0984,3.1087,0.0,0.0,0.0,3.0426,3.0031,0.0,0.0,0.0,0.0,0.0,0.0,0.0,0.0,0.0,0.0,0.0,0.0,0.0,0.0,0.0,0.0,0.0,0.0,0.0,0.0,0.0,0.0,0.0,0.0,0.0,0.0,0.0,0.0,0.0,0.0,0.0,0.0,0.0,0.0,0.0,0.0,0.0,0.0,0.0,0.0,0.0,0.0,0.0,0.0,0.0,0.0,0.0,0.0,0.0,0.0,0.0,0.0,0.0,0.0,0.0,0.0,0.0,3.4855,3.7893,4.0126,4.1505,4.2749,4.2794,4.155,3.9433,0.0,0.0,0.0,0.0,0.0,0.0,0.0,0.0,0.0,0.0,0.0,0.0,0.0,0.0,0.0,0.0,0.0,0.0,0.0,0.0,0.0,0.0,0.0,0.0,0.0,0.0,0.0,1.9699,0.0,0.0,0.0,0.0,0.0,0.0,0.0,0.0,0.0,0.0,0.0,0.0,0.0,0.0,3.0845,3.2139,3.2481,3.2586,0.0,0.0,3.2287,3.1783,3.1412,3.0555,0.0,0.0,0.0,0.0,0.0,0.0,0.0,0.0,0.0,0.0,0.0,0.0,0.0,0.0,0.0,0.0,0.0,0.0,0.0,0.0,0.0,0.0,0.0,0.0,0.0,0.0,0.0,0.0,0.0,0.0,0.0,0.0,0.0,0.0,0.0,0.0,0.0,0.0,0.0,0.0,0.0,0.0,0.0,0.0,0.0,0.0,0.0,0.0,0.0,0.0,0.0,0.0,0.0,0.0,0.0,3.582,3.8374,4.0447,4.1932,4.3074,4.3134,4.1962,3.9414,3.676,0.0,0.0,0.0,0.0,0.0,0.0,0.0,0.0,0.0,0.0,0.0,0.0,0.0,0.0,0.0,0.0,0.0,0.0,0.0,0.0,0.0,0.0,0.0,0.0,0.0,0.0,0.0,0.0,0.0,0.0,0.0,0.0,0.0,0.0,0.0,0.0,0.0,0.0,0.0,0.0,0.0,3.0972,3.2303,3.3005,3.3425,0.0,0.0,3.341,3.3365,3.2273,3.0962,2.9523,0.0,0.0,0.0,0.0,0.0,0.0,0.0,0.0,0.0,0.0,0.0,0.0,0.0,0.0,0.0,0.0,0.0,0.0,0.0,0.0,0.0,0.0,0.0,0.0,0.0,0.0,0.0,0.0,0.0,0.0,0.0,0.0,0.0,0.0,0.0,0.0,0.0,0.0,0.0,0.0,0.0,0.0,0.0,0.0,0.0,0.0,0.0,0.0,0.0,0.0,0.0,0.0,0.0,3.2776,3.6258,3.8867,4.0868,4.2291,4.3676,4.3745,4.2514,4.0274,3.7646,0.0,0.0,0.0,0.0,0.0,0.0,0.0,0.0,0.0,0.0,0.0,0.0,0.0,0.0,0.0,0.0,0.0,0.0,0.0,0.0,0.0,0.0,0.0,0.0,0.0,0.0,0.0,0.0,2.3004,2.3259,2.35,0.0,0.0,0.0,0.0,0.0,0.0,0.0,0.0,0.0,0.0,3.1836,3.3515,3.4307,0.0,0.0,3.4996,3.4726,3.4741,3.3619,3.2258,3.0901,2.9274,0.0,0.0,0.0,0.0,0.0,0.0,0.0,0.0,0.0,0.0,0.0,0.0,0.0,0.0,0.0,0.0,0.0,0.0,0.0,0.0,0.0,0.0,0.0,0.0,0.0,0.0,0.0,0.0,0.0,0.0,0.0,0.0,0.0,0.0,0.0,0.0,0.0,0.0,0.0,0.0,0.0,0.0,0.0,0.0,0.0,0.0,0.0,0.0,0.0,0.0,0.0,0.0,3.3457,3.6846,3.9455,4.1503,4.2965,4.4154,4.4252,4.3204,4.1051,3.8451,0.0,0.0,0.0,0.0,0.0,0.0,0.0,0.0,0.0,0.0,0.0,0.0,0.0,0.0,0.0,0.0,0.0,0.0,0.0,0.0,0.0,0.0,0.0,0.0,0.0,0.0,0.0,0.0,2.3705,2.3697,2.3917,0.0,0.0,0.0,0.0,0.0,0.0,0.0,0.0,0.0,0.0,3.2835,3.4467,3.5279,3.5849,3.6217,3.5854,3.5554,3.5504,3.4382,3.311,3.1974,0.0,0.0,0.0,0.0,0.0,0.0,0.0,0.0,0.0,0.0,0.0,0.0,0.0,0.0,0.0,0.0,0.0,0.0,0.0,0.0,0.0,0.0,0.0,0.0,0.0,0.0,0.0,0.0,0.0,0.0,2.8199,0.0,0.0,0.0,0.0,0.0,0.0,0.0,0.0,0.0,0.0,0.0,0.0,0.0,0.0,0.0,0.0,0.0,0.0,0.0,0.0,0.0,0.0,3.4573,3.7637,4.0167,4.2354,4.4092,4.4446,4.4462,4.4092,4.1454,3.9022,3.6886,0.0,0.0,0.0,0.0,0.0,0.0,0.0,0.0,0.0,0.0,0.0,0.0,0.0,0.0,0.0,0.0,0.0,0.0,0.0,0.0,0.0,0.0,0.0,0.0,0.0,0.0,2.4918,2.4735,2.4373,0.0,0.0,0.0,0.0,0.0,0.0,0.0,0.0,0.0,0.0,3.2148,3.3908,3.5064,3.5752,3.61,3.5812,3.575,3.5638,3.5537,3.4382,3.326,0.0,0.0,0.0,0.0,0.0,0.0,0.0,0.0,0.0,0.0,0.0,0.0,0.0,0.0,0.0,0.0,0.0,0.0,0.0,0.0,0.0,0.0,0.0,0.0,0.0,0.0,0.0,3.4526,3.3829,0.0,0.0,0.0,0.0,0.0,0.0,0.0,0.0,0.0,0.0,0.0,3.7334,3.6787,0.0,0.0,0.0,0.0,0.0,0.0,0.0,0.0,0.0,0.0,0.0,0.0,3.5251,3.8238,4.0645,4.2584,4.4106,4.4789,4.487,4.4332,4.2992,4.0515,3.689,0.0,0.0,0.0,0.0,0.0,0.0,0.0,0.0,0.0,0.0,0.0,0.0,0.0,0.0,0.0,0.0,0.0,0.0,0.0,0.0,0.0,0.0,0.0,0.0,0.0,2.5208,0.0,0.0,0.0,0.0,0.0,0.0,0.0,0.0,0.0,0.0,0.0,2.9501,3.1426,3.3038,3.4576,3.6103,3.6446,3.6599,0.0,0.0,0.0,0.0,0.0,0.0,0.0,0.0,0.0,0.0,0.0,0.0,0.0,0.0,2.8931,2.7495,2.7011,2.6683,2.6195,0.0,0.0,0.0,0.0,0.0,0.0,0.0,0.0,0.0,0.0,0.0,0.0,0.0,0.0,3.81,0.0,3.5643,0.0,0.0,0.0,0.0,0.0,0.0,0.0,0.0,3.7894,3.8949,4.0113,3.9557,3.9193,0.0,3.8068,3.5554,0.0,0.0,0.0,0.0,0.0,0.0,0.0,0.0,3.6135,3.8865,4.1107,4.296,4.4405,4.4964,4.5076,4.4658,4.3264,4.0895,3.7465,3.4355,3.2072,0.0,0.0,0.0,0.0,0.0,0.0,0.0,0.0,0.0,0.0,0.0,0.0,0.0,0.0,0.0,0.0,0.0,0.0,0.0,0.0,0.0,0.0,0.0,2.568,0.0,0.0,0.0,0.0,0.0,0.0,0.0,0.0,0.0,2.8517,2.9871,3.1634,3.359,3.4781,3.5959,3.7207,0.0,0.0,0.0,0.0,0.0,0.0,0.0,3.4761,3.4326,3.386,3.3394,3.296,3.308,3.323,3.323,0.0,0.0,2.9993,2.9294,2.9024,2.8569,2.8737,2.9079,2.9505,3.0134,3.0743,0.0,0.0,0.0,0.0,0.0,0.0,0.0,0.0,4.2634,4.2219,0.0,3.9305,0.0,0.0,0.0,0.0,0.0,3.7107,0.0,0.0,4.0448,4.1526,4.2223,4.2131,4.1691,4.097,4.0919,3.9746,3.7483,3.3682,0.0,0.0,0.0,0.0,0.0,0.0,3.7195,3.9537,4.1649,4.3523,4.5072,4.499,4.4973,4.5072,4.2406,4.0256,3.8707,3.6571,3.4711,3.3225,3.1716,0.0,0.0,0.0,0.0,0.0,0.0,0.0,0.0,0.0,0.0,0.0,0.0,0.0,0.0,0.0,0.0,0.0,0.0,0.0,0.0,2.6201,0.0,0.0,0.0,0.0,0.0,0.0,0.0,0.0,0.0,0.0,3.141,3.2636,3.4372,3.6441,0.0,0.0,0.0,0.0,3.9001,3.84,3.8044,3.7746,3.7425,3.6491,3.5795,3.578,0.0,0.0,3.5549,3.6073,3.6432,3.6525,3.6836,3.6193,3.2422,3.1648,3.15,3.1455,3.1383,3.1737,3.2831,3.3031,3.3331,4.701,0.0,0.0,0.0,0.0,4.381,4.4261,4.4461,4.4445,4.4328,4.3993,4.1832,0.0,0.0,0.0,0.0,0.0,0.0,4.0865,4.2132,4.3094,4.4226,4.5443,4.5414,4.4997,4.4288,4.3776,4.2628,4.0889,3.8689,3.5998,3.2877,0.0,0.0,0.0,0.0,3.8321,4.0546,4.2314,4.3698,4.4761,4.4721,4.4721,4.4778,4.34,4.195,4.0509,3.8839,3.7,3.4958,3.2984,0.0,0.0,0.0,0.0,0.0,0.0,0.0,0.0,0.0,0.0,0.0,0.0,0.0,0.0,0.0,0.0,0.0,0.0,0.0,2.7881,2.8024,2.8042,0.0,0.0,0.0,0.0,0.0,0.0,0.0,0.0,0.0,3.6291,3.5976,3.6154,0.0,0.0,3.8583,3.9649,3.9727,3.978,4.0016,0.0,0.0,0.0,3.8129,3.7665,3.758,3.7283,3.7015,3.6866,3.7015,3.715,3.715,3.7285,3.7015,3.6043,3.5322,3.4842,3.4454,3.4631,3.5049,3.5451,3.5803,3.6172,5.048,4.788,4.6585,4.6043,4.6098,4.6821,4.7124,4.7157,4.746,4.7258,4.6602,4.4988,4.4002,4.3468,4.2287,0.0,0.0,0.0,4.3443,4.4322,4.5111,4.5969,4.6752,4.6786,4.6566,4.6109,4.5382,4.4401,4.32,4.1999,3.991,3.7016,0.0,0.0,3.594,3.7752,3.9446,4.1066,4.2605,4.3792,4.4598,4.4598,4.4598,4.4581,4.3538,4.254,4.166,3.9918,3.8227,3.6563,3.4658,3.2797,0.0,0.0,0.0,0.0,0.0,0.0,0.0,0.0,0.0,0.0,0.0,2.4197,2.493,0.0,0.0,0.0,2.7724,2.8684,2.9194,2.9553,0.0,0.0,0.0,0.0,0.0,0.0,0.0,3.3696,3.5273,3.7,3.9024,3.8991,3.9026,3.9839,3.993,4.0213,4.0982,0.0,4.1217,4.1457,4.0991,4.049,4.0133,3.9596,3.9201,3.906,3.8869,3.8614,3.8337,3.8302,3.8282,3.8212,3.8177,3.8197,3.8212,3.7883,3.7345,3.6462,3.6567,3.6911,3.7165,3.7554,3.7868,5.3264,5.2317,5.0304,4.934,4.9238,4.9898,5.0168,5.0236,5.0913,5.0424,4.9137,4.8311,4.7175,4.5754,4.5106,0.0,4.4801,4.5466,4.5805,4.5906,4.6583,4.6921,4.6955,4.6972,4.6938,4.687,4.6143,4.5399,4.4682,4.3859,4.2767,4.1356,3.936,3.7939,3.7303,3.9242,4.062,4.1364,4.2794,4.3876,4.4598,4.4598,4.4598,4.4581,4.3176,4.2371,4.2236,4.029,3.8785,3.7905,3.6479,3.4675,3.2429,0.0,0.0,0.0,0.0,0.0,0.0,0.0,0.0,0.0,0.0,0.0,0.0,0.0,0.0,0.0,2.9747,0.0,3.0427,3.1055,0.0,0.0,0.0,3.2087,3.3419,3.3694,3.459,3.6728,0.0,0.0,4.0282,0.0,4.2388,4.2472,4.2371,4.2267,4.2217,4.2635,4.2924,4.2671,4.2246,4.1841,4.1505,4.0881,4.0374,4.0262,4.0235,4.005,3.9697,3.9621,3.9595,3.932,3.9373,3.9343,3.9373,3.9305,3.905,3.7778,3.7599,3.7764,3.8287,3.8452,3.8646,5.5243,5.4008,5.3484,5.2266,5.071,5.0879,5.0947,5.0931,5.1133,5.0982,5.0608,4.9306,4.7919,4.6532,4.6346,4.6261,4.6278,4.6447,4.6836,4.7365,4.7551,4.7936,4.8477,4.8477,4.8189,4.7631,4.6904,4.616,4.5432,4.4671,4.3826,4.2895,4.2354,4.1457,4.024,4.1238,4.2151,4.2895,4.3826,4.4384,4.4598,4.4598,4.4598,4.4598,4.3639,4.2878,4.2286,4.1255,3.9817,3.8007,3.7009,3.5238,3.2446,3.1427,0.0,0.0,0.0,0.0,0.0,0.0,0.0,0.0,0.0,2.6961,2.8295,0.0,2.9007,0.0,3.1004,3.2242,3.3339,3.3609,0.0,0.0,3.4551,3.4687,3.5025,3.6113,3.7263,3.8345,3.9766,4.117,4.2472,4.2902,4.3386,4.3955,4.3058,4.2489,4.301,4.3109,4.3334,4.3707,4.3548,4.3224,4.2848,4.2202,4.1514,4.1125,4.0851,4.0489,4.0016,3.9803,3.9625,3.946,3.9388,3.9388,3.9388,3.9388,3.9298,3.897,3.8945,3.899,3.9104,3.9134,3.9215,5.6308,5.5513,5.4854,5.3856,5.2689,5.2384,5.2249,5.2249,5.2199,5.2029,5.1623,5.0507,4.9526,4.8781,4.8765,4.8765,4.8731,4.8409,4.8477,4.8849,4.8562,4.8612,4.9001,4.9018,4.8781,4.8376,4.731,4.6583,4.6143,4.5122,4.435,4.3944,4.3927,4.3521,4.2743,4.276,4.2997,4.3392,4.4181,4.4598,4.4598,4.4598,4.4598,4.4564,4.3504,4.2726,4.233,4.0967,3.9512,3.799,3.7178,3.5729,3.3427,3.2577,3.1326,0.0,0.0,0.0,0.0,0.0,0.0,0.0,0.0,0.0,0.0,0.0,3.0903,3.1968,3.3427,3.4629,3.5458,3.5808,3.6299,3.7043,3.711,3.7364,3.8017,3.887,3.9665,4.0392,4.1474,4.2479,4.3291,4.3724,4.4079,4.4547,4.387,4.3498,4.3826,4.3861,4.3985,4.4373,4.4196,4.3889,4.3552,4.2959,4.2381,4.1851,4.1489,4.107,4.047,4.0106,3.9859,3.9589,3.9445,3.9388,3.9388,3.9388,3.9388,3.9388,3.9388,3.9388,3.9388,3.9388,3.9388,5.6884,5.6681,5.5395,5.4769,5.4532,5.3923,5.3602,5.3518,5.3518,5.3061,5.2266,5.164,5.1302,5.1234,5.1234,5.1234,5.1151,5.0524,5.0185,5.005,4.9441,4.9103,4.9018,4.9018,4.9018,4.8951,4.7597,4.6887,4.6752,4.5399,4.4716,4.4598,4.4598,4.4598,4.4564,4.3893,4.3572,4.3572,4.4231,4.4598,4.4598,4.4598,4.4598,4.453,4.3125,4.2303,4.2252,4.0257,3.8802,3.8075,3.7455,3.6389,3.49,3.4184,3.322,0.0,3.0987,0.0,0.0,0.0,0.0,0.0,0.0,0.0,0.0,3.2395,3.3444,3.481,3.6237,3.7168,3.7337,3.7939,3.8616,3.9326,3.9411,3.9918,4.117,4.1424,4.1745,4.2354,4.3098,4.3544,4.3606,4.4164,4.4598,4.4598,4.4547,4.4479,4.4581,4.4519,4.4519,4.4598,4.444,4.4121,4.3772,4.3416,4.2974,4.2491,4.2077,4.1686,4.0935,4.0459,4.0091,3.9753,3.9517,3.9388,3.9388,3.9388,3.9388,3.9388,3.9388,3.9388,3.9388,3.9388,3.9388,5.734,5.6782,5.6494,5.57,5.4583,5.4448,5.4042,5.3518,5.3518,5.3044,5.23,5.2164,5.1775,5.1251,5.1234,5.1234,5.1168,5.1082,5.0693,5.0067,4.9949,4.956,4.9035,4.9018,4.9018,4.8951,4.8122,4.7378,4.6786,4.5923,4.5179,4.4615,4.4598,4.4598,4.4598,0.0,0.0,0.0,4.4547,4.4598,4.4598,4.4598,4.4598,4.4564,4.3108,0.0,4.2236,4.0756,3.9554,3.8836,3.865,0.0,0.0,0.0,0.0,0.0,0.0,0.0,0.0,0.0,0.0,0.0,3.5233,3.5069,3.4015,3.5154,3.6321,3.7195,3.8058,3.9073,4.0257,4.0493,4.0865,4.1559,4.166,4.1796,4.2083,4.2608,4.3081,4.3156,4.3876,4.4378,4.4333,4.453,4.4598,4.4598,4.4598,4.4598,4.4598,4.4598,4.4598,4.457,4.444,4.4281,4.4179,4.3789,4.3386,4.2958,4.2444,4.1851,4.1205,4.0578,4.0076,3.9768,3.9532,3.9388,3.9388,3.9388,3.9388,3.9388,3.9388,3.9388,3.9388,3.9388,3.9388,5.7679,0.0,5.6951,5.6359,0.0,5.4905,5.438,5.4025,5.3653,5.3281,5.2892,5.2892,5.2689,5.235,5.235,5.235,5.2334,5.1944,5.1539,5.115,5.0422,4.9898,4.9526,4.9171,4.9018,4.8984,4.8244,4.753,4.6786,4.6058,4.5314,4.4598,4.4598,4.4598,4.4598,4.4598,4.4598,4.4598,4.4598,4.4598,4.4598,4.4598,4.4598,4.4564,0.0,0.0,0.0,0.0,0.0,0.0,0.0,0.0,0.0,0.0,0.0,3.6248,3.5487,3.5402,3.6113,3.5825,3.6113,3.7212,3.8328,3.8311,3.684,3.8108,3.9123,3.9512,4.0189,4.0916,4.1644,4.1745,4.2049,4.2726,4.2844,4.298,4.3396,4.3758,4.3978,4.4012,4.4361,4.4598,4.4598,4.4598,4.4598,4.4598,4.4598,4.4598,4.4598,4.4598,4.4598,4.4598,4.4525,4.444,4.4412,4.4109,4.373,4.3369,4.2789,4.211,4.1456,4.0783,4.0246,3.991,3.9604,3.9424,3.9388,3.9388,3.9388,3.9388,3.9388,3.9388,3.9388,3.9388,3.9388,5.7881,5.7831,5.7256,5.69,5.6714,5.5497,5.4837,5.4532,0.0,0.0,0.0,5.3518,5.3518,5.3518,5.3518,5.3518,5.3467,5.2807,5.2435,5.2249,5.0896,5.0219,5.0067,4.934,4.9018,4.8984,4.8392,4.7665,4.6802,4.6177,4.5449,4.4682,4.4598,4.4598,4.4598,4.4598,4.4598,4.4598,4.4598,4.4598,4.4598,4.4598,4.4598,4.4598,4.3217,4.2489,4.2455,4.0612,3.9605,3.9563,3.9005,3.8684,3.8684,3.8684,3.8413,3.7845,3.7658,3.7642,3.7777,3.821,3.8802,3.9512,4.0832,4.1035,3.9681,4.0679,4.1457,4.1593,4.2151,4.254,4.2692,4.2692,4.2946,4.3572,4.3623,4.3876,4.4451,4.4598,4.4564,4.4598,4.4581,4.4598,4.4598,4.4598,4.4598,4.4598,4.4598,4.4598,4.4598,4.4598,4.4598,4.4598,4.457,4.457,4.4542,4.4327,4.4023,4.3638,4.3096,4.2459,4.1721,4.1005,4.0424,3.9823,3.9495,3.9191,3.908,3.8975,3.9029,3.9065,3.9065,3.9065,3.9065,3.905,3.9059,5.7881,5.7865,5.778,5.7374,5.6782,5.6579,5.5767,5.4549,5.3805,5.3518,5.3518,5.3518,5.3518,5.3518,5.3518,5.3518,5.3501,5.3399,5.2959,0.0,5.1437,5.071,5.0067,4.934,4.9018,4.9001,4.8883,4.8139,4.6921,4.6684,4.5969,4.4767,4.4598,4.4598,4.4598,4.4598,4.4598,4.4598,4.4598,4.4598,4.4598,4.4598,4.4598,4.4564,4.3724,4.324,4.3206,4.232,4.183,4.183,4.1728,4.1677,4.1677,4.161,4.1627,4.1491,4.0916,4.0865,4.1441,4.1035,4.1052,4.1779,4.2625,4.2743,4.1931,4.2016,4.2405,4.2987,4.3172,4.3538,4.4175,4.4225,4.4225,4.4378,4.4401,4.4496,4.4598,4.4598,4.4598,4.4598,4.4598,4.4598,4.4598,4.4598,4.4598,4.4598,4.4598,4.4598,4.4598,4.4598,4.4598,4.4598,4.4598,4.4598,4.457,4.4423,4.4105,4.3814,4.3306,4.2596,4.1693,4.1019,4.0238,3.9295,3.8822,3.8382,3.7913,3.7689,3.7808,3.7853,3.7853,3.7823,3.7853,3.7823,3.8073,5.7881,5.7881,5.7881,5.7695,5.734,5.6545,5.5598,5.4549,5.3822,5.3518,5.3518,5.3518,5.3518,5.3518,5.3518,5.3518,5.3518,5.3518,5.3315,5.2909,5.2164,5.142,5.0676,4.9932,4.939,4.9035,4.9018,4.8443,4.7445,4.7005,4.6244,4.5213,4.4818,4.4598,4.4598,4.4598,4.4598,4.4598,4.4598,4.4598,4.4598,4.4598,4.4598,4.4598,4.3809,4.3403,4.3403,4.2692,4.2303,4.2303,4.2303,4.2303,4.2303,4.2303,4.2472,4.2861,4.2591,4.2929,4.4062,4.3842,4.3606,4.3582,4.3842,4.391,4.3599,4.3538,4.3673,4.4012,4.4045,4.4181,4.4581,4.4598,4.4598,4.4598,4.4598,4.4598,4.4598,4.4598,4.4598,4.4598,4.4598,4.4598,4.4598,4.4598,4.4598,4.4598,4.4598,4.4598,4.4598,4.4598,4.4598,4.4598,4.4598,4.4598,4.4587,4.444,4.4028,4.3377,4.2838,4.2024,4.0928,4.0112,3.9411,3.861,3.8159,3.7783,3.7419,3.7404,3.7404,3.7404,3.7404,3.7404,3.7404,3.7404,3.7644,5.7881,5.7881,5.7881,5.7881,5.7763,5.6494,5.553,5.4786,5.4093,5.367,5.3518,5.3518,5.3518,5.3518,5.3518,5.3518,5.3518,5.3518,5.3501,5.3416,5.2689,5.1911,5.1183,5.0456,4.9712,4.9086,4.9018,4.8629,4.7889,4.7327,4.6583,4.5737,4.5128,4.4739,4.4598,4.4598,4.4598,4.4598,4.4598,4.4598,4.4598,4.4598,4.4598,4.4564,4.4012,4.369,4.3656,4.3132,4.2811,4.2811,4.2821,4.2878,4.3047,4.3047,4.3386,4.4062,4.4181,4.4604,4.5568,4.5703,4.5382,4.4666,4.4598,4.4598,4.4598,4.4598,4.4598,4.4598,4.4564,4.4581,4.4598,4.4598,4.4598,4.4598,4.4598,4.4598,4.4598,4.4598,4.4598,4.4598,4.4598,4.4598,4.4598,4.4598,4.4598,4.4598,4.4598,4.4598,4.4598,4.4598,4.4598,4.4598,4.4598,4.4598,4.457,4.4255,4.3737,4.2917,4.2253,4.1339,4.016,3.9235,3.8452,3.7925,3.7447,3.7124,3.7015,3.6941,3.6896,3.6802,3.6787,3.6896,3.6866,3.6866,3.712,5.7881,5.7881,5.7881,5.7881,5.7797,5.7019,5.6258,5.5547,5.482,5.411,5.3534,5.3518,5.3518,5.3518,5.3518,5.3518,5.3518,5.3518,5.3518,5.3416,5.2672,5.1911,5.1202,5.0456,4.9712,4.9103,4.9018,4.8646,4.7973,4.7821,4.7073,4.5855,4.5635,4.5246,4.4699,4.4598,4.4598,4.4598,4.4598,4.4598,4.4598,4.4598,4.4598,4.4598,4.453,4.4496,4.4445,4.4429,4.4378,4.4395,4.4344,4.4682,4.5229,4.5365,4.5686,4.6346,4.6447,4.6295,4.5788,4.5703,4.5399,4.4699,4.4632,4.4649,4.4632,4.4632,4.4615,4.4666,4.4632,4.4598,4.4598,4.4598,4.4598,4.4598,4.4598,4.4598,4.4598,4.4598,4.4598,4.4598,4.4598,4.4598,4.4598,4.4598,4.4598,4.4598,4.4598,4.4598,4.4598,4.4598,4.4598,4.4598,4.4598,4.4598,4.4502,4.3833,4.3295,4.2897,4.1881,4.0798,3.9852,3.9031,3.8375,3.7273,3.6785,3.642,3.5998,3.5684,3.5774,3.5953,3.5908,3.5744,3.5699,3.5789,3.6163,5.7881,5.7881,5.7881,5.7881,5.778,5.712,5.6393,5.5666,5.4921,5.4177,5.3551,5.3518,5.3518,5.3518,5.3518,5.3518,5.3518,5.3518,5.3518,5.3484,5.3145,5.2621,5.1843,5.1099,5.0371,4.9644,4.9221,4.8818,4.8545,4.8139,4.7348,4.6397,4.5923,4.5551,4.5229,4.4807,4.4598,4.4598,4.4598,4.4598,4.4598,4.4598,4.4598,4.4598,4.4598,4.4598,4.4598,4.4598,4.4598,4.4598,4.4598,4.475,4.5026,4.5466,4.6024,4.6769,4.7631,4.7581,4.643,4.6346,4.5821,4.4699,4.4993,4.5246,4.528,4.5635,4.5889,4.5788,4.5122,4.4598,4.4632,4.4598,4.4598,4.4598,4.4598,4.4598,4.4598,4.4598,4.4598,4.4598,4.4598,4.4598,4.4598,4.4598,4.4598,4.4598,4.4598,4.4598,4.4598,4.4598,4.4598,4.4598,4.4598,4.4598,4.4519,4.3816,4.306,4.2245,4.1175,4.0107,3.888,3.8026,3.7248,3.651,3.62,3.5911,3.5639,3.5504,3.5489,3.5489,3.5489,3.5489,3.5489,3.5489,3.5804,5.7881,5.7881,5.7881,5.7881,5.7831,5.7323,5.6562,5.5664,5.5141,5.438,5.3551,5.3518,5.3518,5.3518,5.3518,5.3518,5.3518,5.3518,5.3518,5.3518,5.3518,5.3078,5.23,5.1775,5.1014,5.0135,4.9576,4.9204,4.8984,4.8511,4.7834,4.7124,4.6566,4.621,4.5957,4.5263,4.4919,4.4874,4.4733,4.4598,4.4598,4.4598,4.4598,4.4598,4.4598,4.4598,4.4598,4.4598,4.4598,4.4598,4.4598,4.4699,4.4891,4.5415,4.6126,4.7056,4.8088,4.8257,4.7158,4.7107,4.6549,4.5432,4.572,4.6007,4.6109,4.6498,4.6752,4.6684,4.5816,4.5258,4.5224,4.5207,4.5207,4.5224,4.5072,4.4891,4.4936,4.4784,4.4598,4.4598,4.4598,4.4598,4.4598,4.4598,4.4598,4.4598,4.4598,4.4598,4.4598,4.4598,4.4598,4.4598,4.4598,4.4598,4.4519,4.376,4.2808,4.1766,4.0666,3.9262,3.7889,3.709,3.6476,3.6123,3.5729,3.5537,3.5504,3.5504,3.5489,3.5489,3.5489,3.5489,3.5489,3.5489,3.5489,5.7881,5.7881,5.7881,5.7881,5.7865,5.7797,5.7002,5.5681,5.5615,5.482,5.3602,5.3518,5.3518,5.3518,5.3518,5.3518,5.3518,5.3518,5.3518,5.3518,5.3518,5.3078,5.235,5.2249,5.1488,5.0253,5.0016,4.9644,4.9018,4.8951,4.8595,4.7872,4.7703,4.7411,4.6752,4.6024,4.5652,4.5602,4.5021,4.4632,4.4615,4.4615,4.4598,4.4598,4.4598,4.4598,4.4598,4.4598,4.4598,4.4598,4.4598,4.4891,4.5534,4.5686,4.638,4.7601,4.7953,4.7956,4.7868,4.7787,4.7445,4.6786,4.665,4.6735,4.6752,4.6921,4.7005,4.6853,4.6819,4.6701,4.6684,4.6498,4.6498,4.6481,4.6007,4.5703,4.5652,4.5089,4.4666,4.4649,4.4632,4.4598,4.4598,4.4598,4.4598,4.4598,4.4598,4.4598,4.4598,4.4598,4.4598,4.4598,4.4598,4.4598,4.4502,4.3715,4.2741,4.1798,4.0537,3.8942,3.781,3.6815,3.629,3.5831,3.5636,3.5537,3.5489,3.5489,3.5489,3.5489,3.5489,3.5489,3.5489,3.5489,3.5489,5.7881,5.7881,5.7881,5.7881,5.7831,5.7391,5.6613,5.5647,5.5209,5.4448,5.3619,5.3518,5.3518,5.3518,5.3518,5.3518,5.3518,5.3518,5.3518,5.3518,5.3518,5.3348,5.3061,5.2553,5.1792,5.0879,5.0304,4.9712,4.9086,4.9018,4.8883,4.8578,4.8139,4.7736,4.7428,4.6769,4.6397,4.6312,4.5669,4.5297,4.5246,4.4852,4.4598,4.4598,4.4598,4.4598,4.4598,4.4598,4.4598,4.4598,4.4598,4.4733,4.5072,4.5889,4.6853,4.7787,4.8359,4.8409,4.7973,4.7906,4.7597,4.6938,4.7259,4.7513,4.7597,4.7919,4.8206,4.8189,4.8189,4.8206,4.802,4.7378,4.6786,4.6752,4.6566,4.6397,4.6261,4.5754,4.5297,4.5229,4.4953,4.4598,4.4598,4.4598,4.4598,4.4598,4.4598,4.4598,4.4598,4.4598,4.4598,4.4598,4.4598,4.4598,4.4598,4.3687,4.2707,4.1872,4.0733,3.9315,3.8052,3.6956,3.627,3.592,3.5694,3.5489,3.5489,3.5489,3.5489,3.5489,3.5489,3.5489,3.5489,3.5489,3.5489,5.7323,5.7526,5.7543,5.7679,5.7797,5.712,5.6393,5.5631,5.4921,5.4194,5.3602,5.3518,5.3518,5.3518,5.3518,5.3518,5.3518,5.3518,5.3518,5.3518,5.3518,5.3518,5.3416,5.2942,5.23,5.1488,5.0541,4.9729,4.9069,4.9018,4.9018,4.8951,4.8494,4.8244,4.8125,4.753,4.7158,4.7022,4.643,4.6058,4.5991,4.5568,4.5297,4.5326,4.5326,4.5055,4.4649,4.4598,4.4598,4.4598,4.4598,4.4716,4.5026,4.5889,4.6904,4.7787,4.8376,4.8562,4.8342,4.8257,4.8071,4.7597,4.7953,4.8274,4.8277,4.8731,4.8968,4.9018,4.9018,4.9018,4.8832,4.8088,4.7513,4.7462,4.731,4.7158,4.7124,4.6498,4.5991,4.5652,4.528,4.4908,4.4649,4.4598,4.4598,4.4598,4.4598,4.4598,4.4598,4.4598,4.4598,4.4598,4.4598,4.4598,4.457,4.3968,4.3205,4.2368,4.1429,3.9969,3.8603,3.7421,3.6499,3.6133,3.5802,3.5614,3.5489,3.5489,3.5489,3.5489,3.5489,3.5489,3.5489,3.5489,3.5489,5.6173,5.6765,5.6799,5.7171,5.7526,5.69,5.6308,5.5547,5.4854,5.411,5.3551,5.3518,5.3518,5.3518,5.3518,5.3518,5.3518,5.3518,5.3518,5.3518,5.3518,5.3518,5.3501,5.3416,5.2959,5.2147,5.0777,4.9746,4.9137,4.9052,4.9018,4.9001,4.8968,4.8866,4.8968,4.8257,4.7936,4.7767,4.7192,4.6802,4.6802,4.6667,4.6583,4.6633,4.6616,4.6024,4.4784,4.4733,4.4801,4.4767,4.475,4.5004,4.5618,4.5923,4.6452,4.7652,4.7939,4.8325,4.8866,4.8917,4.8883,4.8765,4.8934,4.89,4.8883,4.8968,4.9018,4.9018,4.9018,4.9018,4.9018,4.8866,4.8781,4.89,4.8274,4.7919,4.7784,4.7259,4.6532,4.5974,4.572,4.5399,4.4902,4.4852,4.4936,4.4919,4.4801,4.475,4.475,4.4699,4.4598,4.4598,4.4598,4.4598,4.4542,4.439,4.3709,4.3006,4.2055,4.0863,3.9595,3.8387,3.7408,3.6882,3.6099,3.5866,3.5504,3.5489,3.5489,3.5489,3.5489,3.5519,3.5489,3.5489,3.5489,5.5817,5.6055,5.6055,5.6173,5.6292,5.5598,5.5124,5.4871,5.416,5.3704,5.3534,5.3518,5.3518,5.3518,5.3518,5.3518,5.3518,5.3518,5.3518,5.3518,5.3518,5.3518,5.3518,5.3518,5.3078,5.2181,5.0811,4.9982,4.9712,4.9255,4.9018,4.9018,4.9018,4.9018,4.9001,4.8765,4.8663,4.8578,4.7936,4.7564,4.7513,4.7073,4.6802,4.6786,4.6786,4.6532,4.6172,4.6109,4.6109,4.6104,4.6109,4.621,4.6481,4.6955,4.7415,4.7855,4.8409,4.8731,4.8934,4.9018,4.9018,4.9018,4.9018,4.9018,4.9018,4.9018,4.9018,4.9018,4.9018,4.9018,4.9018,4.9018,4.9018,4.9001,4.8798,4.8629,4.8528,4.8003,4.7276,4.6633,4.6464,4.6329,4.6143,4.6041,4.5957,4.5923,4.5635,4.5348,4.5297,4.4925,4.4615,4.4598,4.4598,4.4615,4.4542,4.4497,4.4136,4.3516,4.2657,4.1849,4.0592,3.9344,3.8405,3.7448,3.6661,3.6151,3.5774,3.5654,3.5744,3.5639,3.5684,3.5624,3.5534,3.5609,3.5804,5.5057,5.5294,5.5294,5.548,5.558,5.4905,5.4583,5.4482,5.3822,5.3518,5.3518,5.3518,5.3518,5.3518,5.3518,5.3518,5.3518,5.3518,5.3518,5.3518,5.3518,5.3518,5.3518,5.3518,5.3095,5.23,5.1369,5.076,5.0473,4.9779,4.9407,4.9407,4.9137,4.9018,4.9018,4.9018,4.9018,4.8934,4.8545,4.8325,4.824,4.7851,4.7614,4.7614,4.7614,4.7614,4.7614,4.7614,4.7344,4.6904,4.6786,4.6904,4.7192,4.7648,4.799,4.8376,4.8697,4.9001,4.9018,4.9018,4.9018,4.9018,4.9018,4.9018,4.9018,4.9018,4.9018,4.9018,4.9018,4.9018,4.9018,4.9018,4.9018,4.9018,4.8984,4.9018,4.8934,4.8612,4.802,4.7445,4.7208,4.709,4.687,4.6786,4.6786,4.6701,4.6397,4.6109,4.5957,4.5483,4.5179,4.4891,4.475,4.4716,4.4615,4.4542,4.4514,4.3954,4.3285,4.2561,4.1593,4.0277,3.9177,3.7986,3.7076,3.6885,3.6537,3.6462,3.6462,3.6222,3.6088,3.6327,3.6477,3.6417,3.6477,5.3923,5.4499,5.4532,5.4888,5.5361,5.4752,5.4431,5.438,5.3805,5.3518,5.3518,5.3518,5.3518,5.3518,5.3518,5.3518,5.3518,5.3518,5.3518,5.3518,5.3518,5.3518,5.3518,5.3518,5.3145,5.2536,5.2249,5.1843,5.1251,5.0524,5.0135,5.0084,4.9509,4.9103,4.9154,4.9069,4.9018,4.9001,4.8951,4.8917,4.8917,4.8917,4.8883,4.8866,4.8832,4.8832,4.8781,4.8748,4.8257,4.7141,4.709,4.7411,4.7804,4.7939,4.8359,4.8866,4.8984,4.9001,4.9018,4.9154,4.9171,4.9187,4.9306,4.9137,4.934,4.9424,4.9424,4.939,4.934,4.9289,4.9289,4.9306,4.9272,4.9103,4.9069,4.9018,4.9018,4.8951,4.8578,4.8139,4.7953,4.7767,4.7208,4.7107,4.7107,4.7056,4.6989,4.687,4.6718,4.6329,4.5889,4.5568,4.5263,4.501,4.4976,4.4587,4.4559,4.4305,4.3718,4.3125,4.2311,4.1039,3.974,3.8574,3.7706,3.7548,3.7285,3.7075,3.703,3.6956,3.7045,3.7345,3.73,3.709,3.6985,5.3619,5.3788,5.3788,5.3907,5.4059,5.3856,5.3805,5.3788,5.3619,5.3518,5.3518,5.3518,5.3518,5.3518,5.3518,5.3518,5.3518,5.3534,5.3518,5.3518,5.3518,5.3518,5.3518,5.3518,5.3399,5.3112,5.2621,5.2215,5.1961,5.1268,5.093,5.0879,5.0168,4.9796,4.9763,4.9272,4.9018,4.9018,4.9018,4.9018,4.9018,4.9018,4.9018,4.9018,4.9018,4.9018,4.9018,4.9018,4.8883,4.8494,4.8426,4.8477,4.8629,4.868,4.8798,4.9001,4.9035,4.9035,4.9154,4.9526,4.9779,4.9864,5.0219,5.0625,5.0625,5.0625,5.0642,5.0642,5.0642,5.0591,5.0608,5.0543,5.0355,4.9847,4.9441,4.9103,4.9018,4.9001,4.89,4.8748,4.8697,4.8511,4.8376,4.8291,4.8308,4.8223,4.7936,4.7614,4.7479,4.7022,4.6515,4.6295,4.5991,4.5652,4.5314,4.4886,4.4604,4.4514,4.4088,4.3588,4.266,4.1483,4.022,3.9006,3.8436,3.8138,3.7689,3.7295,3.7385,3.7704,3.7594,3.7699,3.7539,3.7345,3.7375,5.3518,5.3518,5.3518,5.3518,5.3518,5.3518,5.3518,5.3518,5.3518,5.3518,5.3518,5.3518,5.3518,5.3534,5.3822,5.3771,5.3568,5.3822,5.3805,5.3518,5.3518,5.3518,5.3518,5.3518,5.3518,5.3467,5.3044,5.2841,5.2672,5.2029,5.1691,5.1522,5.093,5.0422,5.005,4.9712,4.9289,4.9069,4.9018,4.9018,4.9018,4.9018,4.9018,4.9018,4.9018,4.9018,4.9018,4.9018,4.9001,4.8984,4.9001,4.9018,4.9018,4.9018,4.9137,4.939,4.9458,4.9593,4.9949,5.0355,5.0541,5.0625,5.1031,5.1166,5.1183,5.1234,5.1234,5.1134,5.1217,5.1234,5.1234,5.1234,5.1014,5.0625,5.0185,4.9678,4.912,4.9018,4.9018,4.9018,4.9018,4.9018,4.9018,4.9018,4.9018,4.8917,4.8595,4.8443,4.8291,4.7682,4.7225,4.7056,4.6718,4.6312,4.6126,4.5771,4.524,4.5076,4.4144,4.3681,4.2776,4.1718,4.0619,3.9538,3.9109,3.8691,3.8302,3.8073,3.8377,3.8497,3.8272,3.8162,3.8153,3.7958,3.7958,5.3518,5.3518,5.3518,5.3518,5.3518,5.3518,5.3518,5.3518,5.3518,5.3518,5.3534,5.3585,5.3721,5.3653,5.4397,5.438,5.3856,5.4465,5.4194,5.389,5.3687,5.367,5.3518,5.3518,5.3518,5.3484,5.3501,5.345,5.323,5.2689,5.2452,5.2249,5.1691,5.1031,5.0625,5.0321,4.9847,4.9509,4.9492,4.9509,4.9509,4.9509,4.9543,4.9526,4.9509,4.9492,4.9441,4.9357,4.9357,4.9289,4.9171,4.9255,4.9255,4.9289,4.956,5.0067,5.0236,5.0473,5.1048,5.1166,5.1336,5.1352,5.1437,5.1454,5.164,5.1725,5.1708,5.1758,5.1488,5.1657,5.1657,5.1555,5.1505,5.1386,5.1285,5.0642,4.9627,4.9171,4.912,4.9086,4.9103,4.9018,4.9018,4.9018,4.9018,4.9018,4.8849,4.8798,4.868,4.8325,4.8054,4.7986,4.753,4.6972,4.6853,4.6752,4.619,4.5685,4.4298,4.3471,4.2639,4.1643,4.0758,3.9945,3.9405,3.9176,3.9104,3.9119,3.923,3.9185,3.885,3.9044,3.9239,3.891,3.8775,5.3518,5.3518,5.3518,5.3518,5.3518,5.3518,5.3518,5.3518,5.3518,5.3518,5.3636,5.4076,5.4313,5.4363,5.5074,5.5361,5.5107,5.5294,5.5074,5.4431,5.4346,5.3991,5.3653,5.3518,5.3518,5.3518,5.3518,5.3518,5.3416,5.3315,5.3247,5.3095,5.2452,5.1995,5.1725,5.1166,5.093,5.0744,5.0693,5.0625,5.0591,5.0608,5.0608,5.0608,5.0642,5.0693,5.0712,5.0712,5.0744,5.0608,5.0253,5.0152,5.049,5.0625,5.0727,5.0879,5.0963,5.1065,5.1302,5.1792,5.2063,5.2114,5.252,5.3027,5.3027,5.2926,5.2942,5.301,5.301,5.2858,5.2824,5.2959,5.2638,5.2215,5.2046,5.1758,5.0896,5.0202,4.9898,4.9729,4.9373,4.9018,4.9018,4.9018,4.9018,4.9018,4.9018,4.9018,4.8917,4.8781,4.868,4.8528,4.8189,4.7665,4.7564,4.7335,4.6759,4.6099,4.4826,4.3602,4.2796,4.1807,4.0994,4.0299,3.9646,3.9532,3.9424,3.9388,3.9298,3.9358,3.9388,3.9388,3.9388,3.9388,3.9373,5.3518,5.3518,5.3518,5.3518,5.3518,5.3518,5.3518,5.3518,5.3518,5.3518,5.367,5.4279,5.4583,5.4702,5.5666,5.6089,5.5732,5.5681,5.5513,5.5074,5.4786,5.4363,5.4008,5.367,5.3518,5.3518,5.3518,5.3518,5.3518,5.3518,5.3467,5.3501,5.3044,5.2621,5.235,5.1928,5.1522,5.1217,5.1234,5.1234,5.1234,5.1234,5.1234,5.1234,5.1234,5.1234,5.1151,5.1168,5.1354,5.1522,5.1336,5.1099,5.1166,5.1251,5.1354,5.1674,5.1725,5.1961,5.23,5.2621,5.2875,5.2841,5.3281,5.3416,5.3518,5.3518,5.3518,5.3518,5.3484,5.3501,5.3518,5.3484,5.3213,5.3027,5.2858,5.2672,5.2215,5.1319,5.0439,5.0168,4.9746,4.9373,4.9187,4.9086,4.9018,4.9018,4.9018,4.9018,4.9018,4.8917,4.8934,4.8815,4.8629,4.8392,4.8274,4.7896,4.7211,4.6438,4.5445,4.4334,4.3379,4.2347,4.134,4.0573,3.9811,3.9511,3.9388,3.9388,3.9388,3.9388,3.9388,3.9388,3.9388,3.9388,3.9388,5.3518,5.3518,5.3518,5.3518,5.3518,5.3518,5.3518,5.3518,5.3518,5.3518,5.3704,5.4363,5.4871,5.5091,5.6342,5.6545,5.6258,5.6122,5.6156,5.5818,5.5395,5.4905,5.4499,5.4025,5.3653,5.3551,5.3518,5.3518,5.3518,5.3518,5.3518,5.3501,5.3501,5.3145,5.2621,5.2469,5.2283,5.1877,5.1826,5.1792,5.1758,5.1758,5.1758,5.1775,5.1792,5.1792,5.1777,5.176,5.1911,5.2418,5.2469,5.2147,5.1758,5.1606,5.176,5.2469,5.2486,5.2723,5.3095,5.3382,5.3433,5.3518,5.3501,5.3501,5.3518,5.3518,5.3518,5.3518,5.3518,5.3518,5.3518,5.3518,5.3518,5.345,5.3484,5.3518,5.3281,5.23,5.1454,5.0676,5.0202,4.9712,4.9373,4.9187,4.9086,4.9018,4.9018,4.9018,4.9018,4.9018,4.9018,4.9018,4.8832,4.8748,4.8646,4.8456,4.7751,4.7012,4.609,4.5096,4.4063,4.2942,4.1873,4.071,4.0034,3.9757,3.9514,3.9388,3.9388,3.9388,3.9388,3.9388,3.9388,3.9388,3.9433,5.3518,5.3518,5.3518,5.3518,5.3518,5.3518,5.3518,5.3518,5.3518,5.3518,5.3687,5.4888,5.5463,5.5869,5.7036,5.756,5.734,5.7256,5.707,5.6681,5.6292,5.5818,5.4888,5.4448,5.4076,5.3636,5.3518,5.3518,5.3518,5.3518,5.3518,5.3518,5.3518,5.3331,5.3281,5.3298,5.3129,5.2858,5.2858,5.2875,5.2892,5.2892,5.2892,5.2892,5.2841,5.2909,5.2993,5.3061,5.3179,5.3298,5.3298,5.3196,5.2993,5.2959,5.3061,5.3145,5.3179,5.3298,5.3467,5.3518,5.3518,5.3518,5.3518,5.3518,5.3518,5.3518,5.3518,5.3518,5.3518,5.3518,5.3518,5.3518,5.3518,5.3518,5.3518,5.3518,5.3433,5.3112,5.2621,5.1877,5.0963,5.0101,4.9881,4.956,4.934,4.9204,4.9086,4.9035,4.9018,4.9018,4.9018,4.9018,4.8984,4.8968,4.8934,4.8793,4.8373,4.7711,4.6848,4.5877,4.479,4.3576,4.2438,4.1576,4.068,4.0222,3.9903,3.9694,3.9642,3.9873,3.9657,3.9463,3.9702,3.9948,3.9679,5.3399,5.3501,5.3518,5.3518,5.3518,5.3518,5.3518,5.3518,5.3518,5.3518,5.394,5.5006,5.5681,5.6105,5.7239,5.7865,5.7881,5.7865,5.7679,5.7357,5.6934,5.6528,5.5547,5.5023,5.4465,5.4025,5.3737,5.3551,5.3518,5.3518,5.3518,5.3518,5.3518,5.3518,5.3501,5.3484,5.3518,5.3518,5.3518,5.3518,5.3518,5.3518,5.3518,5.3518,5.3518,5.3518,5.3518,5.3518,5.3501,5.3484,5.3501,5.3518,5.3518,5.3518,5.3518,5.3534,5.3518,5.3518,5.3518,5.3518,5.3518,5.3518,5.3518,5.3518,5.3518,5.3518,5.3518,5.3518,5.3518,5.3518,5.3518,5.3518,5.3518,5.3518,5.3518,5.3518,5.3518,5.3518,5.323,5.2841,5.2063,5.1217,5.0591,5.0219,4.9729,4.9424,4.9204,4.9103,4.9035,4.9018,4.9018,4.9018,4.9018,4.9018,4.9018,4.8925,4.8769,4.8207,4.7539,4.658,4.5768,4.4685,4.3692,4.2775,4.1921,4.118,4.0733,4.0621,4.0487,4.0367,4.0427,4.0457,4.0472,4.0427,4.0187,5.323,5.3416,5.3433,5.3467,5.3518,5.3518,5.3518,5.3518,5.3518,5.3518,5.3704,5.4837,5.5547,5.6055,5.707,5.7881,5.7881,5.7881,5.7848,5.7746,5.734,5.6985,5.6444,5.5784,5.5023,5.4786,5.4414,5.3788,5.3534,5.3518,5.3518,5.3518,5.3518,5.3518,5.3518,5.3518,5.3518,5.3518,5.3518,5.3518,5.3518,5.3518,5.3518,5.3518,5.3518,5.3518,5.3518,5.3518,5.3518,5.3518,5.3518,5.3518,5.3518,5.3518,5.3585,5.367,5.3602,5.3518,5.3518,5.3518,5.3518,5.3518,5.3518,5.3518,5.3518,5.3518,5.3518,5.3518,5.3518,5.3518,5.3518,5.3518,5.3518,5.3518,5.3518,5.3518,5.3518,5.3518,5.3518,5.3162,5.279,5.2249,5.1522,5.0811,5.0304,4.983,4.9593,4.9221,4.9154,4.9035,4.9018,4.9018,4.9018,4.9018,4.9018,4.9018,4.8832,4.8482,4.7933,4.7209,4.6597,4.5881,4.4928,4.4013,4.3448,4.2731,4.2168,4.146,4.1145,4.1055,4.1302,4.1317,4.1025,4.0965,4.0861,5.2886,5.323,5.323,5.3348,5.3501,5.3518,5.3518,5.3518,5.3518,5.3518,5.3551,5.4363,5.5158,5.6004,5.7188,5.7797,5.7881,5.7881,5.7881,5.7848,5.7695,5.7357,5.69,5.6714,5.6004,5.5598,5.5395,5.4651,5.4025,5.3737,5.3636,5.3687,5.3754,5.3585,5.3822,5.3721,5.3518,5.3534,5.3534,5.3518,5.3518,5.3518,5.3518,5.3518,5.3568,5.3602,5.367,5.3721,5.3737,5.367,5.3602,5.3551,5.3518,5.3518,5.389,5.4059,5.394,5.3518,5.367,5.3771,5.3771,5.3822,5.3721,5.3568,5.3737,5.3771,5.3754,5.3518,5.3602,5.3636,5.367,5.3568,5.3534,5.3518,5.3518,5.3518,5.3518,5.3518,5.3518,5.3484,5.3145,5.2807,5.2266,5.1555,5.0879,5.0405,4.9965,4.9644,4.9373,4.934,4.9035,4.9018,4.9018,4.9018,4.9018,4.9018,4.8911,4.8675,4.826,4.777,4.722,4.6636,4.6163,4.5313,4.4768,4.3994,4.3072,4.2333,4.1829,4.1746,4.2031,4.1813,4.1392,4.1422,4.1579,5.2148,5.3058,5.3161,5.3314,5.3501,5.3518,5.3518,5.3518,5.3518,5.3518,5.3636,5.4279,5.5226,5.6258,5.7087,5.7492,5.7797,5.7881,5.7881,5.7881,5.7848,5.7712,5.7391,5.7019,5.6545,5.6376,5.5919,5.5463,5.4854,5.4752,5.4752,5.4702,5.4718,5.4837,5.4549,5.4296,5.4177,5.4025,5.3771,5.3534,5.3518,5.3518,5.3534,5.3551,5.3907,5.4076,5.4194,5.46,5.4735,5.4752,5.4752,5.4752,5.4752,5.4786,5.4955,5.5108,5.4972,5.4803,5.4786,5.4735,5.4668,5.4718,5.4718,5.4837,5.4769,5.4702,5.4667,5.4735,5.4769,5.4566,5.4211,5.4126,5.3839,5.3704,5.367,5.3602,5.3585,5.3518,5.3518,5.3518,5.3484,5.3162,5.2841,5.23,5.1708,5.1352,5.093,5.0574,5.0236,4.9999,4.956,4.9018,4.9018,4.9018,4.9018,4.9018,4.9007,4.882,4.8595,4.8114,4.7737,4.7237,4.6793,4.6445,4.5968,4.5068,4.3992,4.3475,4.3137,4.2932,4.2777,4.2597,4.2423,4.2455,4.2515,5.1327,5.2485,5.2903,5.3179,5.3416,5.3484,5.3518,5.3518,5.3518,5.3518,5.3704,5.4296,5.5327,5.6359,5.6748,5.7256,5.7865,5.7881,5.7881,5.7881,5.7881,5.7865,5.7679,5.7306,5.712,5.7053,5.6697,5.6376,5.6325,5.6207,5.6072,5.5715,5.548,5.5563,5.5478,5.5175,5.4871,5.4837,5.4431,5.4211,5.4177,5.416,5.416,5.4279,5.4549,5.4871,5.4972,5.5294,5.558,5.558,5.5529,5.5497,5.5495,5.5462,5.5683,5.5869,5.5869,5.6038,5.597,5.5902,5.5784,5.5681,5.5681,5.5478,5.5546,5.5716,5.5664,5.5495,5.5512,5.5277,5.504,5.4871,5.4685,5.4329,5.4025,5.3873,5.3754,5.3754,5.3636,5.3518,5.3518,5.3518,5.3196,5.2892,5.2536,5.2266,5.1894,5.1488,5.1065,5.0676,5.0321,4.9796,4.9813,4.9796,4.9729,4.9579,4.9364,4.9082,4.8858,4.8599,4.8295,4.7919,4.7489,4.722,4.703,4.644,4.5511,4.4987,4.4465,4.4029,4.3701,4.3721,4.3642,4.3542,4.3294,5.0454,5.1306,5.2255,5.2852,5.323,5.3416,5.3518,5.3518,5.3518,5.3518,5.3602,5.4245,5.4972,5.5818,5.6494,5.712,5.7881,5.7881,5.7881,5.7881,5.7881,5.7881,5.7797,5.7746,5.7712,5.7712,5.7425,5.7476,5.7628,5.734,5.6765,5.5919,5.6122,5.5869,5.5801,5.5801,5.5547,5.5497,5.526,5.531,5.531,5.5344,5.5361,5.5429,5.5547,5.5632,5.5632,5.5869,5.5987,5.6004,5.6038,5.6021,5.6122,5.6089,5.6308,5.6613,5.6714,5.6951,5.7087,5.6562,5.5867,5.5732,5.5852,5.6038,5.6105,5.5869,5.5732,5.597,5.6156,5.5902,5.5716,5.558,5.5497,5.5124,5.4735,5.4583,5.438,5.4059,5.3907,5.3619,5.3568,5.3687,5.3501,5.3196,5.2993,5.2706,5.2553,5.2164,5.1606,5.1217,5.1133,5.0896,5.0913,5.0913,5.0847,5.061,5.0105,4.982,4.9624,4.9323,4.8994,4.8622,4.8314,4.81,4.7869,4.7486,4.7033,4.6288,4.5572,4.494,4.4541,4.4366,4.4089,4.3817,4.3581,4.9805,5.0608,5.1496,5.2291,5.3041,5.323,5.3382,5.3467,5.3518,5.3518,5.3534,5.3839,5.46,5.5547,5.6004,5.6799,5.7763,5.7881,5.7881,5.7881,5.7881,5.7881,5.7881,5.7881,5.7865,5.7881,5.7881,5.7881,5.7831,5.7881,5.7695,5.7154,5.6934,5.707,5.6985,5.6528,5.619,5.5852,5.5732,5.5698,5.5681,5.5681,5.5681,5.5716,5.6275,5.6342,5.6444,5.6867,5.6985,5.7002,5.6968,5.6917,5.6884,5.69,5.707,5.7357,5.7374,5.7577,5.7763,5.734,5.7087,5.7036,5.707,5.7002,5.6884,5.6985,5.7036,5.707,5.6968,5.6765,5.6427,5.6359,5.6241,5.5835,5.553,5.5344,5.5091,5.4769,5.4465,5.4296,5.411,5.4059,5.3788,5.3484,5.3315,5.3129,5.301,5.279,5.2249,5.186,5.1792,5.1674,5.1657,5.1555,5.1472,5.1166,5.0794,5.0593,5.0409,5.0124,4.9807,4.9577,4.9287,4.9022,4.8757,4.8381,4.7885,4.737,4.6689,4.5857,4.5237,4.4827,4.448,4.4127,4.3856,4.9138,4.9884,5.0723,5.1696,5.2677,5.3007,5.3179,5.3314,5.3331,5.3365,5.345,5.3704,5.4499,5.5445,5.6019,5.6714,5.7645,5.7881,5.7881,5.7881,5.7881,5.7881,5.7881,5.7881,5.7881,5.7881,5.7881,5.7881,5.7881,5.7881,5.7797,5.778,5.7865,5.7797,5.7679,5.7391,5.685,5.6494,5.6359,5.6359,5.641,5.6427,5.6444,5.6494,5.6917,5.7103,5.7205,5.7476,5.7679,5.7712,5.7746,5.7814,5.7848,5.7881,5.7881,5.7881,5.7881,5.7881,5.7881,5.7881,5.7881,5.7695,5.7729,5.7763,5.7881,5.7881,5.7662,5.7729,5.778,5.7662,5.712,5.7103,5.7053,5.6714,5.6258,5.6021,5.5869,5.5615,5.5277,5.5006,5.4854,5.4685,5.4093,5.3788,5.3534,5.3399,5.3281,5.3162,5.2942,5.2638,5.2536,5.2384,5.2232,5.2114,5.1961,5.1742,5.1522,5.1369,5.1168,5.0982,5.0698,5.0465,5.0298,5.0149,4.9801,4.9318,4.9075,4.8962,4.7929,4.6684,4.6152,4.5636,4.494,4.4594,4.4205,4.8578,4.9015,4.9868,5.1011,5.2183,5.2712,5.2903,5.2903,5.2955,5.3024,5.328,5.4041,5.487,5.5698,5.6273,5.7103,5.7695,5.7881,5.7881,5.7881,5.7881,5.7881,5.7881,5.7881,5.7881,5.7881,5.7881,5.7881,5.7881,5.7881,5.7881,5.7881,5.7881,5.7881,5.7881,5.7865,5.7814,5.7797,5.7679,5.7594,5.7543,5.7509,5.7492,5.7509,5.7577,5.7645,5.7712,5.7763,5.7881,5.7881,5.7881,5.7881,5.7881,5.7881,5.7881,5.7881,5.7881,5.7881,5.7881,5.7881,5.7881,5.7881,5.7881,5.7881,5.7881,5.7881,5.7881,5.7881,5.7881,5.7865,5.7797,5.778,5.7645,5.7459,5.6968,5.6765,5.663,5.6511,5.6207,5.5801,5.5649,5.5429,5.4685,5.411,5.3805,5.3619,5.3534,5.3433,5.3331,5.323,5.3061,5.2976,5.2773,5.279,5.2655,5.2469,5.2266,5.2114,5.2012,5.1911,5.1657,5.1321,5.1203,5.1185,5.0782,5.02,5.0503,5.0791,4.951,4.8208,4.7176,4.6514,4.5745,4.5161,4.4924,4.816,4.8728,4.9309,5.0049,5.0951,5.1786,5.2236,5.2485,5.2626,5.2731,5.3037,5.3935,5.4815,5.5592,5.6423,5.7222,5.778,5.7881,5.7881,5.7881,5.7881,5.7881,5.7881,5.7881,5.7881,5.7881,5.7881,5.7881,5.7881,5.7881,5.7881,5.7881,5.7881,5.7881,5.7881,5.7881,5.7865,5.7865,5.7848,5.7865,5.7881,5.7881,5.7881,5.7881,5.7881,5.7881,5.7881,5.7881,5.7881,5.7881,5.7881,5.7881,5.7881,5.7881,5.7881,5.7881,5.7881,5.7881,5.7881,5.7881,5.7881,5.7881,5.7881,5.7881,5.7881,5.7881,5.7881,5.7881,5.7881,5.7881,5.7865,5.7848,5.778,5.778,5.7526,5.7526,5.7442,5.7374,5.7154,5.6664,5.6393,5.6021,5.5429,5.4888,5.4515,5.416,5.4076,5.367,5.3467,5.345,5.3348,5.3365,5.3315,5.3399,5.3348,5.301,5.2909,5.2824,5.2892,5.2993,5.2672,5.2181,5.2029,5.1929,5.154,5.1185,5.139,5.1393,5.0824,4.9843,4.9035,4.8177,4.753,4.6755,4.6009,4.7837,4.8286,4.8713,4.9203,4.9789,5.0783,5.1492,5.1822,5.2076,5.2219,5.2577,5.3766,5.4716,5.5478,5.6499,5.7215,5.7808,5.7881,5.7881,5.7881,5.7881,5.7881,5.7881,5.7881,5.7881,5.7881,5.7881,5.7881,5.7881,5.7881,5.7881,5.7881,5.7881,5.7881,5.7881,5.7881,5.7881,5.7881,5.7881,5.7881,5.7881,5.7881,5.7881,5.7881,5.7881,5.7881,5.7881,5.7881,5.7881,5.7881,5.7881,5.7881,5.7881,5.7881,5.7881,5.7881,5.7881,5.7881,5.7881,5.7881,5.7881,5.7881,5.7881,5.7881,5.7881,5.7881,5.7881,5.7881,5.7881,5.7881,5.7881,5.7881,5.7881,5.7881,5.7865,5.7848,5.7814,5.7712,5.7662,5.7222,5.7036,5.6647,5.6207,5.5767,5.531,5.4955,5.4617,5.416,5.3704,5.3619,5.3619,5.3602,5.3551,5.3518,5.3518,5.3416,5.3382,5.3484,5.3501,5.3501,5.3382,5.2858,5.279,5.2723,5.2469,5.2233,5.2115,5.1947,5.1781,5.1614,5.1294,5.0426,4.943,4.8454,4.7453,4.7581,4.7666,4.8091,4.8412,4.8826,4.9884,5.0493,5.08,5.1177,5.1475,5.1794,5.3761,5.4629,5.5109,5.666,5.7467,5.7608,5.7789,5.7845,5.7881,5.7881,5.7881,5.7881,5.7881,5.7881,5.7881,5.7881,5.7881,5.7881,5.7881,5.7881,5.7881,5.7881,5.7881,5.7881,5.7881,5.7881,5.7881,5.7881,5.7881,5.7881,5.7881,5.7881,5.7881,5.7881,5.7881,5.7881,5.7881,5.7881,5.7881,5.7881,5.7881,5.7881,5.7881,5.7881,5.7881,5.7881,5.7881,5.7881,5.7881,5.7881,5.7881,5.7881,5.7881,5.7881,5.7881,5.7881,5.7881,5.7881,5.7881,5.7881,5.7881,5.7881,5.7881,5.7881,5.7865,5.7865,5.7848,5.7848,5.7712,5.7695,5.7391,5.6917,5.6478,5.6156,5.5818,5.5429,5.4972,5.4482,5.3873,5.3839,5.3771,5.3687,5.3534,5.3518,5.3518,5.3518,5.3518,5.3518,5.3501,5.345,5.3433,5.3247,5.3179,5.3365,5.3281,5.2875,5.2926,5.3163,5.2977,5.2538,5.1979,5.0806,4.996,4.9053,4.7467,4.7639,4.7752,4.7964,4.8202,4.8563,4.9163,4.9924,5.0221,5.0531,5.0934,5.2872,5.3858,5.4343,5.6115,5.6837,5.7252,5.7476,5.7625,5.7735,5.7808,5.7881,5.7881,5.7881,5.7881,5.7881,5.7881,5.7881,5.7881,5.7881,5.7881,5.7881,5.7881,5.7881,5.7881,5.7881,5.7881,5.7881,5.7881,5.7881,5.7881,5.7881,5.7881,5.7881,5.7881,5.7881,5.7881,5.7881,5.7881,5.7881,5.7881,5.7881,5.7881,5.7881,5.7881,5.7881,5.7881,5.7881,5.7881,5.7881,5.7881,5.7881,5.7881,5.7881,5.7881,5.7881,5.7881,5.7881,5.7881,5.7881,5.7881,5.7881,5.7881,5.7881,5.7881,5.7881,5.7881,5.7881,5.7881,5.7881,5.7881,5.7797,5.7357,5.7323,5.7002,5.6664,5.6292,5.5852,5.5294,5.4702,5.4313,5.4262,5.3907,5.3771,5.3585,5.3551,5.3534,5.3518,5.3518,5.3518,5.3484,5.3484,5.3501,5.3518,5.3518,5.3518,5.3433,5.3518,5.3518,5.3518,5.3112,5.2757,5.2231,5.1317,5.0568,4.7381,4.7467,4.7467,4.7596,4.7724,4.7709,4.8175,4.8826,4.9219,4.9606,5.0216,5.1997,5.294,5.3522,5.5182,5.6274,5.6508,5.6987,5.7252,5.7402,5.7678,5.7735,5.7772,5.7845,5.7881,5.7881,5.7881,5.7881,5.7881,5.7881,5.7881,5.7881,5.7881,5.7881,5.7881,5.7881,5.7881,5.7881,5.7881,5.7881,5.7881,5.7881,5.7881,5.7881,5.7881,5.7881,5.7881,5.7881,5.7881,5.7881,5.7881,5.7881,5.7881,5.7881,5.7881,5.7881,5.7881,5.7881,5.7881,5.7881,5.7881,5.7881,5.7881,5.7881,5.7881,5.7881,5.7881,5.7881,5.7881,5.7881,5.7881,5.7881,5.7881,5.7881,5.7881,5.7881,5.7881,5.7881,5.7881,5.7881,5.7881,5.7881,5.7831,5.7881,5.7814,5.7425,5.7205,5.7019,5.6359,5.5632,5.5226,5.504,5.4482,5.4042,5.389,5.3788,5.3704,5.367,5.3518,5.3518,5.3518,5.3518,5.3518,5.3518,5.3518,5.3518,5.3518,5.3518,5.3518,5.3518,5.3518,5.3196,5.2892,5.2536,5.1871,4.7309,4.7294,4.7309,4.7309,4.7309,4.7352,4.7482,4.7639,4.8286,4.8785,4.9484,5.1067,5.1954,5.2593,5.4275,5.5328,5.5741,5.6274,5.6757,5.6987,5.7402,5.7588,5.7698,5.7772,5.7881,5.7881,5.7881,5.7881,5.7881,5.7881,5.7881,5.7881,5.7881,5.7881,5.7881,5.7881,5.7881,5.7881,5.7881,5.7881,5.7881,5.7881,5.7881,5.7881,5.7881,5.7881,5.7881,5.7881,5.7881,5.7881,5.7881,5.7881,5.7881,5.7881,5.7881,5.7881,5.7881,5.7881,5.7881,5.7881,5.7881,5.7881,5.7881,5.7881,5.7881,5.7881,5.7881,5.7881,5.7881,5.7881,5.7881,5.7881,5.7881,5.7881,5.7881,5.7881,5.7881,5.7881,5.7881,5.7881,5.7881,5.7881,5.7881,5.7881,5.7881,5.7797,5.7763,5.7679,5.734,5.6528,5.6139,5.5801,5.5175,5.4685,5.4617,5.4448,5.4059,5.389,5.3788,5.3737,5.3907,5.3754,5.3518,5.3518,5.3518,5.3518,5.3518,5.3518,5.3518,5.3518,5.3518,5.3518,5.3349,5.3128,5.2874,4.7309,4.7309,4.7309,4.7309,4.7309,4.7309,4.7352,4.7396,4.751,4.8007,4.8756,5.0028,5.0964,5.1606,5.328,5.4322,5.48,5.5458,5.6132,5.6603,5.7063,5.7402,5.7571,5.7735,5.7881,5.7881,5.7881,5.7881,5.7881,5.7881,5.7881,5.7881,5.7881,5.7881,5.7881,5.7881,5.7881,5.7881,5.7881,5.7881,5.7881,5.7881,5.7881,5.7881,5.7881,5.7881,5.7881,5.7881,5.7881,5.7881,5.7881,5.7881,5.7881,5.7881,5.7881,5.7881,5.7881,5.7881,5.7881,5.7881,5.7881,5.7898,5.7915,5.7881,5.7881,5.7881,5.7881,5.7898,5.7881,5.7881,5.7881,5.7881,5.7881,5.7881,5.7881,5.7881,5.7881,5.7881,5.7881,5.7881,5.7881,5.7881,5.7881,5.7881,5.7881,5.7865,5.7865,5.7831,5.7814,5.7323,5.6951,5.6562,5.5886,5.548,5.5378,5.5141,5.4752,5.4634,5.4617,5.4499,5.4346,5.4177,5.4008,5.3653,5.3518,5.3653,5.3687,5.3518,5.3518,5.3518,5.3518,5.3518,5.3518,5.3349,5.3247,4.7309,4.7309,4.7309,4.7309,4.7309,4.7309,4.7309,4.7309,4.7309,4.751,4.8034,4.927,5.0216,5.0764,5.2345,5.3346,5.3868,5.4575,5.523,5.5854,5.6564,5.7025,5.7327,5.7625,5.7808,5.7845,5.7881,5.7881,5.7881,5.7881,5.7881,5.7881,5.7881,5.7881,5.7881,5.7881,5.7881,5.7881,5.7881,5.7881,5.7881,5.7881,5.7881,5.7881,5.7881,5.7881,5.7881,5.7881,5.7881,5.7881,5.7881,5.7881,5.7881,5.7881,5.7881,5.7881,5.7881,5.7881,5.7881,5.7915,5.7915,5.7966,5.8321,5.8457,5.8034,5.8034,5.8152,5.8135,5.7915,5.7881,5.7881,5.7881,5.7881,5.7881,5.7881,5.7881,5.7881,5.7881,5.7881,5.7881,5.7881,5.7881,5.7881,5.7881,5.7881,5.7881,5.7881,5.7881,5.7881,5.7881,5.7594,5.7273,5.6596,5.6258,5.6156,5.5852,5.548,5.5412,5.5429,5.5209,5.5023,5.4769,5.4515,5.4363,5.4177,5.4059,5.4025,5.389,5.3585,5.3518,5.3518,5.3518,5.3551,5.367,5.3517,4.7309,4.7309,4.7309,4.7309,4.7309,4.7309,4.7309,4.7309,4.7309,4.7309,4.7531,4.8832,4.9551,5.0319,5.1347,5.2165,5.2978,5.3679,5.4311,5.504,5.5854,5.643,5.6949,5.7289,5.7551,5.7772,5.7845,5.7881,5.7881,5.7881,5.7881,5.7881,5.7881,5.7881,5.7881,5.7881,5.7881,5.7881,5.7881,5.7881,5.7881,5.7881,5.7881,5.7881,5.7881,5.7881,5.7881,5.7881,5.7881,5.7881,5.7881,5.7881,5.7881,5.7881,5.7881,5.7881,5.7881,5.7881,5.7915,5.8068,5.8084,5.8237,5.8778,5.8896,5.8507,5.849,5.8609,5.8355,5.8135,5.7898,5.7898,5.7881,5.7881,5.7881,5.7881,5.7881,5.7881,5.7881,5.7881,5.7881,5.7881,5.7881,5.7881,5.7881,5.7881,5.7881,5.7881,5.7881,5.7881,5.7881,5.7746,5.7594,5.7239,5.7002,5.6917,5.6664,5.6292,5.6241,5.6241,5.5953,5.5631,5.531,5.5192,5.5344,5.5158,5.4837,5.4617,5.4499,5.4126,5.3873,5.4143,5.4346,5.4296,5.4313,5.3974,4.7309,4.7309,4.7309,4.7309,4.7309,4.7309,4.7309,4.7309,4.7309,4.7309,4.7504,4.8116,4.8849,4.9494,5.0427,5.1349,5.2306,5.292,5.3565,5.4295,5.509,5.5838,5.6486,5.6894,5.7289,5.7551,5.7789,5.7881,5.7845,5.7881,5.7881,5.7881,5.7881,5.7881,5.7881,5.7881,5.7881,5.7881,5.7881,5.7881,5.7881,5.7881,5.7881,5.7881,5.7881,5.7881,5.7881,5.7881,5.7881,5.7881,5.7881,5.7881,5.7881,5.7881,5.7881,5.7881,5.7881,5.7881,5.7949,5.8372,5.8507,5.871,5.9268,5.9793,5.959,5.9624,5.9455,5.8879,5.8558,5.8101,5.8,5.7898,5.7881,5.7881,5.7881,5.7881,5.7881,5.7881,5.7881,5.7881,5.7881,5.7881,5.7881,5.7881,5.7881,5.7881,5.7881,5.7881,5.7881,5.7881,5.7881,5.778,5.7679,5.7746,5.7662,5.7509,5.7256,5.7171,5.6985,5.663,5.6241,5.5732,5.5716,5.6089,5.5902,5.5547,5.5344,5.5141,5.5108,5.4972,5.5191,5.5343,5.5191,5.5006,5.4685]}]]